[[{"header":{"parameterUnit":"m.s-1","parameterCategory":1,"la1":30.6,"la2":29.2853,"lo1":-89.7004,"lo2":-87.6739,"dy":0.0162,"dx":0.0183,"nx":112,"ny":82,"refTime":"2026-03-01T00:00:00:Z","depth":0,"parameterNumber":2,"parameterNumberName":"U-component_of_WINDS"},"data":[0.0,0.0,0.0,0.0,0.0,0.0,0.0,0.0,0.0,0.0,0.0,0.0,0.0,0.0,0.0,0.0,0.0,0.0,0.0,0.0,0.0,0.0,0.0,0.0,0.0,0.0,0.0,0.0,0.0,0.0,0.0,0.0,0.0,0.0,0.0,0.0,0.0,0.0,0.0,0.0,0.0,0.0,0.0,0.0,0.0,0.0,0.0,0.0,0.0,0.0,0.0,0.0,0.0,0.0,0.0,0.0,0.0,0.0,0.0,0.0,0.0,0.0,0.0,0.0,0.0,0.0,0.0,0.0,0.0,0.0,0.0,0.0,0.0,0.0,0.0,0.0,0.0,0.0,0.0,0.0,0.0,0.0,0.0,0.0,0.0,0.0,0.0,0.0,0.0,0.0,-1.3148,-1.4653,-1.581,-1.65,-1.65,-1.6425,-1.56,-1.3727,0.0,0.0,0.0,0.0,0.0,0.0,0.0,0.0,0.0,0.0,0.0,0.0,0.0,0.0,0.0,0.0,0.0,0.0,0.0,0.0,0.0,0.0,0.0,0.0,0.0,0.0,0.0,0.0,0.0,0.0,0.0,0.0,0.0,0.0,0.0,0.0,0.0,0.0,0.0,0.0,0.0,0.0,0.0,0.0,0.0,0.0,0.0,0.0,0.0,0.0,0.0,0.0,0.0,0.0,0.0,0.0,0.0,0.0,0.0,0.0,0.0,0.0,0.0,0.0,0.0,0.0,0.0,0.0,0.0,0.0,0.0,0.0,0.0,0.0,0.0,0.0,0.0,0.0,0.0,0.0,0.0,0.0,0.0,0.0,0.0,0.0,0.0,0.0,0.0,0.0,0.0,0.0,0.0,0.0,0.0,0.0,0.0,0.0,0.0,0.0,0.0,0.0,0.0,0.0,-1.3096,-1.5901,-1.6392,-1.65,-1.65,-1.6082,-1.5097,-1.3367,0.0,0.0,0.0,0.0,0.0,0.0,0.0,0.0,0.0,0.0,0.0,0.0,0.0,0.0,0.0,0.0,0.0,0.0,0.0,0.0,0.0,0.0,0.0,0.0,0.0,0.0,0.0,0.0,0.0,0.0,0.0,0.0,0.0,0.0,0.0,0.0,0.0,0.0,0.0,0.0,0.0,0.0,0.0,0.0,0.0,0.0,0.0,0.0,0.0,0.0,0.0,0.0,0.0,0.0,0.0,0.0,0.0,0.0,0.0,0.0,0.0,0.0,0.0,0.0,0.0,0.0,0.0,0.0,0.0,0.0,0.0,0.0,0.0,0.0,0.0,0.0,0.0,0.0,0.0,0.0,0.0,0.0,0.0,0.0,0.0,0.0,0.0,0.0,0.0,0.0,0.0,0.0,0.0,0.0,0.0,0.0,0.0,0.0,0.0,0.0,0.0,0.0,0.0,-1.267,-1.396,-1.6258,-1.65,-1.65,-1.65,-1.6262,-1.5284,-1.3323,-1.2269,0.0,0.0,0.0,0.0,0.0,0.0,0.0,0.0,0.0,0.0,0.0,0.0,0.0,0.0,0.0,0.0,0.0,0.0,0.0,0.0,0.0,0.0,0.0,0.0,0.0,0.0,0.0,0.0,0.0,0.0,0.0,0.0,0.0,0.0,0.0,0.0,0.0,0.0,0.0,0.0,0.0,0.0,0.0,0.0,0.0,0.0,0.0,0.0,0.0,0.0,0.0,0.0,0.0,0.0,0.0,0.0,0.0,0.0,0.0,0.0,0.0,0.0,0.0,0.0,0.0,0.0,0.0,0.0,0.0,0.0,0.0,0.0,0.0,0.0,0.0,0.0,0.0,0.0,0.0,0.0,0.0,0.0,0.0,0.0,0.0,0.0,0.0,0.0,0.0,0.0,0.0,0.0,0.0,0.0,0.0,0.0,0.0,0.0,0.0,0.0,0.0,0.0,-1.4148,-1.4997,-1.635,-1.65,-1.65,-1.65,-1.6283,-1.5284,-1.3323,-1.1939,0.0,0.0,0.0,0.0,0.0,0.0,0.0,0.0,0.0,0.0,0.0,0.0,0.0,0.0,0.0,0.0,0.0,0.0,0.0,0.0,0.0,0.0,0.0,0.0,0.0,0.0,0.0,0.0,0.0,0.0,0.0,0.0,0.0,0.0,0.0,0.0,0.0,0.0,0.0,0.0,0.0,0.0,0.0,0.0,0.0,0.0,0.0,0.0,0.0,0.0,0.0,0.0,0.0,0.0,0.0,0.0,0.0,0.0,0.0,0.0,0.0,0.0,0.0,0.0,0.0,0.0,0.0,0.0,0.0,0.0,0.0,0.0,0.0,0.0,0.0,0.0,0.0,0.0,0.0,0.0,0.0,0.0,0.0,0.0,0.0,0.0,0.0,0.0,0.0,0.0,0.0,0.0,0.0,0.0,0.0,0.0,0.0,0.0,0.0,0.0,0.0,0.0,-1.4312,-1.5819,-1.6425,-1.65,-1.65,-1.65,-1.558,-1.4488,-1.3273,-1.1197,0.0,0.0,0.0,0.0,0.0,0.0,0.0,0.0,0.0,0.0,0.0,0.0,0.0,0.0,0.0,0.0,0.0,0.0,0.0,0.0,0.0,0.0,0.0,0.0,0.0,0.0,0.0,0.0,0.0,0.0,0.0,0.0,0.0,0.0,0.0,0.0,0.0,0.0,0.0,0.0,0.0,0.0,0.0,0.0,0.0,0.0,0.0,0.0,0.0,0.0,0.0,0.0,0.0,0.0,0.0,0.0,0.0,0.0,0.0,0.0,0.0,0.0,0.0,0.0,0.0,0.0,0.0,0.0,0.0,0.0,0.0,0.0,0.0,0.0,0.0,0.0,0.0,0.0,0.0,0.0,0.0,0.0,0.0,0.0,0.0,0.0,0.0,0.0,0.0,0.0,0.0,0.0,0.0,0.0,0.0,0.0,0.0,0.0,0.0,0.0,0.0,0.0,-1.4249,-1.5517,-1.64,-1.65,-1.65,-1.65,-1.6132,-1.5141,-1.3311,0.0,0.0,0.0,0.0,0.0,0.0,0.0,0.0,0.0,0.0,0.0,0.0,0.0,0.0,0.0,0.0,0.0,0.0,0.0,0.0,0.0,0.0,0.0,0.0,0.0,0.0,0.0,0.0,0.0,0.0,0.0,0.0,0.0,0.0,0.0,0.0,0.0,0.0,0.0,0.0,0.0,0.0,0.0,0.0,0.0,0.0,0.0,0.0,0.0,0.0,0.0,0.0,0.0,0.0,0.0,0.0,0.0,0.0,0.0,0.0,0.0,0.0,0.0,0.0,0.0,0.0,0.0,0.0,0.0,0.0,0.0,0.0,0.0,0.0,0.0,0.0,0.0,0.0,0.0,0.0,0.0,0.0,0.0,0.0,0.0,0.0,0.0,0.0,0.0,0.0,0.0,0.0,0.0,0.0,0.0,0.0,0.0,0.0,0.0,0.0,0.0,0.0,-1.296,-1.45,-1.568,-1.6412,-1.65,-1.65,-1.65,-1.6032,-1.5015,-1.3298,0.0,0.0,0.0,0.0,0.0,0.0,0.0,0.0,0.0,0.0,0.0,0.0,0.0,0.0,0.0,0.0,0.0,0.0,0.0,0.0,0.0,0.0,0.0,0.0,0.0,0.0,0.0,0.0,0.0,0.0,0.0,0.0,0.0,0.0,0.0,0.0,0.0,0.0,0.0,0.0,0.0,0.0,0.0,0.0,0.0,0.0,0.0,0.0,0.0,0.0,0.0,0.0,0.0,0.0,0.0,0.0,0.0,0.0,0.0,0.0,0.0,0.0,0.0,0.0,0.0,0.0,0.0,0.0,0.0,0.0,0.0,0.0,0.0,0.0,0.0,0.0,0.0,0.0,0.0,0.0,0.0,0.0,0.0,0.0,0.0,0.0,0.0,0.0,0.0,0.0,0.0,0.0,0.0,0.0,0.0,0.0,0.0,0.0,0.0,0.0,0.0,0.0,-1.306,-1.5133,-1.65,-1.65,-1.65,-1.65,-1.65,-1.5035,-1.3871,0.0,0.0,0.0,0.0,0.0,0.0,0.0,0.0,0.0,0.0,0.0,0.0,0.0,0.0,0.0,0.0,0.0,0.0,0.0,0.0,0.0,0.0,0.0,0.0,0.0,0.0,0.0,0.0,0.0,0.0,0.0,0.0,0.0,0.0,0.0,0.0,0.0,0.0,0.0,0.0,0.0,0.0,0.0,0.0,0.0,0.0,0.0,0.0,0.0,0.0,0.0,0.0,0.0,0.0,0.0,0.0,0.0,0.0,0.0,0.0,0.0,0.0,0.0,0.0,0.0,0.0,0.0,0.0,0.0,0.0,0.0,0.0,0.0,0.0,0.0,0.0,0.0,0.0,0.0,0.0,0.0,0.0,0.0,0.0,0.0,0.0,0.0,0.0,0.0,0.0,0.0,0.0,0.0,0.0,0.0,0.0,0.0,0.0,0.0,0.0,0.0,0.0,0.0,-1.306,-1.5133,-1.65,-1.65,-1.65,-1.65,-1.65,-1.5718,-1.4651,-1.3286,0.0,0.0,0.0,0.0,0.0,0.0,0.0,0.0,0.0,0.0,0.0,0.0,0.0,0.0,0.0,0.0,0.0,0.0,0.0,0.0,0.0,0.0,0.0,0.0,0.0,0.0,0.0,0.0,0.0,0.0,0.0,0.0,0.0,0.0,0.0,0.0,0.0,0.0,0.0,0.0,0.0,0.0,0.0,0.0,0.0,0.0,0.0,0.0,0.0,0.0,0.0,0.0,0.0,0.0,0.0,0.0,0.0,0.0,0.0,0.0,0.0,0.0,0.0,0.0,0.0,0.0,0.0,0.0,0.0,0.0,0.0,0.0,0.0,0.0,0.0,0.0,0.0,0.0,0.0,0.0,0.0,0.0,0.0,0.0,0.0,0.0,0.0,0.0,0.0,0.0,0.0,0.0,0.0,0.0,0.0,0.0,0.0,0.0,0.0,0.0,0.0,0.0,-1.306,-1.5133,-1.65,-1.65,-1.65,-1.65,-1.65,-1.6019,-1.499,-1.3298,0.0,0.0,0.0,0.0,0.0,0.0,0.0,0.0,0.0,0.0,0.0,0.0,0.0,0.0,0.0,0.0,0.0,0.0,0.0,0.0,0.0,0.0,0.0,0.0,0.0,0.0,0.0,0.0,0.0,0.0,0.0,0.0,0.0,0.0,0.0,0.0,0.0,0.0,0.0,0.0,0.0,0.0,0.0,0.0,0.0,0.0,0.0,0.0,0.0,0.0,0.0,0.0,0.0,0.0,0.0,0.0,0.0,0.0,0.0,0.0,0.0,0.0,0.0,0.0,0.0,0.0,0.0,0.0,0.0,0.0,0.0,0.0,0.0,0.0,0.0,0.0,0.0,0.0,0.0,0.0,0.0,0.0,0.0,0.0,0.0,0.0,0.0,0.0,0.0,0.0,0.0,0.0,0.0,0.0,0.0,0.0,0.0,0.0,0.0,0.0,0.0,0.0,-1.306,-1.5133,-1.65,-1.65,-1.65,-1.65,-1.65,-1.6019,-1.5015,-1.3391,0.0,0.0,0.0,0.0,0.0,0.0,0.0,0.0,0.0,0.0,0.0,0.0,0.0,0.0,0.0,0.0,0.0,0.0,0.0,0.0,0.0,0.0,0.0,0.0,0.0,0.0,0.0,0.0,0.0,0.0,0.0,0.0,0.0,0.0,0.0,0.0,0.0,0.0,0.0,0.0,0.0,0.0,0.0,0.0,0.0,0.0,0.0,0.0,0.0,0.0,0.0,0.0,0.0,0.0,0.0,0.0,0.0,0.0,0.0,0.0,-1.6107,-1.5185,0.0,0.0,0.0,0.0,0.0,0.0,0.0,0.0,0.0,0.0,0.0,0.0,0.0,0.0,0.0,0.0,0.0,0.0,0.0,0.0,0.0,0.0,0.0,0.0,0.0,0.0,0.0,0.0,0.0,0.0,0.0,0.0,0.0,0.0,0.0,0.0,0.0,0.0,0.0,0.0,-1.306,-1.5133,-1.65,-1.65,-1.65,-1.65,-1.65,-1.6019,-1.5198,-1.3984,-1.2332,0.0,0.0,0.0,0.0,0.0,0.0,0.0,0.0,0.0,0.0,0.0,0.0,0.0,0.0,0.0,0.0,0.0,0.0,0.0,0.0,0.0,0.0,0.0,0.0,0.0,0.0,0.0,0.0,0.0,0.0,0.0,0.0,0.0,0.0,0.0,0.0,0.0,0.0,0.0,0.0,0.0,0.0,0.0,0.0,0.0,0.0,0.0,0.0,0.0,0.0,0.0,0.0,0.0,0.0,0.0,0.0,0.0,0.0,0.0,-1.8643,-1.7501,0.0,0.0,0.0,0.0,0.0,0.0,0.0,0.0,0.0,0.0,0.0,0.0,0.0,0.0,0.0,0.0,0.0,0.0,0.0,0.0,0.0,0.0,0.0,0.0,0.0,0.0,0.0,0.0,0.0,0.0,0.0,0.0,0.0,0.0,0.0,0.0,0.0,0.0,0.0,0.0,-1.3483,-1.5316,-1.65,-1.65,-1.65,-1.65,-1.65,-1.6237,-1.5618,-1.4551,-1.3144,0.0,0.0,0.0,0.0,0.0,0.0,0.0,0.0,0.0,0.0,0.0,0.0,0.0,0.0,0.0,0.0,0.0,0.0,0.0,0.0,0.0,0.0,0.0,0.0,0.0,0.0,0.0,0.0,0.0,0.0,0.0,0.0,0.0,0.0,0.0,0.0,0.0,0.0,0.0,0.0,0.0,0.0,0.0,0.0,0.0,0.0,0.0,0.0,0.0,0.0,0.0,0.0,0.0,-2.2284,-2.3037,-2.305,-2.3471,-2.3684,-2.3584,-2.187,-2.0778,-2.0175,-1.9284,0.0,0.0,0.0,0.0,0.0,0.0,0.0,0.0,0.0,0.0,0.0,0.0,0.0,0.0,0.0,0.0,0.0,0.0,0.0,0.0,0.0,0.0,-1.6522,-1.6964,-1.7451,-1.7149,-1.4732,0.0,0.0,0.0,0.0,0.0,0.0,0.0,0.0,0.0,0.0,0.0,-1.4085,-1.5555,-1.65,-1.65,-1.65,-1.65,-1.65,-1.65,-1.6082,-1.5097,-1.4074,-1.3069,0.0,0.0,0.0,0.0,0.0,0.0,0.0,0.0,0.0,0.0,0.0,0.0,0.0,0.0,0.0,0.0,0.0,0.0,0.0,0.0,0.0,0.0,0.0,0.0,0.0,0.0,0.0,0.0,0.0,0.0,0.0,0.0,-1.5781,-1.6933,0.0,0.0,0.0,0.0,0.0,0.0,0.0,0.0,0.0,0.0,0.0,0.0,0.0,-2.0614,-2.1644,-2.3326,-2.4123,-2.4148,-2.538,-2.5946,-2.5946,-2.6021,-2.6059,-2.6072,-2.6248,0.0,-2.197,-2.1832,0.0,0.0,0.0,0.0,0.0,0.0,0.0,0.0,0.0,0.0,0.0,0.0,0.0,0.0,0.0,0.0,0.0,0.0,0.0,0.0,0.0,0.0,-1.9284,-1.9346,-1.9422,-1.9258,-1.8418,-1.6308,-1.4104,-1.2492,-1.2128,-1.1711,0.0,0.0,0.0,0.0,0.0,0.0,-1.4664,-1.5793,-1.65,-1.65,-1.65,-1.65,-1.65,-1.65,-1.6237,-1.563,-1.5022,-1.4393,-1.3801,-1.2172,0.0,0.0,0.0,0.0,0.0,0.0,0.0,0.0,0.0,0.0,0.0,0.0,0.0,0.0,0.0,0.0,0.0,0.0,0.0,0.0,0.0,0.0,0.0,0.0,0.0,0.0,0.0,0.0,0.0,-1.5906,-1.7174,-1.7385,-1.7488,-1.7174,0.0,0.0,0.0,0.0,0.0,0.0,0.0,0.0,0.0,-2.1616,-2.2535,-2.3364,-2.4155,-2.5523,-2.6201,-2.6226,-2.7318,-2.7846,-2.7858,-2.8185,-2.8335,-2.8385,-2.8586,-2.7682,-2.5879,-2.4324,-2.2975,-2.1694,0.0,0.0,0.0,0.0,-1.9748,-1.9823,-2.0778,-2.0891,-2.0552,-2.0175,0.0,0.0,0.0,0.0,0.0,0.0,0.0,-1.8105,-1.9032,-1.9774,-2.039,-2.0677,-2.0752,-2.0602,-2.0062,-1.9007,-1.7473,-1.5146,-1.4463,-1.381,-1.2346,-1.2109,0.0,0.0,0.0,-1.4883,-1.5693,-1.6773,-1.7463,-1.7463,-1.7187,-1.6999,-1.6999,-1.6688,-1.6387,-1.617,-1.5663,-1.5248,-1.5009,-1.372,-1.2571,0.0,0.0,0.0,0.0,0.0,0.0,0.0,0.0,0.0,0.0,0.0,0.0,0.0,0.0,0.0,0.0,0.0,0.0,0.0,0.0,0.0,0.0,0.0,0.0,0.0,0.0,0.0,0.0,-1.7564,-1.8518,-1.8278,-1.9196,-1.902,0.0,0.0,0.0,0.0,0.0,0.0,-2.1697,-2.2636,-2.3477,-2.4148,-2.5114,-2.5912,-2.644,-2.7431,-2.7921,-2.7934,-2.8762,-2.9113,-2.9164,-2.9591,-2.9792,-2.9792,-2.9792,-2.9553,-2.8925,-2.6593,-2.5259,-2.4494,-2.3088,-2.246,-2.2385,-2.2799,-2.2774,-2.2723,-2.3979,-2.413,-2.3622,-2.2987,-2.2502,-2.1719,-1.9522,0.0,0.0,0.0,0.0,-2.0099,-2.1257,-2.1546,-2.1685,-2.2209,-2.2234,-2.1983,-2.1446,-2.1219,-2.0313,-1.7654,-1.6823,-1.607,-1.4532,-1.4268,0.0,-1.4268,-1.5341,-1.6321,-1.6864,-1.7689,-1.8204,-1.8204,-1.784,-1.7561,-1.741,-1.6986,-1.6651,-1.65,-1.6132,-1.5906,-1.5906,-1.4997,-1.4042,-1.3057,0.0,0.0,0.0,0.0,0.0,0.0,0.0,0.0,0.0,0.0,0.0,0.0,0.0,0.0,0.0,0.0,0.0,0.0,0.0,0.0,0.0,0.0,0.0,0.0,0.0,0.0,0.0,0.0,0.0,-2.0465,-2.1481,0.0,0.0,0.0,0.0,-2.128,-2.228,-2.3396,-2.4525,-2.5134,-2.5937,-2.7042,-2.7645,-2.8197,-2.8712,-2.9365,-2.9666,-2.9666,-2.9729,-2.9741,-2.9754,-2.9779,-2.9792,-2.9792,-2.9792,-2.9779,-2.9654,-2.8448,-2.7306,-2.6311,-2.5636,-2.5084,-2.4625,-2.465,-2.4996,-2.5398,-2.5485,-2.5498,-2.5548,-2.6084,-2.5179,-2.374,-2.3032,-2.2108,0.0,0.0,-2.2092,-2.241,-2.354,-2.3828,-2.3966,-2.4519,-2.4255,-2.3715,-2.3108,-2.2569,-2.1568,-1.9309,-1.8857,-1.8469,-1.7363,0.0,-1.7197,-1.7197,-1.7272,-1.7524,-1.8053,-1.8166,-1.8204,-1.8204,-1.8179,-1.7953,-1.7448,-1.7373,-1.7099,-1.6538,-1.6475,-1.645,-1.645,-1.5919,-1.5361,-1.4783,-1.2659,0.0,0.0,0.0,0.0,0.0,0.0,0.0,0.0,0.0,0.0,0.0,0.0,0.0,0.0,0.0,0.0,0.0,0.0,0.0,0.0,0.0,0.0,0.0,0.0,0.0,0.0,0.0,0.0,-2.2234,-2.354,0.0,-2.208,-2.2648,-2.3251,-2.3602,-2.4657,-2.5611,-2.6364,-2.7256,-2.7921,-2.8335,-2.89,-2.9289,-2.9478,-2.9691,-2.9792,-2.9792,-2.9792,-2.9792,-2.9792,-2.9792,-2.9792,-2.9792,-2.9792,-2.9792,-2.9767,-2.9352,-2.8737,-2.7996,-2.7431,-2.7092,-2.6929,-2.6929,-2.7055,-2.7205,-2.7205,-2.7205,-2.7193,-2.7077,-2.6101,-2.4933,-2.4349,-2.3941,-2.3602,-2.3439,-2.3653,-2.3985,-2.4418,-2.4519,-2.4569,-2.4738,-2.4637,-2.4469,-2.4236,-2.376,-2.305,-2.1866,-2.0815,-1.9736,-1.8631,-1.8418,-1.8204,-1.7511,-1.799,-1.8505,-1.8682,-1.9032,-1.9233,-1.9233,-1.8907,-1.8632,-1.8455,-1.779,-1.7322,-1.7087,-1.6701,-1.65,-1.65,-1.6333,-1.5969,-1.5437,-1.4293,-1.2822,0.0,0.0,0.0,0.0,0.0,0.0,0.0,0.0,0.0,0.0,0.0,0.0,0.0,0.0,0.0,0.0,0.0,0.0,0.0,0.0,0.0,0.0,0.0,0.0,0.0,-2.2042,-2.3735,-2.391,-2.5423,-2.5787,-2.4098,-2.482,-2.5536,-2.59,-2.6779,-2.7532,-2.8097,-2.8825,-2.9302,-2.9452,-2.9867,-3.0156,-3.0331,-3.0331,-3.0331,-3.0331,-3.0331,-3.0331,-3.0331,-3.0331,-3.0231,-3.0068,-3.0068,-2.9967,-2.9792,-2.9792,-2.9566,-2.9189,-2.8812,-2.8674,-2.8674,-2.8674,-2.8674,-2.8674,-2.8674,-2.8549,-2.8323,-2.7959,-2.7205,-2.6377,-2.6038,-2.5891,-2.585,-2.5485,-2.5649,-2.5887,-2.5699,-2.5649,-2.5611,-2.5423,-2.5222,-2.5084,-2.5084,-2.4657,-2.4104,-2.3509,-2.2234,-2.0928,-2.0012,-1.9835,-1.961,-1.8882,-1.9397,-1.9773,-1.961,-1.9874,-2.0024,-1.9823,-1.9497,-1.9196,-1.902,-1.8191,-1.7576,-1.741,-1.6835,-1.65,-1.65,-1.65,-1.6325,-1.5982,-1.5085,-1.3715,-1.1864,0.0,0.0,0.0,0.0,0.0,0.0,0.0,0.0,0.0,0.0,0.0,0.0,0.0,0.0,0.0,0.0,0.0,0.0,0.0,0.0,0.0,0.0,0.0,-2.1546,-2.3502,-2.5096,-2.5636,-2.7155,-2.7519,-2.5887,-2.7205,-2.816,-2.8185,-2.865,-2.9239,-2.9817,-2.9842,-3.0093,-3.062,-3.0633,-3.0884,-3.1386,-3.1386,-3.1386,-3.1386,-3.1386,-3.1386,-3.1386,-3.1386,-3.1122,-3.0633,-3.0633,-3.0331,-2.9817,-2.9817,-2.9817,-2.9792,-2.9792,-2.9792,-2.9792,-2.9792,-2.9792,-2.9792,-2.9792,-2.9428,-2.8913,-2.8913,-2.8599,-2.816,-2.8134,-2.8134,-2.8134,-2.8109,-2.8109,-2.7984,-2.7444,-2.7306,-2.7203,-2.665,-2.6097,-2.5649,-2.5624,-2.5222,-2.4662,-2.4155,-2.315,-2.2209,-2.1606,-2.1506,-2.1506,-2.1493,-2.1493,0.0,-2.0779,-2.0717,-2.049,-1.9886,-1.9823,-1.9623,-1.907,-1.8506,-1.7978,-1.7461,-1.6848,-1.65,-1.65,-1.65,-1.65,-1.65,-1.4934,-1.3569,-1.245,0.0,0.0,0.0,0.0,0.0,0.0,0.0,0.0,0.0,0.0,0.0,0.0,0.0,0.0,0.0,0.0,0.0,0.0,0.0,0.0,0.0,-2.2334,-2.3728,-2.3879,-2.546,-2.6954,-2.7896,-2.88,-2.9151,-2.8687,-2.9063,-2.949,-2.9892,-3.0068,-3.0382,-3.0922,-3.0947,-3.1022,-3.1173,-3.1173,-3.1248,-3.1386,-3.1386,-3.1386,-3.1386,-3.1386,-3.1386,-3.1386,-3.1386,-3.1311,-3.1173,-3.1173,-3.0884,-3.0394,-3.0394,-3.0156,-2.9792,-2.9792,-2.9792,-2.9792,-2.9792,-2.9792,-2.9792,-2.9792,-2.9691,-2.9553,-2.9553,-2.9453,-2.9252,-2.8825,-2.8662,-2.8612,-2.8222,-2.8109,-2.8072,-2.7921,-2.7883,-2.7745,-2.7216,-2.6964,-2.6751,-2.6348,-2.5774,-2.5335,-2.5184,-2.4607,-2.369,-2.2322,-2.2083,-2.1945,-2.1543,-2.1493,-2.1458,-2.1307,-2.1295,-2.1081,-2.0515,-2.0453,-2.0226,-1.9635,-1.8744,-1.8141,-1.799,-1.7061,-1.65,-1.65,-1.65,-1.65,-1.65,-1.5299,-1.4337,0.0,0.0,0.0,0.0,0.0,0.0,0.0,0.0,0.0,0.0,0.0,0.0,0.0,0.0,0.0,0.0,0.0,0.0,0.0,0.0,0.0,0.0,-2.4556,-2.6101,-2.6804,-2.772,-2.8662,-2.949,-3.0118,-3.047,-3.047,-3.047,-3.0595,-3.0922,-3.0947,-3.1072,-3.1373,-3.1386,-3.1499,-3.1725,-3.1738,-3.1851,-3.2102,-3.2102,-3.2102,-3.2102,-3.2102,-3.2102,-3.2102,-3.2102,-3.1964,-3.1738,-3.1738,-3.1436,-3.0947,-3.0947,-3.0746,-3.0419,0.0,0.0,0.0,0.0,-2.9792,-2.9792,-2.9792,-2.9792,-2.9792,-2.9792,-2.9792,-2.9729,-2.939,-2.9289,-2.9227,-2.89,-2.8812,-2.875,-2.8511,-2.8448,-2.831,-2.7758,-2.7632,-2.7482,-2.6952,-2.6575,-2.6163,-2.5686,-2.536,0.0,-2.3534,-2.3175,-2.2824,-2.2272,-2.2184,-2.2096,-2.187,-2.1832,-2.1619,-2.1094,-2.1043,-2.0805,-2.0239,-1.9371,0.0,0.0,0.0,-1.6773,-1.65,-1.65,0.0,0.0,0.0,0.0,0.0,0.0,0.0,0.0,-1.3065,-1.2714,0.0,0.0,0.0,0.0,0.0,0.0,0.0,0.0,0.0,0.0,0.0,0.0,0.0,0.0,0.0,0.0,-2.6527,-2.8122,-2.9741,-3.003,-3.0218,-3.0658,-3.111,-3.1386,-3.1386,-3.1386,-3.1411,-3.1486,-3.1486,-3.1512,-3.1574,-3.1587,0.0,0.0,0.0,-3.2554,-3.3111,-3.3124,-3.3124,-3.3124,-3.3124,-3.3124,-3.3124,-3.3124,-3.2805,-3.2303,-3.2303,-3.1989,-3.1486,-3.1486,-3.1449,-3.1286,-3.0281,-2.9842,-2.9792,-2.9792,-2.9792,-2.9792,-2.9792,0.0,0.0,-2.9792,-2.9792,-2.9792,-2.9792,-2.9792,-2.9792,-2.9792,-2.9792,-2.9679,-2.9126,-2.8988,-2.885,-2.8335,-2.8197,-2.8047,-2.7494,-2.7318,-2.6992,-2.5988,-2.5737,-2.5523,-2.4963,-2.4456,-2.3904,-2.3283,-2.3195,-2.2995,-2.2443,-2.2397,-2.2196,-2.1644,-2.1581,0.0,-2.083,-2.0175,-1.961,-1.9121,-1.8078,-1.725,-1.6701,-1.6688,-1.6688,-1.6688,-1.6688,-1.6961,-1.7498,-1.7498,-1.7498,-1.7423,-1.4438,-1.381,0.0,0.0,0.0,0.0,0.0,0.0,0.0,0.0,0.0,0.0,0.0,0.0,0.0,0.0,0.0,-2.7118,-2.8511,-2.9716,-3.0909,-3.1461,-3.1625,-3.1273,-3.1336,-3.1386,-3.1386,-3.1386,-3.1574,-3.2026,-3.2051,-3.2252,-3.2772,-3.2797,-3.2847,-3.2905,-3.2918,-3.2968,-3.3124,-3.3124,-3.3124,-3.3124,-3.3124,0.0,-3.3124,-3.3124,-3.3061,-3.2918,-3.2918,-3.2591,-3.2051,-3.2051,-3.1788,-3.1336,-3.0696,-3.0181,-2.9792,-2.9792,-2.9792,-2.9792,-2.9792,-2.9792,-2.9792,-2.9792,-2.9792,-2.9792,-2.9792,-2.9792,0.0,-2.9792,-2.9792,-2.9767,-2.9654,-2.9628,-2.9478,-2.8875,-2.8737,-2.8612,-2.8059,-2.7595,-2.7218,-2.6992,-2.6637,-2.6147,-2.5548,-2.5008,-2.4469,-2.3916,-2.3841,-2.3615,-2.302,-2.2945,-2.2732,-2.2209,-2.2159,-2.1933,-2.1408,-2.0388,-1.9761,-1.966,-1.8643,-1.799,-1.789,-1.7877,-1.7877,-1.7877,-1.7877,-1.794,-1.8053,-1.8053,-1.8053,-1.8028,-1.7388,-1.7024,0.0,0.0,0.0,0.0,0.0,0.0,0.0,0.0,0.0,0.0,0.0,-2.2661,-2.3753,0.0,-2.7017,-2.8674,-2.988,-3.0871,-3.1687,-3.2039,-3.2114,-3.1838,-3.2064,-3.2227,-3.2227,-3.2227,-3.2353,-3.2629,-3.2641,-3.2767,-3.3056,-3.3124,-3.3124,-3.3124,-3.3124,-3.3124,-3.3124,-3.3124,-3.3124,-3.3124,-3.3124,-3.3124,-3.3124,-3.3124,-3.3124,-3.3124,-3.3124,-3.2918,-3.2641,-3.2641,-3.2315,-3.1775,-3.1524,-3.1072,-3.0595,-3.0595,-3.0432,-3.0206,-3.0206,-3.0018,-2.9792,-2.9792,-2.9792,-2.9792,-2.9792,-2.9792,-2.9792,-2.9792,-2.9792,-2.9792,-2.9792,-2.9792,-2.9716,-2.9428,-2.9365,-2.9202,-2.8599,-2.8298,-2.7946,-2.7394,-2.709,-2.6725,-2.616,-2.5812,-2.536,-2.4544,-2.4406,-2.4205,-2.3609,-2.3534,-2.3321,-2.2757,-2.2694,-2.2468,-2.1945,-2.1129,-2.0526,-2.0277,-1.9761,-1.9309,-1.9007,-1.8732,-1.8744,-1.8995,-1.848,-1.8606,-1.9459,-1.9145,-1.9296,-1.9849,-1.9849,-1.9108,0.0,0.0,0.0,0.0,0.0,0.0,0.0,-2.1142,-2.1974,-2.305,-2.4167,-2.5222,-2.6088,-2.7532,-2.8963,-3.008,-3.0984,-3.175,-3.2303,-3.2378,-3.2378,-3.2378,-3.2792,-3.3124,-3.3124,-3.3124,-3.3124,-3.3124,-3.3124,-3.3124,-3.3124,-3.3124,-3.3124,-3.3124,-3.3124,-3.3124,-3.3124,-3.3124,-3.3124,-3.3124,-3.3124,-3.3124,-3.3124,-3.3124,-3.3124,-3.3124,-3.3124,-3.3124,-3.3124,-3.3124,-3.2805,-3.2378,-3.2378,-3.2102,-3.1687,-3.1474,-3.1122,-3.0771,-3.0771,-3.0407,-2.9955,-2.9955,-2.988,-2.9792,-2.9792,-2.9792,-2.9792,-2.9792,-2.9792,-2.9792,-2.9792,-2.9792,-2.9792,-2.9792,-2.9792,-2.9666,-2.9202,-2.8963,-2.8624,-2.777,-2.7519,-2.7304,-2.6751,-2.665,-2.6285,-2.5146,-2.4971,-2.477,-2.423,-2.4155,-2.3979,-2.3484,-2.3333,-2.3007,-2.2372,-2.1895,-2.1446,-2.0893,-2.0855,-2.0641,-2.015,-1.9723,-1.9698,-2.0125,-1.9284,-1.9497,-2.0842,-2.0363,-2.0589,-2.1493,-2.1493,-2.0539,-2.1744,-2.0476,-2.0112,-2.143,-2.1481,-2.2108,0.0,-2.5674,-2.536,-2.649,-2.7607,-2.8374,-2.8499,-2.949,-3.0683,-3.1775,-3.2039,-3.2315,-3.2905,-3.298,-3.298,-3.298,-3.3074,-3.3124,-3.3124,-3.3124,-3.3124,-3.3124,-3.3124,-3.3124,-3.3124,-3.3124,-3.3124,-3.3124,-3.3124,-3.3124,-3.3124,-3.3124,-3.3124,-3.3124,-3.3124,-3.3124,-3.3124,-3.3124,-3.3124,-3.3124,-3.3124,-3.3124,-3.3124,-3.3124,-3.3043,-3.298,-3.298,-3.2943,-3.281,-3.1763,-3.1348,-3.1298,-3.1298,-3.0959,-3.052,-3.052,-3.0193,-2.9792,-2.9792,-2.9792,-2.9792,-2.9792,-2.9792,-2.9792,-2.9792,-2.9792,-2.9792,-2.9792,-2.9792,-2.9779,-2.9704,-2.9289,-2.885,-2.8737,-2.8348,-2.7846,-2.7281,-2.7228,-2.6804,-2.5674,-2.5511,-2.5322,-2.4763,-2.47,-2.4675,-2.4612,-2.4192,-2.3477,-2.2397,-2.2246,-2.1983,-2.143,-2.1393,-2.1395,-2.1305,-2.1242,-2.1242,-2.1292,-2.1179,-2.1204,-2.1393,-2.133,-2.1395,-2.1493,-2.1493,-2.1355,-2.4318,-2.3527,-2.3188,-2.3276,-2.4079,-2.5229,-2.6537,-2.6942,-2.7381,-2.8511,-2.9365,-2.9966,-3.0306,-3.1009,-3.1687,-3.2139,-3.2491,-3.2805,-3.3043,-3.278,-3.2579,-3.2579,-3.229,-3.2353,-3.3061,-3.3124,-3.3124,-3.3124,-3.3124,-3.3124,-3.3124,-3.3124,-3.3124,-3.3124,-3.3382,-3.3558,-3.3558,-3.3558,-3.3721,-3.4035,-3.3709,-3.3558,-3.3558,-3.3558,-3.3382,-3.3124,-3.3124,-3.3124,-3.3124,-3.3124,-3.3124,-3.3124,-3.3124,-3.3124,-3.3061,-3.2596,-3.2164,-3.1863,-3.1863,-3.1512,-3.1072,-3.1072,-3.0708,-3.0269,-3.0269,-3.0043,-2.9792,-2.9792,-2.9792,-2.9792,-2.9792,-2.9792,-2.9792,-2.9792,-2.9792,-2.9792,-2.9792,-2.9603,-2.934,-2.8963,-2.87,-2.8411,-2.7858,-2.7758,-2.7494,-2.6703,-2.6336,-2.5933,-2.5347,-2.5272,-2.5159,-2.4825,-2.4587,-2.4261,-2.3816,-2.3747,-2.354,-2.2987,-2.2949,-2.2799,-2.246,-2.2133,-2.2121,-2.2447,-2.182,-2.1807,-2.2447,-2.2121,-2.2133,-2.2447,-2.2447,-2.2447,-2.5636,-2.5385,-2.5272,-2.4795,-2.6226,-2.767,-2.7467,-2.8222,-2.9202,-2.988,-3.0444,-3.0896,-3.1135,-3.1625,-3.2039,-3.219,-3.2566,-3.2893,-3.3099,-3.2579,-3.2215,-3.2215,-3.1725,-3.1712,-3.2528,-3.2754,-3.2905,-3.3111,-3.3124,-3.3124,-3.3124,-3.3219,-3.3307,-3.3307,-3.3847,-3.4123,-3.4123,-3.4123,-3.4324,-3.4713,-3.4324,-3.4123,-3.4123,-3.4123,-3.3822,-3.3307,-3.3307,-3.3262,-3.3124,-3.3124,-3.3124,-3.3124,-3.3124,-3.3124,-3.3124,-3.3124,-3.2805,-3.2453,-3.2453,-3.2089,-3.1625,-3.1625,-3.126,-3.0834,-3.0834,-3.0545,-3.0206,-3.0055,-3.0018,-2.998,-2.9829,-2.9792,-2.9792,-2.9792,-2.9792,-2.9792,-2.9792,-2.9792,-2.9666,-2.9252,-2.9126,-2.8988,-2.8436,-2.8335,-2.8147,-2.7595,-2.7203,-2.6688,-2.5925,-2.5837,-2.5636,-2.5096,-2.5034,-2.4938,-2.48,-2.4788,-2.4612,-2.4255,-2.423,-2.401,-2.3584,-2.3195,-2.3158,-2.3559,-2.2824,-2.2799,-2.3572,-2.317,-2.3183,-2.3572,-2.3572,-2.3572,-2.4963,-2.4813,-2.5096,-2.616,-2.7645,-2.8976,-2.9566,-3.052,-3.116,-3.0683,-3.0997,-3.1223,-3.0733,-3.106,-3.1587,-3.2127,-3.2227,-3.2441,-3.3006,-3.2579,-3.2215,-3.2215,-3.1725,-3.1399,-3.1436,-3.1926,-3.2466,-3.3074,-3.3124,-3.3124,-3.3124,-3.3583,-3.3872,-3.3872,-3.4412,-3.47,-3.47,-3.47,-3.4655,-3.468,-3.4655,-3.47,-3.47,-3.47,-3.4399,-3.3872,-3.3872,-3.3571,-3.3124,-3.3124,-3.3124,-3.3124,-3.3124,-3.3124,-3.3124,-3.3124,-3.3111,-3.3056,-3.3056,-3.2667,-3.219,-3.219,-3.1813,-3.1361,-3.1361,-3.1348,-3.1235,-3.0733,-3.0595,-3.047,-2.993,-2.9792,-2.9792,-2.9792,-2.9792,-2.9792,-2.9792,-2.9792,-2.9779,-2.9767,-2.9767,-2.9578,-2.8963,-2.8863,-2.8675,-2.816,-2.8059,-2.7657,-2.6612,-2.6461,-2.6248,-2.5636,-2.5573,-2.5372,-2.4825,-2.4788,-2.4775,-2.4763,-2.4763,-2.4763,-2.4738,-2.4725,-2.4725,-2.4738,-2.4713,-2.4713,-2.4738,-2.4725,-2.4725,-2.4738,-2.4738,-2.4738,-2.5385,-2.638,-2.7596,-2.8009,-2.934,-3.0608,-3.0809,-3.0871,-3.0922,-3.1097,-3.0997,-3.0922,-3.1097,-3.1273,-3.1574,-3.2127,-3.2215,-3.2416,-3.3006,-3.2579,-3.2077,-3.1712,-3.1198,-3.0871,-3.0871,-3.1348,-3.1901,-3.2466,-3.2503,-3.283,-3.3583,-3.3796,-3.406,-3.4437,-3.4931,-3.5219,-3.5219,-3.5219,-3.5454,-3.5805,-3.5441,-3.5219,-3.5207,-3.4843,-3.4625,-3.4449,-3.4449,-3.4135,-3.3621,-3.3621,-3.3407,-3.3124,-3.3124,-3.3124,-3.3124,-3.3124,-3.3124,-3.3124,-3.3124,-3.2955,-3.278,-3.278,-3.2403,-3.1938,-3.1938,-3.1675,-3.1348,-3.1173,-3.1135,-3.1009,-3.0482,-3.0331,-3.0244,-2.988,-2.9792,-2.9792,-2.9792,-2.9792,-2.9792,-2.9792,-2.9792,-2.9729,-2.9528,-2.9503,-2.9315,-2.8737,-2.8335,-2.7846,-2.714,-2.704,-2.6826,-2.6273,-2.6197,-2.6135,-2.5925,-2.5946,-2.5749,-2.536,-2.5335,-2.5184,-2.48,-2.4788,-2.4788,-2.4788,-2.4788,-2.4788,-2.4788,-2.4788,-2.4788,-2.4788,-2.4788,-2.4788,-2.6565,-2.7833,-2.9038,-2.9654,-3.0758,-3.1637,-3.1436,-3.1286,-3.1173,-3.1122,-3.0696,-3.0357,-3.0482,-3.0181,-3.0294,-3.1461,-3.1474,-3.175,-3.2918,-3.2416,-3.1863,-3.17,-3.1047,-3.0683,-3.0871,-3.1198,-3.1625,-3.2177,-3.2403,-3.2918,-3.3847,-3.4085,-3.4449,-3.4956,-3.5554,-3.583,-3.583,-3.583,-3.6019,-3.6405,-3.6006,-3.583,-3.583,-3.5466,-3.5203,-3.4969,-3.4969,-3.4655,-3.4198,-3.4198,-3.3985,-3.3646,-3.3445,-3.337,-3.3345,-3.3156,-3.3124,-3.3124,-3.3124,-3.3124,-3.3124,-3.3124,-3.283,-3.2516,-3.2516,-3.2277,-3.1951,-3.1738,-3.1687,-3.1562,-3.1035,-3.0896,-3.0758,-3.0218,-3.0093,-3.003,-2.9829,-2.9792,-2.9792,-2.9792,-2.9792,-2.9792,-2.9792,-2.9792,-2.9666,-2.9289,-2.8938,-2.8436,-2.767,-2.7582,-2.7444,-2.7115,-2.6901,-2.6788,-2.6788,-2.6612,-2.6336,-2.5959,-2.59,-2.5749,-2.5423,-2.541,-2.541,-2.541,-2.541,-2.541,-2.541,-2.541,-2.541,-2.541,-2.541,-2.541,-2.8311,-2.8976,-2.9427,-3.1035,-3.1851,-3.2114,-3.1549,-3.1813,-3.1863,-3.0758,-3.0068,-2.9478,-2.8838,-2.7946,-2.7996,-3.0168,-3.0168,-3.0633,-3.2822,-3.2152,-3.1662,-3.2152,-3.1311,-3.0884,-3.1348,-3.1411,-3.165,-3.2177,-3.2754,-3.3332,-3.3909,-3.4462,-3.4969,-3.552,-3.6094,-3.6405,-3.6405,-3.6405,-3.6405,-3.6405,-3.6405,-3.6405,-3.6405,-3.6405,-3.6081,-3.5545,-3.5545,-3.5232,-3.4718,-3.4718,-3.4705,-3.4675,-3.4148,-3.3935,-3.3872,-3.3357,-3.3144,-3.3162,-3.3162,-3.3106,-3.3124,-3.3124,-3.3124,-3.3124,-3.3124,-3.3124,-3.2968,-3.2416,-3.2252,-3.2127,-3.1574,-3.1436,-3.1298,-3.0783,-3.0633,-3.047,-2.9942,-2.9817,-2.9792,-2.9792,-2.9792,-2.9792,-2.9792,-2.9792,-2.9792,-2.9792,-2.9792,-2.9402,-2.8285,-2.8147,-2.8134,-2.8109,-2.7632,-2.7318,-2.7318,-2.6876,-2.6575,-2.6575,-2.6575,-2.6562,-2.6537,-2.6537,-2.6524,-2.6499,-2.6499,-2.6499,-2.6499,-2.6499,-2.6499,-2.6499,-2.6499,-2.6499,-2.8624,-3.0079,-3.1474,-3.1901,-3.2441,-3.2704,-3.2139,-3.1788,-3.1173,-2.9628,-2.8599,-2.762,-2.6628,-2.6904,-2.7745,-2.9101,-3.0269,-3.1474,-3.288,-3.283,-3.2541,-3.2252,-3.1976,-3.17,-3.1411,-3.1763,-3.2064,-3.2202,-3.2754,-3.3495,-3.4462,-3.4994,-3.5533,-3.6132,-3.6329,-3.6405,-3.6405,-3.6405,-3.6405,-3.6405,-3.6405,-3.6405,-3.6405,-3.6405,-3.6329,-3.6157,-3.6157,-3.5843,-3.5295,-3.5295,-3.5044,-3.4713,-3.4562,-3.4512,-3.45,-3.4349,-3.4035,-3.3696,-3.3696,-3.342,-3.3124,-3.3124,-3.3124,-3.3124,-3.3124,-3.3124,-3.3086,-3.2893,-3.2855,-3.2729,-3.2152,-3.2001,-3.1863,-3.1323,-3.0896,-3.057,-3.0432,-3.008,-2.9792,-2.9792,-2.9792,-2.9792,-2.9792,-2.9792,-2.9792,-2.9792,-2.9792,-2.9528,-2.8775,-2.8687,-2.8561,-2.8147,-2.7984,-2.7896,-2.7896,-2.777,-2.7682,-2.7682,-2.7682,-2.7507,-2.7128,-2.7115,-2.6914,-2.6499,-2.6499,-2.6499,-2.6499,-2.6499,-2.6499,-2.6499,-2.6499,-2.6499,-2.9979,-3.1273,-3.2277,-3.2528,-3.2641,-3.2428,-3.1386,-3.0721,-2.9767,-2.7858,-2.6791,-2.5862,-2.472,-2.5435,-2.6565,-2.767,-2.9453,-3.116,-3.2516,-3.2704,-3.2667,-3.2604,-3.2365,-3.219,-3.2139,-3.2416,-3.2692,-3.2943,-3.3257,-3.3822,-3.4675,-3.5207,-3.5805,-3.6392,-3.6405,-3.6405,-3.6405,-3.6405,-3.6405,-3.6405,-3.6405,-3.6405,-3.6405,-3.6405,-3.6405,-3.6405,-3.6405,-3.6194,-3.5893,-3.5893,-3.5717,-3.5416,-3.5132,-3.5044,-3.5006,-3.4768,-3.4525,-3.4261,-3.4261,-3.406,-3.3721,-3.3232,-3.3124,-3.3124,-3.3124,-3.3124,-3.3124,-3.3124,-3.3124,-3.3006,-3.2679,-3.2591,-3.2453,-3.1888,-3.1524,-3.1248,-3.1009,-3.0532,-3.008,-2.9842,-2.9792,-2.9792,-2.9792,-2.9792,-2.9792,-2.9792,-2.9792,-2.9679,-2.9352,-2.9302,-2.9189,-2.8875,-2.8612,-2.8461,-2.8461,-2.8247,-2.8109,-2.8109,-2.8109,-2.7971,-2.7657,-2.7645,-2.7494,-2.7228,-2.718,-2.718,-2.718,-2.6977,-2.6851,-2.6851,-2.6612,-2.6499,-3.1675,-3.2265,-3.2453,-3.2955,-3.2641,-3.1788,-3.0168,-2.9289,-2.811,-2.5762,-2.4858,-2.4086,-2.2882,-2.371,-2.4983,-2.6185,-2.8222,-3.0269,-3.1976,-3.2215,-3.2428,-3.3048,-3.2641,-3.2554,-3.3131,-3.3224,-3.342,-3.3972,-3.4073,-3.4324,-3.4756,-3.5307,-3.5868,-3.6392,-3.6405,-3.6405,-3.6405,-3.6405,-3.6405,-3.6405,-3.6405,-3.6405,-3.6405,-3.6405,-3.6405,-3.6405,-3.6405,-3.6405,-3.6405,-3.6405,-3.6405,-3.6367,-3.583,-3.5608,-3.5545,-3.5115,-3.4889,-3.4826,-3.4826,-3.4776,-3.4562,-3.3608,-3.3244,-3.3224,-3.3224,-3.3174,-3.3124,-3.3124,-3.3124,-3.3124,-3.3124,-3.3124,-3.2955,-3.2441,-3.2265,-3.2077,-3.1599,-3.1085,-3.0557,-3.0005,-2.9905,-2.988,-2.9804,-2.9792,-2.9792,-2.9792,-2.9792,-2.9792,-2.9792,-2.9792,-2.9792,-2.9792,-2.934,-2.9001,-2.9001,-2.8599,-2.8335,-2.8335,-2.8335,-2.8298,-2.8222,-2.821,-2.8185,-2.8109,-2.8109,-2.8109,-2.8109,-2.762,-2.7394,-2.7381,-2.6939,-2.6713,-3.1989,-3.2554,-3.2955,-3.3056,-3.2641,-3.1788,-3.0168,-2.8988,0.0,-2.4173,-2.3095,-2.2259,-2.0665,-2.2029,-2.391,-2.5498,-2.762,-2.9778,-3.1913,-3.2215,-3.2428,-3.3048,-3.2993,-3.3144,-3.3709,-3.3759,-3.3985,-3.4537,-3.4956,-3.5257,-3.5357,-3.5918,-3.6304,-3.6405,-3.6405,-3.6405,-3.6405,-3.6405,-3.6405,-3.6405,-3.6405,-3.6405,-3.6405,-3.6405,-3.6405,-3.6405,-3.6405,-3.6405,-3.6405,-3.6405,-3.6405,-3.6405,-3.6304,-3.6267,-3.6207,-3.6153,-3.5793,-3.5357,-3.5357,-3.5056,-3.4688,-3.45,-3.4123,-3.3759,-3.3759,-3.3432,-3.3124,-3.3124,-3.3124,-3.3124,-3.3124,-3.3124,-3.3056,-3.2955,-3.2554,-3.219,-3.2089,-3.1637,-3.1097,-3.0583,-3.047,-3.0331,-2.988,-2.9792,-2.9792,-2.9792,-2.9792,-2.9792,-2.9792,-2.9792,-2.9792,-2.9792,-2.9704,-2.9641,-2.9641,-2.9553,-2.9503,-2.9503,-2.9503,-2.9277,-2.8762,-2.875,-2.8537,-2.8109,-2.8109,-2.8109,-2.8109,-2.8009,-2.7959,-2.7959,-2.7871,-2.7821,-3.2428,-3.2867,-3.3006,-3.2704,-3.2202,-3.1135,-2.8661,0.0,0.0,-2.2054,-2.0951,-2.0236,-1.9171,-2.0778,-2.2723,-2.4061,-2.6189,-2.8524,-3.1035,-3.1386,-3.18,-3.2943,-3.3332,-3.3608,-3.3872,-3.4161,-3.4562,-3.5069,-3.5345,-3.5495,-3.5495,-3.6056,-3.6405,-3.6405,-3.6405,-3.6405,-3.6405,-3.6405,-3.6405,-3.6405,-3.6405,-3.6405,-3.6405,-3.6405,-3.6405,-3.6405,-3.6405,-3.6405,-3.6405,-3.6405,-3.6405,-3.6405,-3.6405,-3.6405,-3.6405,-3.6405,-3.6194,-3.5968,-3.5968,-3.5793,-3.5579,-3.5579,-3.5014,-3.4324,-3.4324,-3.3935,-3.3508,-3.3508,-3.3307,-3.3124,-3.3124,-3.3124,-3.3124,-3.3124,-3.2867,-3.2579,-3.2277,-3.2001,-3.1662,-3.1122,-3.1022,-3.0846,-3.0319,-3.0218,-3.0118,-2.9829,-2.9792,-2.9792,-2.9792,-2.9792,-2.9792,-2.9792,-2.9792,-2.9792,-2.9792,-2.9792,-2.9792,-2.9792,-2.9792,-2.9666,-2.939,-2.9377,-2.9252,-2.8988,-2.8976,-2.8976,-2.8976,-2.8687,-2.8536,-2.8524,-2.8235,-2.8109,-3.2616,-3.298,-3.2943,-3.2353,-3.1712,-3.0394,-2.7216,-2.5423,0.0,-2.03,-1.9196,-1.8694,-1.8292,-1.9811,-2.1568,0.0,-2.4808,-2.7115,-2.9867,-3.047,-3.1185,-3.2704,-3.3483,0.0,-3.406,-3.4575,-3.5082,-3.5633,-3.5671,-3.5671,-3.5671,-3.6119,-3.6405,-3.6405,-3.6405,-3.6405,-3.6405,-3.6405,-3.6405,-3.6405,-3.6405,-3.6405,-3.6405,-3.6405,-3.6405,-3.6405,-3.6405,-3.6405,-3.6405,-3.6405,-3.6405,-3.6405,-3.6405,-3.6405,-3.6405,-3.6405,-3.6405,-3.6405,-3.6405,-3.6405,-3.6405,-3.6405,-3.5705,-3.4856,-3.4856,-3.4512,-3.4073,-3.4073,-3.3684,-3.3257,-3.3257,-3.3212,-3.3124,-3.3124,-3.3124,-3.2955,-3.2503,-3.239,-3.224,-3.1675,-3.1562,-3.1399,-3.0871,-3.0783,-3.0595,-3.0043,-2.9967,-2.993,-2.9804,-2.9792,-2.9792,-2.9792,-2.9792,-2.9792,-2.9792,-2.9792,-2.9792,-2.9792,-2.9792,-2.9792,-2.9792,-2.9792,-2.9792,-2.9792,-2.9792,-2.9792,-2.9792,-2.934,-2.9076,-2.9063,-2.8662,-2.8461,-3.2127,-3.2679,-3.2943,-3.2353,-3.1436,-2.9942,-2.714,0.0,-2.2456,-1.9647,-1.8656,-1.8267,-1.8216,-1.9158,0.0,0.0,0.0,-2.5937,-2.8662,-2.9967,-3.1035,-3.2152,0.0,0.0,-3.46,-3.5094,-3.5646,-3.6292,-3.6329,-3.6329,-3.6329,-3.638,-3.6405,-3.6405,-3.6405,-3.6405,-3.6405,-3.6405,-3.6405,-3.6405,-3.6405,-3.6405,-3.6405,-3.6405,-3.6405,-3.6405,-3.6405,-3.6405,-3.6405,-3.6405,-3.6405,-3.6405,-3.6405,-3.6405,-3.6405,-3.6405,-3.6405,-3.6405,-3.6405,-3.6405,-3.6405,-3.6405,-3.5956,-3.542,-3.542,-3.5044,-3.465,-3.465,-3.4248,-3.3822,-3.3822,-3.3458,-3.3124,-3.3124,-3.3124,-3.3056,-3.3048,-3.3006,-3.283,-3.2252,-3.2139,-3.1964,-3.1411,-3.1323,-3.1135,-3.062,-3.0545,-3.0357,-2.9854,-2.9792,-2.9792,-2.9792,-2.9792,-2.9792,-2.9792,-2.9792,-2.9792,-2.9792,-2.9792,-2.9792,-2.9792,-2.9792,-2.9792,-2.9792,-2.9792,-2.9792,-2.9792,-2.9741,-2.9716,-2.9716,-2.9666,-2.9641,-3.1976,-3.2641,-3.2898,-3.1951,-3.116,-2.9716,-2.6264,-2.4004,-2.1829,-1.9083,-1.7792,-1.74,-1.8078,-1.8279,-1.9284,0.0,0.0,0.0,-2.6954,-2.7869,-2.89,-3.1009,-3.2215,-3.337,-3.4555,-3.5182,-3.5768,-3.6367,-3.6405,-3.6405,-3.6405,-3.6405,-3.6405,-3.6405,-3.6405,-3.6405,-3.6405,-3.6405,-3.6405,-3.6405,-3.6405,-3.6405,-3.6405,-3.6405,-3.6405,-3.6405,-3.6405,-3.6405,-3.6405,-3.6405,-3.6405,-3.6405,-3.6405,-3.6405,-3.6405,-3.6405,-3.6405,-3.6405,-3.6405,-3.6405,-3.6405,-3.6405,-3.6267,-3.6031,-3.6031,-3.5655,-3.5169,-3.5169,-3.4781,-3.4324,-3.3985,-3.3483,-3.3124,-3.3124,-3.3124,-3.3124,-3.3124,-3.3124,-3.3048,-3.278,-3.2729,-3.2554,-3.1989,-3.1888,-3.17,-3.116,-3.0821,-3.0532,-3.0319,-2.9993,-2.9792,-2.9792,-2.9792,-2.9792,-2.9792,-2.9792,-2.9792,-2.9792,-2.9792,-2.9792,-2.9792,-2.9792,-2.9792,-2.9792,-2.9792,-2.9792,-2.9792,-2.9792,-2.9792,-2.9792,-2.9792,-2.9792,-3.1248,-3.2026,-3.2353,-3.1399,-3.0633,-2.9189,-2.559,-2.3389,-2.133,-1.8744,-1.7277,-1.6789,-1.7777,-1.7777,-1.8493,0.0,0.0,-2.2313,-2.5556,-2.6424,-2.7593,-2.9842,-3.121,-3.2566,-3.4085,-3.5177,-3.5943,-3.638,-3.6405,-3.6405,-3.6405,-3.6405,-3.6405,-3.6405,-3.6405,-3.6405,-3.6405,-3.6405,-3.6405,-3.6405,-3.6405,-3.6405,-3.6405,-3.6405,-3.6405,-3.6405,-3.6405,-3.6405,-3.6405,-3.6405,-3.6405,-3.6405,-3.6405,-3.6405,-3.6405,-3.6405,-3.6405,-3.6405,-3.6405,-3.6405,-3.6405,-3.6405,-3.6405,-3.6405,-3.6405,-3.6094,-3.5793,-3.5793,-3.5345,-3.4756,-3.4085,-3.3608,-3.3282,-3.3162,-3.3124,-3.3124,-3.3124,-3.3124,-3.3124,-3.3124,-3.3124,-3.2955,-3.2541,-3.2466,-3.2277,-3.1725,-3.1323,-3.1035,-3.0871,-3.0369,-3.0043,-3.0043,-2.9892,-2.9792,-2.9792,-2.9792,-2.9792,-2.9792,-2.9792,-2.9792,-2.9792,-2.9792,-2.9792,-2.9792,-2.9792,-2.9792,-2.9792,-2.9792,-2.9792,-2.9792,-2.9792,-2.9792,-2.9666,-3.0595,-3.1286,-3.0758,-2.974,-2.8186,-2.5415,-2.31,-2.0878,-1.8656,-1.7277,-1.6697,-1.731,-1.784,-1.8555,-1.9648,-2.1217,0.0,-2.4562,-2.6251,-2.7695,-2.8775,-3.0394,-3.1851,-3.3023,-3.511,-3.6405,-3.6405,-3.6405,-3.6405,-3.6405,-3.6405,-3.6405,-3.6405,-3.6405,-3.6405,-3.6405,-3.6405,-3.6405,-3.6405,-3.6405,-3.6405,-3.6405,-3.6405,-3.6405,-3.6405,-3.6405,-3.6405,-3.6405,-3.6405,-3.6405,-3.6405,-3.6405,-3.6405,-3.6405,-3.6405,-3.6405,-3.6405,-3.6405,-3.6405,-3.6405,-3.6405,-3.6405,-3.6405,-3.6405,-3.6405,-3.6405,-3.6405,-3.5968,-3.5245,-3.4186,-3.3897,-3.3759,-3.3206,-3.3124,-3.3124,-3.3124,-3.3124,-3.3124,-3.3124,-3.3124,-3.3124,-3.3111,-3.3111,-3.2867,-3.229,-3.2202,-3.2001,-3.1449,-3.0922,-3.0608,-3.0608,-3.0118,-2.9792,-2.9792,-2.9792,-2.9792,-2.9792,-2.9792,-2.9792,-2.9792,-2.9792,-2.9792,-2.9792,-2.9792,-2.9792,-2.9792,-2.9792,-2.9792,-2.9792,-2.9792,-2.9792,-2.7505,-2.8586,-2.9402,-2.8097,-2.7542,-2.6615,-2.4186,-2.2246,-2.0427,-1.8581,-1.7277,-1.6685,-1.7297,-1.72,-1.8005,-2.1029,-2.1644,0.0,0.0,-2.6791,-2.8109,-2.8813,-3.1725,-3.396,-3.4688,-3.573,-3.6405,-3.6405,-3.6405,-3.6405,-3.6405,-3.6405,-3.6405,-3.6405,-3.6405,-3.6405,-3.6405,-3.6405,-3.6405,-3.6405,-3.6405,-3.6405,-3.6405,-3.6405,-3.6405,-3.6405,-3.6405,-3.6405,-3.6405,-3.6405,-3.6405,-3.6405,-3.6405,-3.6405,-3.6405,-3.6405,-3.6405,-3.6405,-3.6405,-3.6405,-3.6405,-3.6405,-3.6405,-3.6405,-3.6405,-3.6405,-3.6405,-3.6405,-3.5968,-3.542,-3.5069,-3.4462,-3.3859,-3.3684,-3.3357,-3.3124,-3.3124,-3.3124,-3.3124,-3.3124,-3.3124,-3.3124,-3.3124,-3.3124,-3.3061,-3.283,-3.2466,-3.2152,-3.1976,-3.1486,-3.1148,-3.1148,-3.067,-3.0206,-2.9829,-2.9792,-2.9792,-2.9792,-2.9792,-2.9792,-2.9792,-2.9792,-2.9792,-2.9792,-2.9792,-2.9792,-2.9792,-2.9792,-2.9792,-2.9792,-2.9792,-2.9792,-2.5531,-2.6741,-2.7482,-2.67,-2.6185,-2.531,-2.3258,-2.1531,-1.9899,-1.8229,-1.7162,-1.66,-1.6986,-1.6936,-1.7702,-2.0338,-2.0991,-2.2099,-2.4632,-2.6427,-2.8072,-2.9666,-3.2365,-3.4399,-3.5119,-3.5918,-3.6405,-3.6405,-3.6405,-3.6405,-3.6405,-3.6405,-3.6405,-3.6405,-3.6405,-3.6405,-3.6405,-3.6405,-3.6405,-3.6405,-3.6405,-3.6405,-3.6405,-3.6405,-3.6405,-3.6405,-3.6405,-3.6405,0.0,-3.6405,-3.6405,-3.6405,-3.6405,-3.6405,-3.6405,-3.6405,-3.6405,-3.6405,-3.6405,-3.6405,-3.6405,-3.6405,-3.6405,-3.6405,-3.6405,-3.6405,-3.6405,-3.6405,-3.6119,-3.5805,-3.5558,-3.4994,-3.4412,-3.3997,-3.3633,-3.3332,-3.3162,-3.3124,-3.3124,-3.3124,-3.3124,-3.3124,-3.3124,-3.3124,-3.3124,-3.3124,-3.2767,-3.2541,-3.2541,-3.2051,-3.17,-3.17,-3.1223,-3.0771,-3.0419,-3.003,-2.9792,-2.9792,-2.9792,-2.9792,-2.9792,-2.9792,-2.9792,-2.9792,-2.9792,-2.9792,-2.9792,-2.9792,-2.9792,-2.9792,-2.9792,-2.9792,0.0,-2.482,-2.536,-2.5845,-2.5197,-2.401,-2.2447,-2.084,0.0,-1.7725,-1.6923,-1.6525,-1.66,-1.7049,-1.7626,-1.838,-1.9837,-2.1647,-2.3866,-2.5695,-2.8008,-3.1235,-3.2554,-3.3633,-3.4738,-3.5768,-3.6405,-3.6405,-3.6405,-3.6405,-3.6405,-3.6405,-3.6405,-3.6405,-3.6405,-3.6405,-3.6405,-3.6405,-3.6405,-3.6405,-3.6405,-3.6405,-3.6405,-3.6405,-3.6405,-3.6405,-3.6405,-3.6405,-3.6405,-3.6405,-3.6405,-3.6405,-3.6405,-3.6405,-3.6405,-3.6405,-3.6405,-3.6405,-3.6405,-3.6405,-3.6405,-3.6405,-3.6405,-3.6405,-3.6405,-3.6405,-3.6405,-3.6405,-3.6405,-3.6292,-3.5683,-3.552,-3.5245,-3.4261,-3.3985,-3.3822,-3.3307,-3.3156,-3.3174,-3.3174,-3.3149,-3.3124,-3.3124,-3.3124,-3.3124,-3.3124,-3.3124,-3.3124,-3.3124,-3.2604,-3.2277,-3.2277,-3.1775,-3.1449,-3.1449,-3.0495,-2.9892,-2.9854,-2.9854,-2.9829,-2.9792,-2.9792,-2.9792,-2.9792,-2.9792,-2.9792,-2.9792,-2.9792,-2.9792,-2.9792,-2.9792,-2.9792,-1.9923,0.0,-2.1685,-2.0953,-2.0878,-2.0751,0.0,-1.9133,-1.8355,-1.7574,-1.6923,-1.6763,-1.7652,-1.7576,-1.8254,-2.0916,-2.1992,-2.3339,-2.5594,-2.8047,-3.0708,-3.3596,-3.4173,-3.4776,-3.5868,-3.6254,-3.6405,-3.6405,-3.6405,-3.6405,-3.6405,-3.6405,-3.6405,-3.6405,-3.6405,-3.6405,-3.6405,-3.6405,-3.6405,-3.6405,-3.6405,-3.6405,-3.6405,-3.6405,-3.6405,-3.6405,-3.6405,-3.6405,-3.6405,-3.6405,-3.6405,-3.6405,-3.6405,-3.6405,-3.6405,-3.6405,-3.6405,-3.6405,-3.6405,-3.6405,-3.6405,-3.6405,-3.6405,-3.6405,-3.6405,-3.6405,-3.6405,-3.6405,-3.6405,-3.638,-3.6207,-3.5868,-3.5433,-3.5169,-3.4793,-3.45,-3.4361,-3.401,-3.3709,-3.3709,-3.337,-3.3124,-3.3124,-3.3124,-3.3124,-3.3124,-3.3124,-3.3124,-3.3124,-3.2998,-3.2867,-3.2867,-3.2365,-3.2014,-3.2014,-3.1399,-3.0846,-3.0444,-3.0419,-3.0231,-2.9817,-2.9792,-2.9792,-2.9792,-2.9792,-2.9792,-2.9792,-2.9792,-2.9792,-2.9792,-2.9792,-2.9792,-1.7691,-1.9246,-2.0616,-2.025,-2.0175,-2.0049,-1.951,-1.8581,-1.7664,-1.7099,-1.6735,-1.6763,-1.7664,-1.779,-1.8593,-2.1142,-2.2447,-2.4236,-2.7568,-2.9716,-3.1901,-3.4424,-3.468,-3.5152,-3.6304,-3.6405,-3.6405,-3.6405,-3.6119,-3.5994,-3.5994,-3.5994,-3.5994,-3.5994,-3.5994,-3.6107,-3.6405,-3.6405,-3.6405,-3.6405,-3.6405,-3.6405,-3.6405,-3.6405,-3.6405,-3.6405,-3.6405,-3.6405,-3.6405,-3.6405,-3.6405,-3.6405,-3.6405,-3.6405,-3.6405,-3.6405,-3.6405,-3.6405,-3.6405,-3.6405,-3.6405,-3.6405,-3.6405,-3.6405,-3.6405,-3.6405,-3.6405,-3.6405,-3.6405,-3.6405,-3.6405,-3.6144,-3.5855,-3.5558,-3.527,-3.4981,-3.4731,-3.4487,-3.4274,-3.4274,-3.4035,-3.3759,-3.3495,-3.3458,-3.337,-3.3162,-3.3124,-3.3124,-3.3124,-3.3124,-3.3124,-3.3124,-3.2805,-3.2604,-3.2604,-3.234,-3.1825,-3.1022,-3.0972,-3.0834,-3.0545,-3.0294,-3.0043,-2.9792,-2.9792,-2.9792,-2.9792,-2.9792,-2.9792,-2.9792,-2.9792,-2.9792,-1.6801,-1.8744,-2.0729,-2.0828,-2.0666,-2.0289,-1.9685,0.0,0.0,-1.6851,-1.6751,-1.6999,-1.7775,-1.8329,-1.9246,-2.093,-2.2698,-2.5277,-2.9352,-3.0846,-3.2315,-3.4462,-3.468,-3.5152,-3.6304,-3.6329,-3.6279,-3.6279,-3.573,-3.537,-3.537,-3.537,-3.537,-3.537,-3.537,-3.5642,-3.6153,-3.6241,-3.6279,-3.6279,-3.6279,-3.6241,-3.6153,-3.6254,-3.6279,-3.6292,-3.6367,-3.6405,-3.6405,-3.6405,-3.6405,-3.6405,-3.6405,-3.6405,-3.6405,-3.6405,-3.6405,-3.6405,-3.6405,-3.6405,-3.6405,-3.6405,-3.6405,-3.6405,-3.6405,-3.6405,-3.6405,-3.6405,-3.6405,-3.6405,-3.6405,-3.6405,-3.6292,-3.578,-3.5621,-3.5495,-3.5077,-3.4914,-3.4806,-3.4806,-3.4776,-3.4575,-3.411,-3.4022,-3.3872,-3.3395,-3.3257,-3.3206,-3.3206,-3.3174,-3.3124,-3.3124,-3.3124,-3.3124,-3.3124,-3.3124,-3.2667,-3.1712,-3.1562,-3.1486,-3.1386,-3.0972,-3.052,-3.0043,-2.9955,-2.9917,-2.9917,-2.9829,-2.9792,-2.9792,-2.9792,-2.9792,-1.823,-1.9635,-2.0264,-1.8479,-1.8656,-1.9108,-1.8581,-1.8254,-1.8053,0.0,0.0,-1.8405,-1.9912,-2.0641,-2.1531,-2.3213,-2.5661,-2.8084,-3.0193,-3.1411,-3.2742,-3.4467,-3.468,-3.5152,-3.6304,-3.5943,-3.5621,-3.5621,-3.5119,-3.4806,-3.4806,-3.4806,-3.4806,-3.4806,-3.4806,-3.4889,-3.4977,-3.5382,-3.5621,-3.5621,-3.5621,-3.5382,-3.4989,-3.5408,-3.5621,-3.5658,-3.6157,-3.6405,-3.6405,-3.6405,-3.6405,-3.6405,-3.6405,-3.6405,-3.6405,-3.6405,-3.6405,-3.6405,-3.6405,-3.6405,-3.6405,-3.6405,-3.6405,-3.6405,-3.6405,-3.6405,-3.6405,-3.6405,-3.6405,-3.6405,-3.6405,-3.6405,-3.6392,-3.6304,-3.6279,-3.6254,-3.6179,-3.5742,-3.537,-3.537,-3.4994,-3.4655,-3.4613,-3.46,-3.4562,-3.4487,-3.4073,-3.3771,-3.3771,-3.337,-3.3124,-3.3124,-3.3124,-3.3124,-3.3124,-3.3124,-3.3048,-3.283,-3.2353,-3.1876,-3.1411,-3.1311,-3.1235,-3.1148,-3.0721,-3.0495,-3.0495,-3.0018,-2.9792,-2.9792,-2.9792,-2.9792,-1.744,-1.8682,-1.961,-1.8869,-1.9761,-2.0713,-2.0476,-1.9962,-1.9623,-1.9911,-1.9974,-2.03,-2.1355,-2.2259,-2.3678,-2.6239,-2.7984,-2.9591,-3.1248,-3.1901,-3.2842,-3.4525,-3.4462,-3.4713,-3.5818,-3.5382,-3.5056,-3.5056,-3.4587,-3.4274,-3.4274,-3.4274,-3.4274,-3.4274,-3.4274,-3.4424,-3.468,-3.4675,-3.4756,-3.5056,-3.5056,-3.4919,-3.4726,-3.4944,-3.5056,-3.5069,-3.5366,-3.5479,-3.5479,-3.5479,-3.5655,-3.5918,-3.5918,-3.6094,-3.6405,-3.6405,-3.6405,-3.6405,-3.6405,-3.6405,-3.6405,-3.6405,-3.6405,-3.6405,-3.6405,-3.6405,-3.6405,-3.6405,-3.6405,-3.6405,-3.6405,-3.6405,-3.6405,-3.6405,-3.6405,-3.6405,-3.6405,-3.6157,-3.5994,-3.5994,-3.578,-3.5516,-3.5169,-3.5119,-3.5019,-3.4718,-3.4512,-3.4349,-3.4349,-3.4123,-3.3847,-3.3558,-3.352,-3.3395,-3.3106,-3.3124,-3.3124,-3.3124,-3.283,-3.2428,-3.1863,-3.1838,-3.17,-3.1399,-3.116,-3.1035,-3.1035,-3.0783,-3.0658,-3.0658,-3.0658,-3.0658,-1.7165,-1.8205,-1.9346,-2.0024,-2.1066,-2.2071,-2.2585,-2.1845,-2.1307,-2.2096,-2.2272,-2.2435,-2.2975,-2.4117,-2.5912,-2.8813,-2.9804,-3.0645,-3.2026,-3.2328,-3.2943,-3.4361,-3.4161,-3.4286,-3.5207,-3.4806,-3.4525,-3.4525,-3.4022,-3.3709,-3.3709,-3.3709,-3.3709,-3.3709,-3.3709,-3.3909,-3.4336,-3.3922,-3.3985,-3.4525,-3.4525,-3.4462,-3.4349,-3.4474,-3.4525,-3.4537,-3.4663,-3.468,-3.468,-3.468,-3.5006,-3.5495,-3.5495,-3.5881,-3.6405,-3.6405,-3.6405,-3.6405,-3.6405,-3.6405,-3.6405,-3.6405,-3.6405,-3.6405,-3.6405,-3.6405,-3.6405,-3.6405,-3.6405,-3.6405,-3.6405,-3.6405,-3.6405,-3.6405,-3.6405,-3.6405,-3.6405,-3.6405,-3.6405,-3.6405,-3.6405,-3.6267,-3.5805,-3.5683,-3.5545,-3.5165,-3.5002,-3.4868,-3.4868,-3.4756,-3.4562,-3.4135,-3.4085,-3.3872,-3.3319,-3.3156,-3.3124,-3.3124,-3.3124,-3.288,-3.2441,-3.2416,-3.2215,-3.18,-3.165,-3.1587,-3.1587,-3.1449,-3.1386,-3.1386,-3.1386,-3.1386,-1.9158,-1.9648,-2.0012,-2.1091,-2.1106,-2.1358,-2.3401,-2.3,-2.2648,-2.4224,-2.455,-2.4745,-2.5259,-2.6703,-2.8398,-3.0206,-3.0934,-3.1499,-3.2127,-3.2679,-3.3244,-3.3884,-3.3922,-3.4135,-3.468,-3.4286,-3.396,-3.396,-3.3445,-3.3174,-3.3174,-3.3174,-3.3174,-3.3174,-3.3174,-3.3156,-3.3194,-3.3156,-3.342,-3.396,-3.396,-3.3696,-3.3219,-3.3721,-3.396,-3.3985,-3.45,-3.468,-3.468,-3.468,-3.5006,-3.5495,-3.5495,-3.5881,-3.6405,-3.6405,-3.6405,-3.6405,-3.6405,-3.6405,-3.6405,-3.6405,-3.6405,-3.6405,-3.6405,-3.6405,-3.6405,-3.6405,-3.6405,-3.6405,-3.6405,-3.6405,-3.6405,-3.6405,-3.6405,-3.6405,-3.6405,-3.6405,-3.6405,-3.6405,-3.6405,-3.6405,-3.6355,-3.6355,-3.6329,-3.6292,-3.5818,-3.5445,-3.5445,-3.4994,-3.4713,-3.4663,-3.4618,-3.4449,-3.3884,-3.337,-3.3124,-3.3124,-3.3124,-3.3056,-3.3061,-3.3061,-3.3006,-3.2998,-3.2428,-3.2152,-3.2152,-3.1637,-3.1386,-3.1386,-3.1386,-3.1386,-1.8129,-1.9032,-1.9987,-2.0805,-2.1594,-2.2611,-2.4155,-2.4431,-2.4833,-2.6515,-2.6866,-2.703,-2.7534,-2.8148,-2.9164,-3.0834,-3.126,-3.1712,-3.2616,-3.2943,-3.3282,-3.3834,-3.3596,-3.3608,-3.4161,-3.3709,-3.3382,-3.3382,-3.3194,-3.3124,-3.3124,-3.3124,-3.3124,-3.3124,-3.3124,-3.3124,-3.3124,-3.3124,-3.3181,-3.3382,-3.3382,-3.3282,-3.3124,-3.3294,-3.3382,-3.3395,-3.3608,-3.3709,-3.3709,-3.3709,-3.4223,-3.5056,-3.578,-3.6182,-3.6405,-3.6405,-3.6405,-3.6405,-3.6405,-3.6405,-3.6405,-3.6405,-3.6405,-3.6405,-3.6405,-3.6405,-3.6405,-3.6405,-3.6405,-3.6405,-3.6405,-3.6405,-3.6405,-3.6405,-3.6405,-3.6405,-3.6405,-3.6405,-3.6405,-3.6405,-3.6405,-3.6405,-3.6405,-3.6405,-3.6405,-3.6405,-3.6194,-3.6056,-3.6056,-3.5868,-3.5617,-3.5219,-3.4881,-3.4638,-3.4424,-3.3909,-3.3583,-3.3583,-3.3269,-3.3124,-3.3124,-3.3124,-3.3124,-3.3124,-3.2867,-3.2754,-3.2754,-3.2541,-3.2483,-3.2483,-3.2483,-3.2483,-1.7712,-1.8581,-1.9736,-2.0503,-2.1907,-2.3496,-2.4996,-2.5749,-2.6653,-2.8511,-2.89,-2.9013,-2.9352,-2.9427,-2.9892,-3.1185,-3.1537,-3.1989,-3.2943,-3.3124,-3.3262,-3.3596,-3.3307,-3.3219,-3.3608,-3.3307,-3.3124,-3.3124,-3.3124,-3.3124,-3.3124,-3.3124,-3.3124,-3.3124,-3.3124,-3.3124,-3.3124,-3.3124,-3.3124,-3.3124,-3.3124,-3.3124,-3.3124,-3.3124,-3.3124,-3.3124,-3.3124,-3.3124,-3.3124,-3.3124,-3.3721,-3.4768,-3.5742,-3.6207,-3.6405,-3.6405,-3.6405,-3.6405,-3.6405,-3.6405,-3.6405,-3.6405,-3.6405,-3.6405,-3.6405,-3.6405,-3.6405,-3.6405,-3.6405,-3.6405,-3.6405,-3.6405,-3.6405,-3.6405,-3.6405,-3.6405,-3.6405,-3.6405,-3.6405,-3.6405,-3.6405,-3.6405,-3.6405,-3.6405,-3.6405,-3.6405,-3.6405,-3.6405,-3.6405,-3.6405,-3.6267,-3.5843,-3.5316,-3.4944,-3.4944,-3.4474,-3.4085,-3.3909,-3.3545,-3.3257,-3.3124,-3.3124,-3.3124,-3.3124,-3.3124,-3.3124,-3.3124,-3.3124,-3.3124,-3.3124,-3.3124,-3.3124,-1.8342,-1.8606,-1.9284,-2.0427,-2.1933,-2.3722,-2.6009,-2.6939,-2.7934,-3.0168,-3.062,-3.062,-3.062,-3.062,-3.0783,-3.1298,-3.1851,-3.2416,-3.3006,-3.3124,-3.3124,-3.3124,-3.3124,-3.3124,-3.3124,-3.3124,-3.3124,-3.3124,-3.3124,-3.3124,-3.3124,-3.3124,-3.3124,-3.3124,-3.3124,-3.3124,-3.3124,-3.3124,-3.3124,-3.3124,-3.3124,-3.3124,-3.3124,-3.3124,-3.3124,-3.3124,-3.3124,-3.3124,-3.3124,-3.3124,-3.3721,-3.4731,-3.5282,-3.5881,-3.6405,-3.6405,-3.6405,-3.6405,-3.6405,-3.6405,-3.6405,-3.6405,-3.6405,-3.6405,-3.6405,-3.6405,-3.6405,-3.6405,-3.6405,-3.6405,-3.6405,-3.6405,-3.6405,-3.6405,-3.6405,-3.6405,-3.6405,-3.6405,-3.6405,-3.6405,-3.6405,-3.6405,-3.6405,-3.6405,-3.6405,-3.6405,-3.6405,-3.6405,-3.6405,-3.6405,-3.6405,-3.6405,-3.5881,-3.5508,-3.5508,-3.5006,-3.45,-3.3947,-3.3909,-3.3658,-3.3106,-3.3124,-3.3124,-3.3124,-3.3124,-3.3124,-3.3124,-3.3124,-3.3124,-3.3124,-3.3124,-3.3124,-1.789,-1.8894,-2.0377,-2.1094,-2.3407,-2.5883,-2.7293,-2.8047,-2.8963,-3.0783,-3.116,-3.1047,-3.0683,-3.0922,-3.121,-3.1361,-3.1851,-3.2416,-3.3006,-3.3124,-3.3124,-3.3124,-3.3124,-3.3124,-3.3124,-3.3124,-3.3124,-3.3124,-3.3124,-3.3124,-3.3124,-3.3124,-3.3124,-3.3124,-3.3124,-3.3124,-3.3124,-3.3124,-3.3124,-3.3124,-3.3124,-3.3124,-3.3124,-3.3124,-3.3124,-3.3124,-3.3124,-3.3124,-3.3106,-3.3495,-3.3847,-3.4236,-3.5132,-3.5596,-3.583,-3.6267,-3.6405,-3.6405,-3.6405,-3.6405,-3.6405,-3.6405,-3.6405,-3.6405,-3.6405,-3.6405,-3.6405,-3.6405,-3.6405,-3.6405,-3.6405,-3.6405,-3.6405,-3.6405,-3.6405,-3.6405,-3.6405,-3.6405,-3.6405,-3.6405,-3.6405,-3.6405,-3.6405,-3.6405,-3.6405,-3.6405,-3.6405,-3.6405,-3.6405,-3.6405,-3.6405,-3.6405,-3.6267,-3.6119,-3.6119,-3.5617,-3.5182,-3.5019,-3.4688,-3.406,-3.3162,-3.3124,-3.3124,-3.3124,-3.3124,-3.3124,-3.3124,-3.3124,-3.3124,-3.3124,-3.3124,-3.3124,-1.8768,-1.9837,-2.132,-2.251,-2.4676,-2.7014,-2.8963,-2.9666,-3.0319,-3.1763,-3.1876,-3.1625,-3.1311,-3.1499,-3.1725,-3.1725,-3.219,-3.2679,-3.3074,-3.3124,-3.3124,-3.3124,-3.3124,-3.3124,-3.3124,-3.3124,-3.3124,-3.3124,-3.3124,-3.3124,-3.3124,-3.3124,-3.3124,-3.3124,-3.3124,-3.3124,-3.3124,-3.3124,-3.3124,-3.3124,-3.3124,-3.3124,-3.3124,-3.3124,-3.3124,-3.3124,-3.3124,-3.3124,-3.3149,-3.3432,-3.3709,-3.3985,-3.4831,-3.5307,-3.5558,-3.6157,-3.6405,-3.6405,-3.6405,-3.6405,-3.6405,-3.6405,-3.6405,-3.6405,-3.6405,-3.6405,-3.6405,-3.6405,-3.6405,-3.6405,-3.6405,-3.6405,-3.6405,-3.6405,-3.6405,-3.6405,-3.6405,-3.6405,-3.6405,-3.6405,-3.6405,-3.6405,-3.6405,-3.6405,-3.6405,-3.6405,-3.6405,-3.6405,-3.6405,-3.6405,-3.6405,-3.6405,-3.6405,-3.6405,-3.6405,-3.6056,-3.578,-3.552,-3.5194,-3.4605,-3.3771,-3.352,-3.3307,-3.3081,-3.3124,-3.3124,-3.3124,-3.3124,-3.3124,-3.3124,-3.3124,-3.3124,-2.0185,-2.1001,-2.2096,-2.433,-2.5837,-2.7605,-3.062,-3.1348,-3.1712,-3.2885,-3.2654,-3.2277,-3.2227,-3.2252,-3.2277,-3.2227,-3.2704,-3.3124,-3.3124,-3.3124,-3.3124,-3.3124,-3.3124,-3.3124,-3.3124,-3.3124,-3.3124,-3.3124,-3.3124,-3.3124,-3.3124,-3.3124,-3.3124,-3.3124,-3.3124,-3.3124,-3.3124,-3.3124,-3.3124,-3.3124,-3.3124,-3.3124,-3.3124,-3.3124,-3.3124,-3.3124,-3.3124,-3.3124,-3.3124,-3.3124,-3.337,-3.3884,-3.4437,-3.4944,-3.5495,-3.6081,-3.6367,-3.6405,-3.6405,-3.6405,-3.6405,-3.6405,-3.6405,-3.6405,-3.6405,-3.6405,-3.6405,-3.6405,-3.6405,-3.6405,-3.6405,-3.6405,-3.6405,-3.6405,-3.6405,-3.6405,-3.6405,-3.6405,-3.6405,-3.6405,-3.6405,-3.6405,-3.6405,-3.6405,-3.6405,-3.6405,-3.6405,-3.6405,-3.6405,-3.6405,-3.6405,-3.6405,-3.6405,-3.6405,-3.6405,-3.6405,-3.6157,-3.5608,-3.5571,-3.532,-3.4781,-3.4274,-3.3734,-3.3275,-3.3224,-3.3156,-3.3156,-3.3106,-3.3124,-3.3124,-3.3124,-3.3124,-1.8586,-2.035,-2.2673,-2.4883,-2.7268,-2.9377,-3.052,-3.1097,-3.1712,-3.2885,-3.298,-3.2754,-3.2303,-3.2591,-3.2742,-3.229,-3.2704,-3.3124,-3.3124,-3.3124,-3.3124,-3.3124,-3.3124,-3.3124,-3.3124,-3.3124,-3.3124,-3.3124,-3.3124,-3.3124,-3.3124,-3.3124,-3.3124,-3.3124,-3.3124,-3.3124,-3.3124,-3.3124,-3.3124,-3.3124,-3.3124,-3.3124,-3.3124,-3.3124,-3.3124,-3.3124,-3.3124,-3.3124,-3.3124,-3.3124,-3.3187,-3.3307,-3.3859,-3.4412,-3.4919,-3.547,-3.5994,-3.6405,-3.6405,-3.6405,-3.6405,-3.6405,-3.6405,-3.6405,-3.6405,-3.6405,-3.6405,-3.6405,-3.6405,-3.6405,-3.6405,-3.6405,-3.6405,-3.6405,-3.6405,-3.6405,-3.6405,-3.6405,-3.6405,-3.6405,-3.6405,-3.6405,-3.6405,-3.6405,-3.6405,-3.6405,-3.6405,-3.6405,-3.6405,-3.6405,-3.6405,-3.6405,-3.6405,-3.6405,-3.6405,-3.6405,-3.6355,-3.6194,-3.6194,-3.5943,-3.5345,-3.4793,-3.4487,-3.4374,-3.3935,-3.3721,-3.3721,-3.3294,-3.3124,-3.3124,-3.3124,-3.3124,-1.8752,-2.0979,-2.3778,-2.6515,-2.8499,-2.9942,-3.0495,-3.0821,-3.126,-3.2102,-3.2747,-3.298,-3.2679,-3.2867,-3.298,-3.2679,-3.288,-3.3124,-3.3124,-3.3124,-3.3124,-3.3124,-3.3124,-3.3124,-3.3124,-3.3124,-3.3124,-3.3124,-3.3124,-3.3124,-3.3124,-3.3124,-3.3124,-3.3124,-3.3124,-3.3124,-3.3124,-3.3124,-3.3124,-3.3124,-3.3124,-3.3124,-3.3124,-3.3124,-3.3124,-3.3124,-3.3124,-3.3124,-3.3124,-3.3124,-3.3124,-3.3131,-3.3684,-3.4236,-3.4743,-3.5295,-3.5893,-3.6405,-3.6405,-3.6405,-3.6405,-3.6405,-3.6405,-3.6405,-3.6405,-3.6405,-3.6405,-3.6405,-3.6405,-3.6405,-3.6405,-3.6405,-3.6405,-3.6405,-3.6405,-3.6405,-3.6405,-3.6405,-3.6405,-3.6405,-3.6405,-3.6405,-3.6405,-3.6405,-3.6405,-3.6405,-3.6405,-3.6405,-3.6405,-3.6405,-3.6405,-3.6405,-3.6405,-3.6405,-3.6405,-3.6405,-3.6405,-3.6405,-3.6405,-3.6279,-3.5943,-3.5667,-3.5265,-3.4726,-3.4449,-3.4299,-3.4299,-3.401,-3.3721,-3.347,-3.347,-3.3332,-1.9004,-2.1803,-2.5021,-2.811,-2.9365,-2.9917,-3.0369,-3.0545,-3.0733,-3.1173,-3.2077,-3.2822,-3.2822,-3.2822,-3.2822,-3.2822,-3.2822,-3.2822,-3.2822,-3.2822,-3.2822,-3.2822,-3.2822,-3.2822,-3.2822,-3.2822,-3.2822,-3.2822,-3.2822,-3.2822,-3.2822,-3.2867,-3.293,-3.293,-3.3074,-3.3124,-3.3124,-3.3124,-3.3124,-3.3124,-3.3124,-3.3124,-3.3124,-3.3124,-3.3124,-3.3124,-3.3124,-3.3124,-3.3124,-3.3124,-3.3124,-3.3119,-3.3583,-3.4161,-3.4731,-3.5194,-3.5805,-3.6405,-3.6405,-3.6405,-3.6405,-3.6405,-3.6405,-3.6405,-3.6405,-3.6405,-3.6405,-3.6405,-3.6405,-3.6405,-3.6405,-3.6405,-3.6405,-3.6405,-3.6405,-3.6405,-3.6405,-3.6405,-3.6405,-3.6405,-3.6405,-3.6405,-3.6405,-3.6405,-3.6405,-3.6405,-3.6405,-3.6405,-3.6405,-3.6405,-3.6405,-3.6405,-3.6405,-3.6405,-3.6405,-3.6405,-3.6405,-3.6405,-3.6405,-3.6405,-3.6405,-3.6405,-3.5977,-3.5027,-3.4868,-3.4818,-3.4818,-3.4731,-3.4487,-3.4035,-3.4035,-3.3796,-1.7224,-2.1386,-2.595,-2.8298,-2.9365,-2.9817,-2.988,-3.0269,-3.0633,-3.0708,-3.1198,-3.1612,-3.1612,-3.1612,-3.1612,-3.1612,-3.1612,-3.1612,-3.1612,-3.1612,-3.1612,-3.1612,-3.1612,-3.1612,-3.1612,-3.1612,-3.1612,-3.1612,-3.1612,-3.1612,-3.1612,-3.2064,-3.2328,-3.2328,-3.2817,-3.3124,-3.3124,-3.3124,-3.3124,-3.3124,-3.3124,-3.3124,-3.3124,-3.3124,-3.3124,-3.3124,-3.3124,-3.3124,-3.3124,-3.3124,-3.3124,-3.3124,-3.3156,-3.3822,-3.4726,-3.4756,-3.5479,-3.6405,-3.6405,-3.6405,-3.6405,-3.6405,-3.6405,-3.6405,-3.6405,-3.6405,-3.6405,-3.6405,-3.6405,-3.6405,-3.6405,-3.6405,-3.6405,-3.6405,-3.6405,-3.6405,-3.6405,-3.6405,-3.6405,-3.6405,-3.6405,-3.6405,-3.6405,-3.6405,-3.6405,-3.6405,-3.6405,-3.6405,-3.6405,-3.6405,-3.6405,-3.6405,-3.6405,-3.6405,-3.6405,-3.6405,-3.6405,-3.6405,-3.6405,-3.6405,-3.6405,-3.6405,-3.6342,-3.6191,-3.568,-3.5395,-3.5395,-3.4906,-3.4675,-3.4568,-3.4568,-3.4575,-1.959,-2.2359,-2.5037,0.0,-2.8632,-2.848,-2.8785,-2.9029,-2.9212,-2.9212,-2.9898,-3.0683,-3.1286,-3.1386,-3.1386,-3.1386,-3.1386,-3.1386,-3.1386,-3.1386,-3.1386,-3.1386,-3.1386,-3.1386,-3.1386,-3.1386,-3.1386,-3.1386,-3.1386,-3.1386,-3.1386,-3.1625,-3.175,-3.175,-3.2001,-3.2127,-3.2127,-3.2127,-3.229,-3.2591,-3.2918,-3.3124,-3.3124,-3.3124,-3.3124,-3.3124,-3.3124,-3.3124,-3.3124,-3.3124,-3.3124,-3.3124,-3.3124,-3.3558,-3.4299,-3.4613,-3.5228,-3.5943,-3.6304,-3.6405,-3.6405,-3.6405,-3.6405,-3.6405,-3.6405,-3.6405,-3.6405,-3.6405,-3.6405,-3.6405,-3.6405,-3.6405,-3.6405,-3.6405,-3.6405,-3.6405,-3.6405,-3.6405,-3.6405,-3.6405,-3.6405,-3.6405,-3.6405,-3.6405,-3.6405,-3.6405,-3.6405,-3.6405,-3.6405,-3.6405,-3.6405,-3.6405,-3.6405,-3.6405,-3.6405,-3.6405,-3.6405,-3.6405,-3.6405,-3.6405,-3.6405,-3.6405,-3.6405,-3.6405,-3.6119,-3.5994,-3.5994,-3.5755,-3.5479,-3.5144,-3.5144,-3.4969,-2.0627,0.0,-2.366,-2.7005,-2.7481,-2.7225,-2.7775,-2.7801,-2.7763,-2.8044,-2.8767,-2.9692,-3.0794,-3.0984,-3.0984,-3.0984,-3.0984,-3.0984,-3.0984,-3.0984,-3.0984,-3.0984,-3.0984,-3.0984,-3.0984,-3.0984,-3.0984,-3.0984,-3.0984,-3.0984,-3.0984,-3.1122,-3.1198,-3.1198,-3.1323,-3.1386,-3.1386,-3.1386,-3.1675,-3.2227,-3.2654,-3.293,-3.3124,-3.3124,-3.3124,-3.3124,-3.3124,-3.3124,-3.3124,-3.3124,-3.3124,-3.3124,-3.3124,-3.342,-3.396,-3.4512,-3.5019,-3.5583,-3.6169,-3.6405,-3.6405,-3.6405,-3.6405,-3.6405,-3.6405,-3.6405,-3.6405,-3.6405,-3.6405,-3.6405,-3.6405,-3.6405,-3.6405,-3.6405,-3.6405,-3.6405,-3.6405,-3.6405,-3.6405,-3.6405,-3.6405,-3.6405,-3.6405,-3.6405,-3.6405,-3.6405,-3.6405,-3.6405,-3.6405,-3.6405,-3.6405,-3.6405,-3.6405,-3.6405,-3.6405,-3.6405,-3.6405,-3.6405,-3.6405,-3.6405,-3.6405,-3.6405,-3.6405,-3.6405,-3.6405,-3.6405,-3.6405,-3.6405,-3.6157,-3.5708,-3.5708,-3.5529,-1.7704,-1.9934,0.0,-2.4437,-2.5775,-2.6676,-2.724,-2.6932,-2.6883,-2.7896,-2.8136,-2.853,-2.9647,-2.988,-2.988,-2.988,-2.988,-2.988,-2.988,-2.988,-2.988,-2.988,-2.988,-2.988,-2.988,-2.988,-2.988,-2.988,-2.988,-2.988,-2.988,-3.0369,-3.0658,-3.0658,-3.1135,-3.1386,-3.1386,-3.1386,-3.1675,-3.2215,-3.224,-3.2541,-3.3124,-3.3124,-3.3124,-3.3124,-3.3124,-3.3124,-3.3124,-3.3124,-3.3124,-3.3124,-3.3124,-3.342,-3.396,-3.4512,-3.5019,-3.5583,-3.6169,-3.6405,-3.6405,-3.6405,-3.6405,-3.6405,-3.6405,-3.6405,-3.6405,-3.6405,-3.6405,-3.6405,-3.6405,-3.6405,-3.6405,-3.6405,-3.6405,-3.6405,-3.6405,-3.6405,-3.6405,-3.6405,-3.6405,-3.6405,-3.6405,-3.6405,-3.6405,-3.6405,-3.6405,-3.6405,-3.6405,-3.6405,-3.6405,-3.6405,-3.6405,-3.6405,-3.6405,-3.6405,-3.6405,-3.6405,-3.6405,-3.6405,-3.6405,-3.6405,-3.6405,-3.6405,-3.6405,-3.6405,-3.6405,-3.6405,-3.6392,-3.6367,-3.6367,-3.6355,-1.6965,0.0,0.0,-2.187,-2.2639,-2.3043,-2.3856,-2.4552,-2.5338,-2.6393,-2.7409,-2.8466,-2.9585,-2.9792,-2.9792,-2.9792,-2.9792,-2.9792,-2.9792,-2.9792,-2.9792,-2.9792,-2.9792,-2.9792,-2.9792,-2.9792,-2.9792,-2.9792,-2.9792,-2.9792,-2.9792,-2.998,-3.0093,-3.0093,-3.0269,-3.0369,-3.0369,-3.0721,-3.0984,-3.1198,-3.1888,-3.2328,-3.2541,-3.2905,-3.3124,-3.3124,-3.3124,-3.3124,-3.3124,-3.3124,-3.3124,-3.3124,-3.3124,-3.3206,-3.3483,-3.4387,-3.4806,-3.5107,-3.6044,-3.6405,-3.6405,-3.6405,-3.6405,-3.6405,-3.6405,-3.6405,-3.6405,-3.6405,-3.6405,-3.6493,-3.6845,-3.6885,-3.6973,-3.7337,-3.7412,-3.7412,-3.7412,-3.7412,-3.7412,-3.7412,-3.7412,-3.7412,-3.7412,-3.7412,-3.7412,-3.7412,-3.7412,-3.7412,-3.7412,-3.7412,-3.7287,-3.6923,-3.6885,-3.6795,-3.6443,-3.6405,-3.6405,-3.6405,-3.6405,-3.6405,-3.6405,-3.6405,-3.6405,-3.6405,-3.6405,-3.6405,-3.6405,-3.6405,-3.6405,-3.6405,-3.6405,-3.6405,-1.5725,0.0,0.0,0.0,-2.0128,-2.0305,-2.1966,-2.2681,-2.3438,-2.4948,-2.6478,-2.7896,-2.9028,-2.9534,-2.9792,-2.9792,-2.9792,-2.9792,-2.9792,-2.9792,-2.9792,-2.9792,-2.9792,-2.9792,-2.9792,-2.9792,-2.9792,-2.9792,-2.9792,-2.9792,-2.9792,-2.9792,-2.9792,-2.9792,-2.9792,-2.9792,-2.9792,-3.0156,-3.0432,-3.062,-3.1512,-3.2039,-3.2227,-3.2805,-3.3124,-3.3124,-3.3124,-3.3124,-3.3124,-3.3124,-3.3124,-3.3124,-3.3124,-3.3194,-3.347,-3.4387,-3.4793,-3.5082,-3.6044,-3.6405,-3.6405,-3.6405,-3.6405,-3.6405,-3.6405,-3.6405,-3.6405,-3.6405,-3.6543,-3.6769,-3.7086,-3.7324,-3.755,-3.7914,-3.8153,-3.8304,-3.8304,-3.814,-3.8002,-3.8002,-3.8002,-3.8002,-3.8002,-3.8002,-3.8002,-3.8002,-3.8002,-3.8002,-3.8002,-3.8002,-3.7864,-3.75,-3.7462,-3.7312,-3.6996,-3.6958,-3.6835,-3.6694,-3.6681,-3.6606,-3.6417,-3.6405,-3.6405,-3.6405,-3.6405,-3.6405,-3.6405,-3.6405,-3.6405,-3.6405,-3.6405,-3.6405,0.0,0.0,0.0,0.0,0.0,0.0,-2.1811,-2.1462,-2.1183,-2.3647,-2.5352,-2.6774,-2.7872,-2.9028,-2.9792,-2.9753,-2.9753,-2.9753,-2.9753,-2.9753,-2.9753,-2.9792,-2.9792,-2.9792,-2.9792,-2.9792,-2.9792,-2.9792,-2.9792,-2.9792,-2.9792,-2.9792,-2.9792,-2.9792,-2.9792,-2.9792,-2.9792,-2.9792,-3.0068,-3.0595,-3.1122,-3.165,-3.2202,-3.278,-3.3056,-3.3124,-3.3124,-3.3124,-3.3124,-3.3124,-3.3124,-3.3124,-3.3124,-3.342,-3.396,-3.4512,-3.5019,-3.5583,-3.6169,-3.6405,-3.6405,-3.6405,-3.6405,-3.6405,-3.6405,-3.6405,-3.6405,-3.643,-3.682,-3.7199,-3.7224,-3.7651,-3.8052,-3.8052,-3.8492,-3.8944,-3.8944,-3.8454,-3.8052,-3.8052,-3.8052,-3.8052,-3.8052,-3.8052,-3.8052,-3.8052,-3.8052,-3.8052,-3.8052,-3.8052,-3.8052,-3.804,-3.804,-3.8027,-3.8002,-3.8002,-3.7776,-3.7249,-3.7199,-3.6996,-3.6455,-3.6417,-3.6405,-3.6405,-3.6405,-3.6358,-3.6358,-3.6358,-3.6405,-3.6405,-3.6405,-3.6405,-1.3232,0.0,0.0,0.0,0.0,0.0,-1.759,-1.8117,-1.9143,-2.2129,-2.3749,-2.5344,-2.7652,-2.9028,-2.9534,-2.8688,-2.8557,-2.8557,-2.8557,-2.8557,-2.8897,-2.9702,-2.9792,-2.9792,-2.9792,-2.9792,-2.9792,-2.9792,-2.9792,-2.9792,-2.9792,-2.9792,-2.9792,-2.9792,-2.9792,-2.9792,-2.9792,-2.9792,-2.9867,-3.003,-3.057,-3.1097,-3.1637,-3.2202,-3.2679,-3.3124,-3.3124,-3.3124,-3.3124,-3.3124,-3.3124,-3.3124,-3.3124,-3.342,-3.396,-3.4512,-3.5019,-3.5583,-3.6169,-3.6405,-3.6405,-3.6405,-3.6405,-3.6405,-3.6405,-3.6405,-3.6493,-3.6895,-3.7073,-3.7374,-3.824,-3.8818,-3.9233,-3.9233,-3.9346,-3.9471,-3.9471,-3.9346,-3.9233,-3.9233,-3.9233,-3.9233,-3.9233,-3.9233,-3.9233,-3.9233,-3.9233,-3.9233,-3.9233,-3.9233,-3.9069,-3.868,-3.863,-3.8467,-3.804,-3.8002,-3.7939,-3.7789,-3.74,-3.7111,-3.696,-3.6619,-3.6405,-3.6405,-3.6405,-3.5918,-3.4981,-3.5918,-3.6405,-3.6405,-3.6405,-3.6405,-1.3301,0.0,0.0,0.0,0.0,0.0,-1.6475,-1.7002,-1.7965,-2.0924,-2.2574,-2.4042,-2.5865,-2.7238,-2.7759,-2.6634,-2.659,-2.7052,-2.7964,-2.8096,-2.8518,-2.9663,-2.9365,-2.9287,-2.9753,-2.9365,-2.9275,-2.9753,-2.9792,-2.9792,-2.9792,-2.9792,-2.9792,-2.9792,-2.9792,-2.9792,-2.9792,-2.9792,-2.9792,-2.9804,-3.0357,-3.0884,-3.1411,-3.1964,-3.2528,-3.3124,-3.3124,-3.3124,-3.3124,-3.3124,-3.3124,-3.3124,-3.3124,-3.3558,-3.4274,-3.4555,-3.5215,-3.5931,-3.6304,-3.6405,-3.6405,-3.6405,-3.6405,-3.6405,-3.6405,-3.6405,-3.6518,-3.7023,-3.7525,-3.809,-3.8981,-3.9459,-3.9697,-3.9697,-3.9697,-3.9697,-3.9697,-3.9697,-3.9697,-3.9697,-3.9697,-3.9697,-3.9697,-3.9697,-3.9697,-3.9697,-3.9697,-3.9697,-3.9697,-3.9697,-3.9572,-3.9245,-3.922,-3.9082,-3.8743,-3.8705,-3.8617,-3.8379,-3.8065,-3.7676,-3.7199,-3.692,-3.6644,-3.6417,-3.6405,-3.5763,-3.4385,-3.5174,-3.5259,-3.4691,-3.4691,-3.4691,-1.3936,-1.3997,0.0,0.0,-1.4561,0.0,-1.6953,-1.6999,-1.7233,-1.9686,-2.1377,-2.2586,-2.3121,-2.4482,-2.5147,-2.4021,-2.4283,-2.5364,-2.7458,-2.7723,-2.8187,-2.9456,-2.8609,-2.8347,-2.9495,-2.8609,-2.8386,-2.9534,-2.9714,-2.9792,-2.9792,-2.9792,-2.9792,-2.9792,-2.9792,-2.9792,-2.9792,-2.9792,-2.9792,-2.9804,-3.0281,-3.0821,-3.1411,-3.1901,-3.2466,-3.3124,-3.3124,-3.3124,-3.3124,-3.3124,-3.3124,-3.3124,-3.3124,-3.3759,-3.468,-3.468,-3.5416,-3.6405,-3.6405,-3.6405,-3.6405,-3.6405,-3.6405,-3.6405,-3.6405,-3.6405,-3.6531,-3.7098,-3.809,-3.9082,-3.9572,-3.9697,-3.9697,-3.9697,-3.9697,-3.9697,-3.9697,-3.9697,-3.9697,-3.9697,-3.9697,-3.9697,-3.9697,-3.9697,-3.9697,-3.9697,-3.9697,-3.9697,-3.9697,-3.9697,-3.9697,-3.9697,-3.9697,-3.9697,-3.9697,-3.9697,-3.9484,-3.9045,-3.8957,-3.8479,-3.7412,-3.7312,-3.7023,-3.6505,-3.6133,-3.5367,-3.4178,-3.4337,-3.3662,-3.228,-3.228,-3.228,-1.5186,-1.5352,-1.5478,-1.4572,-1.5225,0.0,-1.4648,-1.5049,-1.5985,-1.7194,-1.8428,-1.9704,-2.1129,-2.2661,-2.3212,-2.1763,-2.2773,-2.4142,-2.5302,-2.5452,-2.6191,-2.8176,-2.7493,-2.725,-2.8347,-2.7452,-2.725,-2.8347,-2.9287,-2.9792,-2.9792,-2.9792,-2.9792,-2.9792,-2.9792,-2.9792,-2.9792,-2.9792,-2.9792,-2.9792,-2.9905,-3.0457,-3.1386,-3.1499,-3.2114,-3.3124,-3.3124,-3.3124,-3.3124,-3.3124,-3.3124,-3.3124,-3.3124,-3.3759,-3.468,-3.468,-3.5416,-3.6405,-3.6405,-3.6405,-3.6405,-3.6405,-3.6405,-3.6405,-3.6405,-3.6405,-3.6619,-3.7563,-3.8655,-3.9559,-3.9672,-3.9697,-3.9697,-3.9697,-3.9697,-3.9697,-3.9697,-3.9697,-3.9697,-3.9697,-3.9697,-3.9697,-3.9697,-3.9697,-3.9697,-3.9697,-3.9697,-3.9697,-3.9697,-3.9697,-3.9697,-3.9697,-3.9697,-3.9697,-3.9697,-3.9697,-3.9647,-3.9534,-3.912,-3.8818,-3.8605,-3.809,-3.7588,-3.7036,-3.4454,-3.2982,-3.2694,-3.3871,-3.3662,-3.228,-3.228,-3.228,-1.6035,-1.6064,-1.624,-1.5556,0.0,0.0,0.0,-1.5107,-1.5527,-1.7051,-1.7301,-1.7698,-1.9199,-2.0101,-2.0421,-1.9848,-2.1066,-2.2208,-2.2646,-2.3919,-2.541,-2.7116,-2.6337,-2.6295,-2.7924,-2.6614,-2.6326,-2.7964,-2.9157,-2.9792,-2.9792,-2.9792,-2.9792,-2.9792,-2.9792,-2.9792,-2.9792,-2.9792,-2.9792,-2.9792,-2.9792,-3.0357,-3.1386,-3.1386,-3.2001,-3.3124,-3.3124,-3.3124,-3.3124,-3.3124,-3.3124,-3.3124,-3.3124,-3.3759,-3.468,-3.468,-3.5416,-3.6405,-3.6405,-3.6405,-3.6405,-3.6405,-3.6405,-3.6405,-3.6405,-3.6795,-3.7362,-3.8203,-3.9044,-3.9697,-3.9697,-3.9697,-3.9697,-3.9697,-3.9697,-3.9697,-3.9697,-3.9697,-3.9697,-3.9697,-3.9697,-3.9697,-3.9697,-3.9697,-3.9697,-3.9697,-3.9697,-3.9697,-3.9697,-3.9697,-3.9697,-3.9697,-3.9697,-3.9697,-3.9697,-3.9697,-3.9697,-3.9697,-3.9433,-3.9157,-3.8932,-3.8592,-3.804,-3.7199,-3.5575,-3.4304,-3.3353,-3.3353,-3.2292,-3.0317,-3.0317,-3.0317,-1.7367,-1.7256,-1.7447,0.0,0.0,-1.6239,0.0,0.0,0.0,-1.708,-1.6611,-1.629,-1.7314,-1.751,-1.7627,-1.7925,-1.917,-2.0077,-1.9999,-2.224,-2.4323,-2.5536,-2.4847,-2.5016,-2.7019,-2.5661,-2.5522,-2.7619,-2.8746,-2.9453,-2.9779,-2.9792,-2.9714,-2.9495,-2.9495,-2.9495,-2.9495,-2.9495,-2.9573,-2.9792,-2.9792,-3.0357,-3.1386,-3.1386,-3.2001,-3.3124,-3.3124,-3.3124,-3.3124,-3.3124,-3.3124,-3.3124,-3.3124,-3.3759,-3.468,-3.468,-3.5416,-3.6405,-3.6405,-3.6405,-3.6405,-3.6405,-3.6405,-3.643,-3.6531,-3.7211,-3.8128,-3.8705,-3.927,-3.9697,-3.9697,-3.9697,-3.9697,-3.9697,-3.9697,-3.9697,-3.9697,-3.9697,-3.9697,-3.9697,-3.9697,-3.9697,-3.9697,-3.9697,-3.9697,-3.9697,-3.9697,-3.9697,-3.9697,-3.9697,-3.9697,-3.9697,-3.9697,-3.9581,-3.9297,-3.9297,-3.9141,-3.8868,-3.8868,-3.8672,-3.8228,-3.8118,-3.7739,-3.7109,-3.6358,-3.5279,-3.3714,-3.2235,-3.0577,-2.8698,-2.8398,-2.8291,0.0,0.0,0.0,0.0,-1.8359,0.0,0.0,0.0,-1.6219,-1.5342,0.0,0.0,0.0,0.0,0.0,0.0,0.0,-1.8174,-1.7803,-1.9308,-2.1014,-2.2491,-2.2402,-2.2685,-2.3932,-2.4059,-2.4814,-2.6535,-2.7253,-2.8222,-2.9716,-2.9792,-2.9326,-2.8347,-2.8307,-2.8307,-2.8307,-2.8307,-2.8806,-2.9792,-2.9792,-3.0357,-3.1386,-3.1386,-3.2001,-3.3124,-3.3124,-3.3124,-3.3124,-3.3124,-3.3124,-3.3124,-3.3124,-3.3759,-3.468,-3.468,-3.5416,-3.6405,-3.6405,-3.6405,-3.6405,-3.6405,-3.6405,-3.6505,-3.6948,-3.7525,-3.8128,-3.8705,-3.927,-3.9697,-3.9697,-3.9697,-3.9697,-3.9697,-3.9697,-3.9697,-3.9697,-3.9697,-3.9697,-3.9697,-3.9697,-3.9697,-3.9697,-3.9697,-3.9697,-3.9697,-3.9697,-3.9697,-3.9697,-3.9697,-3.9697,-3.9697,-3.9697,-3.9193,-3.7849,-3.7743,-3.7198,-3.5902,-3.5793,-3.5759,-3.5702,-3.5205,-3.5495,-3.6721,-3.3414,-3.1612,-3.1401,-2.9601,-2.9207,-3.0068,-2.8847,-2.8291,0.0,0.0,0.0,0.0,0.0,0.0,-1.6093,0.0,-1.5586,0.0,0.0,0.0,0.0,0.0,0.0,0.0,-1.6074,0.0,-1.6299,-1.751,-1.8956,-2.0353,-2.044,-2.075,-2.1736,-2.3124,-2.4397,-2.5531,-2.6275,-2.7177,-2.8283,-2.9282,-2.9,-2.725,-2.841,-2.8767,-2.8096,-2.8767,-2.9326,-2.9792,-2.9792,-3.0357,-3.1386,-3.1386,-3.2001,-3.3124,-3.3124,-3.3124,-3.3124,-3.3124,-3.3124,-3.3106,-3.3432,-3.4035,-3.468,-3.468,-3.5416,-3.6405,-3.6405,-3.6405,-3.6405,-3.6405,-3.6619,-3.6948,-3.75,-3.8065,-3.863,-3.9195,-3.9521,-3.9697,-3.9697,-3.9697,-3.9697,-3.9697,-3.9697,-3.9697,-3.9697,-3.9697,-3.9465,-3.8582,-3.8413,-3.8413,-3.8413,-3.9129,-3.9413,-3.857,-3.8413,-3.8084,-3.7275,-3.7873,-3.8413,-3.8413,-3.9193,-3.9077,-3.7624,-3.7518,-3.6865,-3.5398,-3.5288,-3.5288,-3.5288,-3.5032,-3.5046,-3.534,-3.3815,-3.2833,-3.2497,-3.0745,-3.0156,-3.0664,-2.9073,-2.8291,-2.1445,0.0,0.0,0.0,0.0,0.0,0.0,0.0,0.0,0.0,0.0,0.0,0.0,0.0,0.0,0.0,0.0,-1.586,0.0,-1.5996,0.0,0.0,0.0,0.0,-2.0303,-2.1723,-2.3109,-2.4343,-2.4971,-2.5768,-2.6827,-2.8586,-2.8464,-2.6088,-2.8159,-2.8819,-2.7683,-2.8779,-2.9495,-2.9792,-2.9942,-3.0495,-3.1399,-3.1549,-3.2152,-3.3124,-3.3124,-3.3124,-3.3124,-3.3124,-3.3124,-3.3131,-3.3684,-3.4,-3.4202,-3.4752,-3.5542,-3.6358,-3.5966,-3.5858,-3.5943,-3.6438,-3.6908,-3.7312,-3.8027,-3.853,-3.8981,-3.9534,-3.9697,-3.9697,-3.9697,-3.9697,-3.9697,-3.9697,-3.9697,-3.9697,-3.9697,-3.9697,-3.9245,-3.7796,-3.7518,-3.7358,-3.6984,-3.8137,-3.8739,-3.769,-3.7518,-3.6984,-3.5508,-3.6217,-3.6918,-3.6918,-3.7873,-3.7926,-3.6422,-3.6314,-3.5661,-3.4191,-3.408,-3.4303,-3.4681,-3.4303,-3.4073,-3.4032,-3.3519,-3.3062,-3.2663,-3.1312,-3.063,-3.0566,-2.9009,-2.8291,0.0,0.0,0.0,-1.9922,0.0,0.0,0.0,0.0,-1.7187,0.0,0.0,0.0,0.0,0.0,0.0,0.0,0.0,0.0,0.0,0.0,0.0,0.0,0.0,0.0,0.0,-1.9519,-2.0282,-2.2787,-2.2983,-2.3837,-2.5735,-2.7823,-2.769,-2.4935,-2.7012,-2.7654,-2.6554,-2.7614,-2.8727,-2.9804,-3.0331,-3.0871,-3.1411,-3.1938,-3.2516,-3.3124,-3.3124,-3.3124,-3.3124,-3.3124,-3.3124,-3.3131,-3.3684,-3.3424,-3.2992,-3.4783,-3.5881,-3.6203,-3.4921,-3.4483,-3.4762,-3.6574,-3.7174,-3.74,-3.8504,-3.8906,-3.8981,-3.9534,-3.9697,-3.9697,-3.9697,-3.9697,-3.9697,-3.9697,-3.9697,-3.9697,-3.9697,-3.9697,-3.9245,-3.7796,-3.7518,-3.7037,-3.5617,-3.6595,-3.7571,-3.7518,-3.7518,-3.6984,-3.5508,-3.5343,-3.5343,-3.5343,-3.5398,-3.4847,-3.335,-3.3237,-3.2587,-3.1112,-3.1054,-3.1652,-3.3134,-3.1825,-3.171,-3.3103,-3.1284,-3.0356,-3.028,-2.9858,-2.9653,-2.9643,-2.8736,-2.8291,0.0,0.0,-2.3154,-2.1435,0.0,0.0,0.0,0.0,0.0,0.0,0.0,0.0,0.0,0.0,0.0,0.0,0.0,0.0,0.0,0.0,0.0,0.0,0.0,0.0,0.0,-1.7978,-1.9123,-2.0913,-2.1381,-2.2202,-2.3677,-2.643,-2.6518,-2.3368,-2.6393,-2.7562,-2.6513,-2.7562,-2.8688,-2.9804,-3.0357,-3.0884,-3.1411,-3.1964,-3.2528,-3.3068,-3.2196,-3.2326,-3.3025,-3.2196,-3.2039,-3.2357,-3.2901,-3.3143,-3.3422,-3.4932,-3.5305,-3.5126,-3.5571,-3.5949,-3.638,-3.6966,-3.7688,-3.8429,-3.8806,-3.9132,-3.9459,-3.9647,-3.9697,-3.9697,-3.9697,-3.9697,-3.9697,-3.9697,-3.9697,-3.9697,-3.9697,-3.9697,-3.8973,-3.6499,-3.6054,-3.5563,-3.4069,-3.4292,-3.4615,-3.4615,-3.4615,-3.4069,-3.2597,-3.3258,-3.3845,-3.3845,-3.4736,-3.4681,-3.3237,-3.2207,-3.1441,-3.0947,-3.0889,-3.1112,-3.1604,-3.117,-3.1112,-3.1604,-3.1012,-3.0654,-3.0654,-3.0205,-2.999,-2.9971,-2.9404,-2.8984,-2.3711,-2.3896,0.0,-2.2422,-2.1465,0.0,-1.8486,0.0,-1.8584,0.0,0.0,0.0,0.0,0.0,0.0,0.0,0.0,0.0,0.0,-1.3584,0.0,0.0,0.0,0.0,0.0,-1.6738,-1.7605,-1.9418,-1.9802,-2.0541,0.0,-2.5263,-2.5741,-2.2585,-2.6151,-2.7562,-2.6513,-2.7209,-2.8279,-2.9792,-3.0161,-3.0466,-3.0758,-3.1496,-3.2081,-3.2382,-3.1545,-3.1921,-3.2982,-3.1733,-3.1487,-3.1964,-3.2544,-3.2771,-3.3001,-3.4531,-3.4787,-3.4581,-3.5918,-3.6457,-3.6591,-3.7254,-3.8115,-3.8957,-3.9158,-3.9421,-3.9697,-3.9697,-3.9697,-3.9697,-3.9697,-3.9697,-3.9697,-3.9697,-3.9697,-3.9697,-3.9697,-3.9697,-3.8804,-3.5847,-3.5288,-3.4681,-3.2644,-3.2311,-3.2473,-3.3021,-3.3077,-3.2587,-3.1112,-3.171,-3.2311,-3.2311,-3.3145,-3.3371,-3.2426,-3.1441,-3.0889,-3.0889,-3.0889,-3.0889,-3.0889,-3.0889,-3.0889,-3.0889,-3.0889,-3.0889,-3.0889,-3.0596,-3.0449,-3.043,-3.0,-2.9639]},{"header":{"parameterUnit":"m.s-1","parameterCategory":1,"la1":30.6,"la2":29.2853,"lo1":-89.7004,"lo2":-87.6739,"dy":0.0162,"dx":0.0183,"nx":112,"ny":82,"refTime":"2026-03-01T00:00:00:Z","depth":0,"parameterNumber":3,"parameterNumberName":"V-component_of_WINDS"},"data":[0.0,0.0,0.0,0.0,0.0,0.0,0.0,0.0,0.0,0.0,0.0,0.0,0.0,0.0,0.0,0.0,0.0,0.0,0.0,0.0,0.0,0.0,0.0,0.0,0.0,0.0,0.0,0.0,0.0,0.0,0.0,0.0,0.0,0.0,0.0,0.0,0.0,0.0,0.0,0.0,0.0,0.0,0.0,0.0,0.0,0.0,0.0,0.0,0.0,0.0,0.0,0.0,0.0,0.0,0.0,0.0,0.0,0.0,0.0,0.0,0.0,0.0,0.0,0.0,0.0,0.0,0.0,0.0,0.0,0.0,0.0,0.0,0.0,0.0,0.0,0.0,0.0,0.0,0.0,0.0,0.0,0.0,0.0,0.0,0.0,0.0,0.0,0.0,0.0,0.0,1.4993,1.6635,1.8552,1.9708,1.9708,1.9618,1.8346,1.555,0.0,0.0,0.0,0.0,0.0,0.0,0.0,0.0,0.0,0.0,0.0,0.0,0.0,0.0,0.0,0.0,0.0,0.0,0.0,0.0,0.0,0.0,0.0,0.0,0.0,0.0,0.0,0.0,0.0,0.0,0.0,0.0,0.0,0.0,0.0,0.0,0.0,0.0,0.0,0.0,0.0,0.0,0.0,0.0,0.0,0.0,0.0,0.0,0.0,0.0,0.0,0.0,0.0,0.0,0.0,0.0,0.0,0.0,0.0,0.0,0.0,0.0,0.0,0.0,0.0,0.0,0.0,0.0,0.0,0.0,0.0,0.0,0.0,0.0,0.0,0.0,0.0,0.0,0.0,0.0,0.0,0.0,0.0,0.0,0.0,0.0,0.0,0.0,0.0,0.0,0.0,0.0,0.0,0.0,0.0,0.0,0.0,0.0,0.0,0.0,0.0,0.0,0.0,0.0,1.5065,1.8783,1.9492,1.9708,1.9708,1.9166,1.7953,1.586,0.0,0.0,0.0,0.0,0.0,0.0,0.0,0.0,0.0,0.0,0.0,0.0,0.0,0.0,0.0,0.0,0.0,0.0,0.0,0.0,0.0,0.0,0.0,0.0,0.0,0.0,0.0,0.0,0.0,0.0,0.0,0.0,0.0,0.0,0.0,0.0,0.0,0.0,0.0,0.0,0.0,0.0,0.0,0.0,0.0,0.0,0.0,0.0,0.0,0.0,0.0,0.0,0.0,0.0,0.0,0.0,0.0,0.0,0.0,0.0,0.0,0.0,0.0,0.0,0.0,0.0,0.0,0.0,0.0,0.0,0.0,0.0,0.0,0.0,0.0,0.0,0.0,0.0,0.0,0.0,0.0,0.0,0.0,0.0,0.0,0.0,0.0,0.0,0.0,0.0,0.0,0.0,0.0,0.0,0.0,0.0,0.0,0.0,0.0,0.0,0.0,0.0,0.0,1.4607,1.6382,1.9375,1.9708,1.9708,1.9708,1.9423,1.8255,1.5948,1.4461,0.0,0.0,0.0,0.0,0.0,0.0,0.0,0.0,0.0,0.0,0.0,0.0,0.0,0.0,0.0,0.0,0.0,0.0,0.0,0.0,0.0,0.0,0.0,0.0,0.0,0.0,0.0,0.0,0.0,0.0,0.0,0.0,0.0,0.0,0.0,0.0,0.0,0.0,0.0,0.0,0.0,0.0,0.0,0.0,0.0,0.0,0.0,0.0,0.0,0.0,0.0,0.0,0.0,0.0,0.0,0.0,0.0,0.0,0.0,0.0,0.0,0.0,0.0,0.0,0.0,0.0,0.0,0.0,0.0,0.0,0.0,0.0,0.0,0.0,0.0,0.0,0.0,0.0,0.0,0.0,0.0,0.0,0.0,0.0,0.0,0.0,0.0,0.0,0.0,0.0,0.0,0.0,0.0,0.0,0.0,0.0,0.0,0.0,0.0,0.0,0.0,0.0,1.6786,1.7833,1.9528,1.9708,1.9708,1.9708,1.9405,1.8255,1.5948,1.4229,0.0,0.0,0.0,0.0,0.0,0.0,0.0,0.0,0.0,0.0,0.0,0.0,0.0,0.0,0.0,0.0,0.0,0.0,0.0,0.0,0.0,0.0,0.0,0.0,0.0,0.0,0.0,0.0,0.0,0.0,0.0,0.0,0.0,0.0,0.0,0.0,0.0,0.0,0.0,0.0,0.0,0.0,0.0,0.0,0.0,0.0,0.0,0.0,0.0,0.0,0.0,0.0,0.0,0.0,0.0,0.0,0.0,0.0,0.0,0.0,0.0,0.0,0.0,0.0,0.0,0.0,0.0,0.0,0.0,0.0,0.0,0.0,0.0,0.0,0.0,0.0,0.0,0.0,0.0,0.0,0.0,0.0,0.0,0.0,0.0,0.0,0.0,0.0,0.0,0.0,0.0,0.0,0.0,0.0,0.0,0.0,0.0,0.0,0.0,0.0,0.0,0.0,1.7056,1.8852,1.9618,1.9708,1.9708,1.9708,1.8568,1.7266,1.5888,1.3373,0.0,0.0,0.0,0.0,0.0,0.0,0.0,0.0,0.0,0.0,0.0,0.0,0.0,0.0,0.0,0.0,0.0,0.0,0.0,0.0,0.0,0.0,0.0,0.0,0.0,0.0,0.0,0.0,0.0,0.0,0.0,0.0,0.0,0.0,0.0,0.0,0.0,0.0,0.0,0.0,0.0,0.0,0.0,0.0,0.0,0.0,0.0,0.0,0.0,0.0,0.0,0.0,0.0,0.0,0.0,0.0,0.0,0.0,0.0,0.0,0.0,0.0,0.0,0.0,0.0,0.0,0.0,0.0,0.0,0.0,0.0,0.0,0.0,0.0,0.0,0.0,0.0,0.0,0.0,0.0,0.0,0.0,0.0,0.0,0.0,0.0,0.0,0.0,0.0,0.0,0.0,0.0,0.0,0.0,0.0,0.0,0.0,0.0,0.0,0.0,0.0,0.0,1.6982,1.8493,1.9588,1.9708,1.9708,1.9708,1.9226,1.8044,1.5933,0.0,0.0,0.0,0.0,0.0,0.0,0.0,0.0,0.0,0.0,0.0,0.0,0.0,0.0,0.0,0.0,0.0,0.0,0.0,0.0,0.0,0.0,0.0,0.0,0.0,0.0,0.0,0.0,0.0,0.0,0.0,0.0,0.0,0.0,0.0,0.0,0.0,0.0,0.0,0.0,0.0,0.0,0.0,0.0,0.0,0.0,0.0,0.0,0.0,0.0,0.0,0.0,0.0,0.0,0.0,0.0,0.0,0.0,0.0,0.0,0.0,0.0,0.0,0.0,0.0,0.0,0.0,0.0,0.0,0.0,0.0,0.0,0.0,0.0,0.0,0.0,0.0,0.0,0.0,0.0,0.0,0.0,0.0,0.0,0.0,0.0,0.0,0.0,0.0,0.0,0.0,0.0,0.0,0.0,0.0,0.0,0.0,0.0,0.0,0.0,0.0,0.0,1.5514,1.7281,1.8687,1.9603,1.9708,1.9708,1.9708,1.9106,1.7894,1.5918,0.0,0.0,0.0,0.0,0.0,0.0,0.0,0.0,0.0,0.0,0.0,0.0,0.0,0.0,0.0,0.0,0.0,0.0,0.0,0.0,0.0,0.0,0.0,0.0,0.0,0.0,0.0,0.0,0.0,0.0,0.0,0.0,0.0,0.0,0.0,0.0,0.0,0.0,0.0,0.0,0.0,0.0,0.0,0.0,0.0,0.0,0.0,0.0,0.0,0.0,0.0,0.0,0.0,0.0,0.0,0.0,0.0,0.0,0.0,0.0,0.0,0.0,0.0,0.0,0.0,0.0,0.0,0.0,0.0,0.0,0.0,0.0,0.0,0.0,0.0,0.0,0.0,0.0,0.0,0.0,0.0,0.0,0.0,0.0,0.0,0.0,0.0,0.0,0.0,0.0,0.0,0.0,0.0,0.0,0.0,0.0,0.0,0.0,0.0,0.0,0.0,0.0,1.5634,1.8075,1.9708,1.9708,1.9708,1.9708,1.9708,1.7878,1.6458,0.0,0.0,0.0,0.0,0.0,0.0,0.0,0.0,0.0,0.0,0.0,0.0,0.0,0.0,0.0,0.0,0.0,0.0,0.0,0.0,0.0,0.0,0.0,0.0,0.0,0.0,0.0,0.0,0.0,0.0,0.0,0.0,0.0,0.0,0.0,0.0,0.0,0.0,0.0,0.0,0.0,0.0,0.0,0.0,0.0,0.0,0.0,0.0,0.0,0.0,0.0,0.0,0.0,0.0,0.0,0.0,0.0,0.0,0.0,0.0,0.0,0.0,0.0,0.0,0.0,0.0,0.0,0.0,0.0,0.0,0.0,0.0,0.0,0.0,0.0,0.0,0.0,0.0,0.0,0.0,0.0,0.0,0.0,0.0,0.0,0.0,0.0,0.0,0.0,0.0,0.0,0.0,0.0,0.0,0.0,0.0,0.0,0.0,0.0,0.0,0.0,0.0,0.0,1.5634,1.8075,1.9708,1.9708,1.9708,1.9708,1.9708,1.8732,1.746,1.5903,0.0,0.0,0.0,0.0,0.0,0.0,0.0,0.0,0.0,0.0,0.0,0.0,0.0,0.0,0.0,0.0,0.0,0.0,0.0,0.0,0.0,0.0,0.0,0.0,0.0,0.0,0.0,0.0,0.0,0.0,0.0,0.0,0.0,0.0,0.0,0.0,0.0,0.0,0.0,0.0,0.0,0.0,0.0,0.0,0.0,0.0,0.0,0.0,0.0,0.0,0.0,0.0,0.0,0.0,0.0,0.0,0.0,0.0,0.0,0.0,0.0,0.0,0.0,0.0,0.0,0.0,0.0,0.0,0.0,0.0,0.0,0.0,0.0,0.0,0.0,0.0,0.0,0.0,0.0,0.0,0.0,0.0,0.0,0.0,0.0,0.0,0.0,0.0,0.0,0.0,0.0,0.0,0.0,0.0,0.0,0.0,0.0,0.0,0.0,0.0,0.0,0.0,1.5634,1.8075,1.9708,1.9708,1.9708,1.9708,1.9708,1.9091,1.7864,1.5918,0.0,0.0,0.0,0.0,0.0,0.0,0.0,0.0,0.0,0.0,0.0,0.0,0.0,0.0,0.0,0.0,0.0,0.0,0.0,0.0,0.0,0.0,0.0,0.0,0.0,0.0,0.0,0.0,0.0,0.0,0.0,0.0,0.0,0.0,0.0,0.0,0.0,0.0,0.0,0.0,0.0,0.0,0.0,0.0,0.0,0.0,0.0,0.0,0.0,0.0,0.0,0.0,0.0,0.0,0.0,0.0,0.0,0.0,0.0,0.0,0.0,0.0,0.0,0.0,0.0,0.0,0.0,0.0,0.0,0.0,0.0,0.0,0.0,0.0,0.0,0.0,0.0,0.0,0.0,0.0,0.0,0.0,0.0,0.0,0.0,0.0,0.0,0.0,0.0,0.0,0.0,0.0,0.0,0.0,0.0,0.0,0.0,0.0,0.0,0.0,0.0,0.0,1.5634,1.8075,1.9708,1.9708,1.9708,1.9708,1.9708,1.9091,1.7894,1.5994,0.0,0.0,0.0,0.0,0.0,0.0,0.0,0.0,0.0,0.0,0.0,0.0,0.0,0.0,0.0,0.0,0.0,0.0,0.0,0.0,0.0,0.0,0.0,0.0,0.0,0.0,0.0,0.0,0.0,0.0,0.0,0.0,0.0,0.0,0.0,0.0,0.0,0.0,0.0,0.0,0.0,0.0,0.0,0.0,0.0,0.0,0.0,0.0,0.0,0.0,0.0,0.0,0.0,0.0,0.0,0.0,0.0,0.0,0.0,0.0,1.9196,1.8057,0.0,0.0,0.0,0.0,0.0,0.0,0.0,0.0,0.0,0.0,0.0,0.0,0.0,0.0,0.0,0.0,0.0,0.0,0.0,0.0,0.0,0.0,0.0,0.0,0.0,0.0,0.0,0.0,0.0,0.0,0.0,0.0,0.0,0.0,0.0,0.0,0.0,0.0,0.0,0.0,1.5634,1.8075,1.9708,1.9708,1.9708,1.9708,1.9708,1.9091,1.8072,1.6592,1.4664,0.0,0.0,0.0,0.0,0.0,0.0,0.0,0.0,0.0,0.0,0.0,0.0,0.0,0.0,0.0,0.0,0.0,0.0,0.0,0.0,0.0,0.0,0.0,0.0,0.0,0.0,0.0,0.0,0.0,0.0,0.0,0.0,0.0,0.0,0.0,0.0,0.0,0.0,0.0,0.0,0.0,0.0,0.0,0.0,0.0,0.0,0.0,0.0,0.0,0.0,0.0,0.0,0.0,0.0,0.0,0.0,0.0,0.0,0.0,2.2218,2.0857,0.0,0.0,0.0,0.0,0.0,0.0,0.0,0.0,0.0,0.0,0.0,0.0,0.0,0.0,0.0,0.0,0.0,0.0,0.0,0.0,0.0,0.0,0.0,0.0,0.0,0.0,0.0,0.0,0.0,0.0,0.0,0.0,0.0,0.0,0.0,0.0,0.0,0.0,0.0,0.0,1.6069,1.8253,1.9708,1.9708,1.9708,1.9708,1.9708,1.9393,1.8612,1.7264,1.5665,0.0,0.0,0.0,0.0,0.0,0.0,0.0,0.0,0.0,0.0,0.0,0.0,0.0,0.0,0.0,0.0,0.0,0.0,0.0,0.0,0.0,0.0,0.0,0.0,0.0,0.0,0.0,0.0,0.0,0.0,0.0,0.0,0.0,0.0,0.0,0.0,0.0,0.0,0.0,0.0,0.0,0.0,0.0,0.0,0.0,0.0,0.0,0.0,0.0,0.0,0.0,0.0,0.0,2.6557,2.7455,2.747,2.8034,2.8289,2.8169,2.6063,2.4762,2.4044,2.2981,0.0,0.0,0.0,0.0,0.0,0.0,0.0,0.0,0.0,0.0,0.0,0.0,0.0,0.0,0.0,0.0,0.0,0.0,0.0,0.0,0.0,0.0,1.969,2.0262,2.0797,2.0438,1.7596,0.0,0.0,0.0,0.0,0.0,0.0,0.0,0.0,0.0,0.0,0.0,1.6712,1.8538,1.9708,1.9708,1.9708,1.9708,1.9708,1.9708,1.9166,1.7953,1.6772,1.5575,0.0,0.0,0.0,0.0,0.0,0.0,0.0,0.0,0.0,0.0,0.0,0.0,0.0,0.0,0.0,0.0,0.0,0.0,0.0,0.0,0.0,0.0,0.0,0.0,0.0,0.0,0.0,0.0,0.0,0.0,0.0,0.0,1.8807,2.0135,0.0,0.0,0.0,0.0,0.0,0.0,0.0,0.0,0.0,0.0,0.0,0.0,0.0,2.4567,2.5794,2.7799,2.8813,2.8843,3.018,3.0853,3.0853,3.0943,3.0987,3.1002,3.1212,0.0,2.6183,2.6019,0.0,0.0,0.0,0.0,0.0,0.0,0.0,0.0,0.0,0.0,0.0,0.0,0.0,0.0,0.0,0.0,0.0,0.0,0.0,0.0,0.0,0.0,2.2981,2.3056,2.3146,2.2951,2.1999,1.9435,1.6772,1.4887,1.4453,1.3987,0.0,0.0,0.0,0.0,0.0,0.0,1.7399,1.8822,1.9708,1.9708,1.9708,1.9708,1.9708,1.9708,1.9393,1.8627,1.7863,1.7116,1.6338,1.4442,0.0,0.0,0.0,0.0,0.0,0.0,0.0,0.0,0.0,0.0,0.0,0.0,0.0,0.0,0.0,0.0,0.0,0.0,0.0,0.0,0.0,0.0,0.0,0.0,0.0,0.0,0.0,0.0,0.0,1.8957,2.0468,2.0673,2.0842,2.0468,0.0,0.0,0.0,0.0,0.0,0.0,0.0,0.0,0.0,2.5818,2.6856,2.7844,2.8786,3.0417,3.1225,3.1255,3.2557,3.3185,3.32,3.3589,3.3769,3.3753,3.4068,3.2991,3.0909,2.9052,2.738,2.5854,0.0,0.0,0.0,0.0,2.3535,2.3625,2.4762,2.4896,2.4492,2.4044,0.0,0.0,0.0,0.0,0.0,0.0,0.0,2.1625,2.2631,2.3513,2.4246,2.4642,2.4732,2.4552,2.3909,2.2601,2.0778,1.809,1.7236,1.6458,1.4779,1.4494,0.0,0.0,0.0,1.7776,1.8702,1.9989,2.0812,2.0812,2.0483,2.0258,2.0258,1.9932,1.9573,1.9271,1.8625,1.8132,1.7848,1.6278,1.4948,0.0,0.0,0.0,0.0,0.0,0.0,0.0,0.0,0.0,0.0,0.0,0.0,0.0,0.0,0.0,0.0,0.0,0.0,0.0,0.0,0.0,0.0,0.0,0.0,0.0,0.0,0.0,0.0,2.0932,2.2069,2.1734,2.2877,2.2718,0.0,0.0,0.0,0.0,0.0,0.0,2.58,2.6976,2.7979,2.8843,2.9996,3.0881,3.1509,3.2691,3.3275,3.329,3.4277,3.4773,3.4756,3.5265,3.5504,3.5504,3.5504,3.522,3.4548,3.1763,3.0103,2.919,2.7515,2.6767,2.6677,2.7171,2.7141,2.7081,2.8577,2.8757,2.8214,2.7395,2.6757,2.5884,2.3266,0.0,0.0,0.0,0.0,2.4006,2.5277,2.5621,2.5785,2.6467,2.6497,2.6198,2.5501,2.5232,2.4208,2.1085,2.0049,1.9151,1.7357,1.7042,0.0,1.7042,1.8283,1.945,2.0142,2.1081,2.1695,2.1695,2.1261,2.0882,2.0703,2.0243,1.9887,1.9708,1.9226,1.8957,1.8957,1.7833,1.6697,1.556,0.0,0.0,0.0,0.0,0.0,0.0,0.0,0.0,0.0,0.0,0.0,0.0,0.0,0.0,0.0,0.0,0.0,0.0,0.0,0.0,0.0,0.0,0.0,0.0,0.0,0.0,0.0,0.0,0.0,2.4335,2.56,0.0,0.0,0.0,0.0,2.536,2.6611,2.7944,2.9292,2.9953,3.0911,3.2228,3.2946,3.3604,3.4294,3.4996,3.5355,3.5355,3.5429,3.5444,3.5459,3.5489,3.5504,3.5504,3.5504,3.5489,3.534,3.3903,3.2542,3.1286,3.0552,2.9894,2.9412,2.9442,2.9789,3.0268,3.0372,3.0387,3.0447,3.1017,2.9941,2.8293,2.751,2.6348,0.0,0.0,2.6387,2.6707,2.8053,2.8397,2.8562,2.922,2.8906,2.8263,2.76,2.6956,2.5704,2.3062,2.2523,2.2059,2.0692,0.0,2.0449,2.0449,2.0539,2.0838,2.1515,2.165,2.1695,2.1695,2.1665,2.1395,2.0748,2.0658,2.0378,1.9753,1.9678,1.9648,1.9648,1.8972,1.8267,1.7579,1.5053,0.0,0.0,0.0,0.0,0.0,0.0,0.0,0.0,0.0,0.0,0.0,0.0,0.0,0.0,0.0,0.0,0.0,0.0,0.0,0.0,0.0,0.0,0.0,0.0,0.0,0.0,0.0,0.0,2.6497,2.8053,0.0,2.6372,2.6991,2.7709,2.8128,2.9385,3.0522,3.142,3.2482,3.3275,3.3769,3.4442,3.4906,3.513,3.5385,3.5504,3.5504,3.5504,3.5504,3.5504,3.5504,3.5504,3.5504,3.5504,3.5504,3.5474,3.4981,3.4247,3.3365,3.2691,3.2287,3.2093,3.2093,3.2243,3.2422,3.2422,3.2422,3.2407,3.2198,3.1106,2.9714,2.9082,2.8532,2.8128,2.7934,2.8188,2.8648,2.9101,2.922,2.928,2.9547,2.9427,2.916,2.8948,2.8378,2.747,2.6117,2.4807,2.352,2.2203,2.1999,2.1695,2.0823,2.144,2.2054,2.2313,2.2682,2.2921,2.2921,2.2583,2.2254,2.1994,2.1201,2.0598,2.0363,1.9947,1.9708,1.9708,1.9465,1.9031,1.8356,1.6996,1.5247,0.0,0.0,0.0,0.0,0.0,0.0,0.0,0.0,0.0,0.0,0.0,0.0,0.0,0.0,0.0,0.0,0.0,0.0,0.0,0.0,0.0,0.0,0.0,0.0,0.0,2.6327,2.8349,2.8558,3.0298,3.0731,2.8783,2.9579,3.0432,3.0866,3.1913,3.2811,3.3484,3.4352,3.4921,3.5177,3.5594,3.5938,3.6148,3.6148,3.6148,3.6148,3.6148,3.6148,3.6148,3.6148,3.6028,3.5833,3.5833,3.5714,3.5504,3.5504,3.5235,3.4786,3.4337,3.4173,3.4173,3.4173,3.4173,3.4173,3.4173,3.4023,3.3754,3.332,3.2422,3.1435,3.1031,3.0924,3.0806,3.0372,3.0567,3.0851,3.0627,3.0567,3.0522,3.0298,3.0058,2.9894,2.9894,2.9385,2.8727,2.8079,2.6497,2.4941,2.3849,2.3691,2.337,2.2503,2.3116,2.3616,2.337,2.3684,2.3864,2.3625,2.3236,2.2927,2.2718,2.168,2.0946,2.0703,2.0064,1.9708,1.9708,1.9708,1.9498,1.9046,1.7938,1.6308,1.4139,0.0,0.0,0.0,0.0,0.0,0.0,0.0,0.0,0.0,0.0,0.0,0.0,0.0,0.0,0.0,0.0,0.0,0.0,0.0,0.0,0.0,0.0,0.0,2.5621,2.8008,2.9909,3.0552,3.2362,3.2796,3.0851,3.2422,3.3559,3.3589,3.4219,3.4846,3.5534,3.5564,3.5863,3.6492,3.6507,3.6806,3.7404,3.7404,3.7404,3.7404,3.7404,3.7404,3.7404,3.7404,3.709,3.6507,3.6507,3.6148,3.5534,3.5534,3.5534,3.5504,3.5504,3.5504,3.5504,3.5504,3.5504,3.5504,3.5504,3.507,3.4533,3.4533,3.4083,3.3559,3.3529,3.3529,3.3529,3.3499,3.3499,3.335,3.2706,3.2542,3.2348,3.169,3.1032,3.0567,3.0537,3.0058,2.9457,2.8786,2.759,2.6467,2.5749,2.563,2.563,2.5615,2.5615,0.0,2.4709,2.4634,2.4365,2.3699,2.3625,2.3385,2.2778,2.2104,2.1425,2.0763,2.0079,1.9708,1.9708,1.9708,1.9708,1.9708,1.7758,1.6099,1.4871,0.0,0.0,0.0,0.0,0.0,0.0,0.0,0.0,0.0,0.0,0.0,0.0,0.0,0.0,0.0,0.0,0.0,0.0,0.0,0.0,0.0,2.6617,2.8278,2.8457,3.0342,3.2123,3.3245,3.4322,3.4741,3.4188,3.4637,3.5145,3.5624,3.5833,3.6207,3.6851,3.6881,3.6971,3.715,3.715,3.724,3.7404,3.7404,3.7404,3.7404,3.7404,3.7404,3.7404,3.7404,3.7315,3.715,3.715,3.6806,3.6222,3.6222,3.5938,3.5504,3.5504,3.5504,3.5504,3.5504,3.5504,3.5504,3.5504,3.5385,3.522,3.522,3.51,3.4861,3.4352,3.4234,3.4098,3.3634,3.3499,3.3455,3.3275,3.323,3.3066,3.2363,3.2064,3.1809,3.1331,3.0717,3.0193,3.0013,2.9325,2.8233,2.6602,2.6318,2.6153,2.5674,2.5615,2.5516,2.5337,2.5322,2.5068,2.4395,2.4321,2.4051,2.34,2.2338,2.162,2.144,2.0333,1.9708,1.9708,1.9708,1.9708,1.9708,1.8192,1.701,0.0,0.0,0.0,0.0,0.0,0.0,0.0,0.0,0.0,0.0,0.0,0.0,0.0,0.0,0.0,0.0,0.0,0.0,0.0,0.0,0.0,0.0,2.9265,3.1106,3.1943,3.3036,3.4158,3.5222,3.5893,3.6312,3.6312,3.6312,3.6462,3.6851,3.6881,3.703,3.7389,3.7404,3.7539,3.7808,3.7823,3.7958,3.8257,3.8257,3.8257,3.8257,3.8257,3.8257,3.8257,3.8257,3.8093,3.7823,3.7823,3.7464,3.6881,3.6881,3.6641,3.6252,0.0,0.0,0.0,0.0,3.5504,3.5504,3.5504,3.5504,3.5504,3.5504,3.5504,3.5429,3.5026,3.4906,3.4831,3.4442,3.4337,3.4262,3.3978,3.3903,3.3739,3.308,3.2931,3.2751,3.2049,3.16,3.118,3.0612,3.0223,0.0,2.8109,2.7619,2.72,2.6542,2.6437,2.6333,2.6063,2.6019,2.5764,2.5083,2.5023,2.4739,2.4066,2.3086,0.0,0.0,0.0,1.9989,1.9708,1.9708,0.0,0.0,0.0,0.0,0.0,0.0,0.0,0.0,1.5604,1.5185,0.0,0.0,0.0,0.0,0.0,0.0,0.0,0.0,0.0,0.0,0.0,0.0,0.0,0.0,0.0,0.0,3.1614,3.3514,3.5444,3.5789,3.6013,3.6537,3.7075,3.7404,3.7404,3.7404,3.7434,3.7524,3.7524,3.7554,3.7629,3.7644,0.0,0.0,0.0,3.8796,3.9373,3.9388,3.9388,3.9388,3.9388,3.9388,3.9388,3.9388,3.9095,3.8497,3.8497,3.8123,3.7524,3.7524,3.7479,3.7285,3.6088,3.5564,3.5504,3.5504,3.5504,3.5504,3.5504,0.0,0.0,3.5504,3.5504,3.5504,3.5504,3.5504,3.5504,3.5504,3.5504,3.537,3.4788,3.4623,3.4459,3.3769,3.3604,3.3425,3.2766,3.2557,3.2168,3.0971,3.0672,3.0417,2.9816,2.9146,2.8487,2.7809,2.7705,2.7465,2.6806,2.6692,2.6452,2.5794,2.5719,0.0,2.4769,2.4044,2.337,2.2838,2.1545,2.0557,1.9947,1.9932,1.9932,1.9932,1.9932,2.0213,2.0808,2.0808,2.0808,2.0718,1.7206,1.6458,0.0,0.0,0.0,0.0,0.0,0.0,0.0,0.0,0.0,0.0,0.0,0.0,0.0,0.0,0.0,3.2317,3.3978,3.5415,3.6836,3.7494,3.7689,3.727,3.7345,3.7404,3.7404,3.7404,3.7629,3.8167,3.8197,3.8437,3.897,3.9,3.9059,3.9215,3.923,3.929,3.9388,3.9388,3.9388,3.9388,3.9388,0.0,3.9388,3.9388,3.9313,3.923,3.923,3.8841,3.8197,3.8197,3.7883,3.7345,3.6582,3.5968,3.5504,3.5504,3.5504,3.5504,3.5504,3.5504,3.5504,3.5504,3.5504,3.5504,3.5504,3.5504,0.0,3.5504,3.5504,3.5474,3.534,3.531,3.513,3.4488,3.4324,3.4098,3.344,3.2886,3.2437,3.2168,3.1675,3.1092,3.0447,2.9804,2.916,2.8502,2.8412,2.8143,2.7495,2.7405,2.7151,2.6467,2.6408,2.6138,2.5457,2.4298,2.355,2.343,2.2218,2.144,2.1321,2.1306,2.1306,2.1306,2.1306,2.138,2.1515,2.1515,2.1515,2.1485,2.0722,2.0288,0.0,0.0,0.0,0.0,0.0,0.0,0.0,0.0,0.0,0.0,0.0,2.7006,2.8308,0.0,3.2198,3.4173,3.5609,3.6791,3.7764,3.8182,3.8272,3.7943,3.8212,3.8407,3.8407,3.8407,3.8556,3.8886,3.8901,3.905,3.9394,3.9388,3.9388,3.9388,3.9388,3.9388,3.9388,3.9388,3.9388,3.9388,3.9388,3.9388,3.9388,3.9388,3.9388,3.9388,3.9388,3.923,3.8901,3.8901,3.8512,3.7868,3.7569,3.703,3.6462,3.6462,3.6267,3.5998,3.5998,3.5774,3.5504,3.5504,3.5504,3.5504,3.5504,3.5504,3.5504,3.5504,3.5504,3.5504,3.5504,3.5504,3.5415,3.507,3.4996,3.4801,3.4159,3.3724,3.3305,3.2647,3.2213,3.178,3.1107,3.0761,3.0223,2.925,2.9086,2.8846,2.8199,2.8109,2.7854,2.718,2.7106,2.6836,2.6153,2.5181,2.4462,2.4111,2.3498,2.3011,2.2652,2.2373,2.2338,2.2637,2.2024,2.2173,2.314,2.2817,2.2996,2.3655,2.3655,2.2772,0.0,0.0,0.0,0.0,0.0,0.0,0.0,2.5196,2.6129,2.747,2.8801,3.0058,3.1091,3.2811,3.4517,3.5848,3.6926,3.7838,3.8497,3.8586,3.8586,3.8586,3.908,3.9388,3.9388,3.9388,3.9388,3.9388,3.9388,3.9388,3.9388,3.9388,3.9388,3.9388,3.9388,3.9388,3.9388,3.9388,3.9388,3.9388,3.9388,3.9388,3.9388,3.9388,3.9388,3.9388,3.9388,3.9388,3.9388,3.9388,3.9095,3.8586,3.8586,3.8257,3.7764,3.7509,3.709,3.6671,3.6671,3.6237,3.5699,3.5699,3.5609,3.5504,3.5504,3.5504,3.5504,3.5504,3.5504,3.5504,3.5504,3.5504,3.5504,3.5504,3.5504,3.5355,3.4801,3.4593,3.4189,3.3095,3.2796,3.2467,3.1809,3.169,3.1256,2.9968,2.9759,2.952,2.8876,2.8786,2.8577,2.8049,2.7869,2.748,2.6662,2.6093,2.5501,2.4844,2.4799,2.4545,2.4014,2.3505,2.3475,2.3984,2.2981,2.3236,2.4784,2.4268,2.4537,2.5615,2.5615,2.4477,2.5914,2.4403,2.3969,2.554,2.56,2.6348,0.0,3.0597,3.0223,3.1569,3.2901,3.3889,3.4039,3.5222,3.6567,3.7868,3.8182,3.8512,3.9215,3.9305,3.9305,3.9305,3.9328,3.9388,3.9388,3.9388,3.9388,3.9388,3.9388,3.9388,3.9388,3.9388,3.9388,3.9388,3.9388,3.9388,3.9388,3.9388,3.9388,3.9388,3.9388,3.9388,3.9388,3.9388,3.9388,3.9388,3.9388,3.9388,3.9388,3.9388,3.9379,3.9305,3.9305,3.926,3.9014,3.7853,3.736,3.73,3.73,3.6896,3.6372,3.6372,3.5983,3.5504,3.5504,3.5504,3.5504,3.5504,3.5504,3.5504,3.5504,3.5504,3.5504,3.5504,3.5504,3.5489,3.54,3.4906,3.4459,3.4324,3.3784,3.3185,3.2512,3.2378,3.1943,3.0597,3.0402,3.0178,2.9577,2.9502,2.9472,2.9397,2.8831,2.7979,2.6692,2.6512,2.6198,2.554,2.5495,2.5442,2.539,2.5315,2.5315,2.5375,2.5241,2.527,2.5495,2.542,2.5442,2.5615,2.5615,2.545,2.8981,2.8038,2.7634,2.7739,2.8697,3.0001,3.1555,3.2108,3.2632,3.3978,3.4996,3.5791,3.6118,3.6956,3.7764,3.8302,3.8721,3.9095,3.9379,3.9065,3.8826,3.8826,3.8482,3.8556,3.9313,3.9388,3.9388,3.9388,3.9388,3.9388,3.9388,3.9388,3.9388,3.9388,3.9783,3.9993,3.9993,3.9993,4.0187,4.0561,4.0172,3.9993,3.9993,3.9993,3.9783,3.9388,3.9388,3.9388,3.9388,3.9388,3.9388,3.9388,3.9388,3.9388,3.9313,3.876,3.8332,3.7973,3.7973,3.7554,3.703,3.703,3.6596,3.6073,3.6073,3.5804,3.5504,3.5504,3.5504,3.5504,3.5504,3.5504,3.5504,3.5504,3.5504,3.5504,3.5504,3.528,3.4966,3.4593,3.4279,3.3858,3.32,3.308,3.2766,3.1824,3.1316,3.0838,3.0208,3.0118,2.9983,2.9651,2.9367,2.8978,2.8382,2.8364,2.8053,2.7395,2.735,2.7171,2.6767,2.6378,2.6363,2.6752,2.6004,2.5989,2.6752,2.6363,2.6378,2.6752,2.6752,2.6752,3.0552,3.0253,3.0118,2.9549,3.1255,3.2976,3.2662,3.3634,3.4801,3.5609,3.6282,3.6821,3.7105,3.7689,3.8182,3.8362,3.8811,3.92,3.9358,3.8826,3.8392,3.8392,3.7808,3.7793,3.8766,3.9035,3.9215,3.9373,3.9388,3.9388,3.9388,3.9589,3.9694,3.9694,4.0337,4.0666,4.0666,4.0666,4.0905,4.1369,4.0905,4.0666,4.0666,4.0666,4.0307,3.9694,3.9694,3.9553,3.9388,3.9388,3.9388,3.9388,3.9388,3.9388,3.9388,3.9388,3.9095,3.8676,3.8676,3.8242,3.7689,3.7689,3.7255,3.6746,3.6746,3.6402,3.5998,3.5818,3.5774,3.5729,3.5549,3.5504,3.5504,3.5504,3.5504,3.5504,3.5504,3.5504,3.5355,3.4861,3.4788,3.4547,3.3888,3.3769,3.3544,3.2886,3.2348,3.1735,3.0896,3.0791,3.0552,2.9909,2.9834,2.9786,2.9621,2.9606,2.9397,2.8906,2.8876,2.8678,2.8169,2.7705,2.766,2.8139,2.72,2.7171,2.8154,2.7675,2.769,2.8154,2.8154,2.8154,2.9816,2.9636,2.9909,3.1107,3.2946,3.4608,3.5235,3.6372,3.7135,3.6567,3.6941,3.721,3.6626,3.7015,3.7644,3.8287,3.8407,3.8661,3.9334,3.8826,3.8392,3.8392,3.7808,3.7419,3.7464,3.8048,3.8691,3.9328,3.9388,3.9388,3.9388,4.0023,4.0367,4.0367,4.101,4.1354,4.1354,4.1354,4.1392,4.1422,4.1392,4.1354,4.1354,4.1354,4.0995,4.0367,4.0367,4.0008,3.9388,3.9388,3.9388,3.9388,3.9388,3.9388,3.9388,3.9388,3.9373,3.9394,3.9394,3.8931,3.8362,3.8362,3.7913,3.7375,3.7375,3.736,3.7225,3.6626,3.6462,3.6312,3.5669,3.5504,3.5504,3.5504,3.5504,3.5504,3.5504,3.5504,3.5489,3.5474,3.5474,3.525,3.4593,3.4474,3.4249,3.3559,3.344,3.2961,3.1645,3.1466,3.1212,3.0552,3.0477,3.0238,2.9651,2.9606,2.9592,2.9577,2.9577,2.9577,2.9547,2.9532,2.9532,2.9547,2.9517,2.9517,2.9547,2.9532,2.9532,2.9547,2.9547,2.9547,3.0253,3.1508,3.2961,3.338,3.4966,3.6477,3.6716,3.6791,3.6851,3.706,3.6941,3.6851,3.706,3.727,3.7629,3.8287,3.8392,3.8631,3.9334,3.8826,3.8227,3.7793,3.718,3.6791,3.6791,3.736,3.8018,3.8691,3.8736,3.9125,4.0023,4.0277,4.0591,4.104,4.1722,4.2066,4.2066,4.2066,4.2252,4.2671,4.2237,4.2066,4.2051,4.1617,4.1265,4.1055,4.1055,4.0681,4.0068,4.0068,3.9813,3.9388,3.9388,3.9388,3.9388,3.9388,3.9388,3.9388,3.9388,3.9275,3.9065,3.9065,3.8616,3.8063,3.8063,3.7749,3.736,3.715,3.7105,3.6956,3.6327,3.6148,3.6043,3.5609,3.5504,3.5504,3.5504,3.5504,3.5504,3.5504,3.5504,3.5429,3.519,3.516,3.4936,3.4247,3.3769,3.3185,3.2273,3.2153,3.1899,3.1241,3.1152,3.1077,3.0896,3.0853,3.0687,3.0223,3.0193,3.0013,2.9621,2.9606,2.9606,2.9606,2.9606,2.9606,2.9606,2.9606,2.9606,2.9606,2.9606,2.9606,3.1659,3.317,3.4683,3.534,3.6656,3.7704,3.7464,3.7285,3.715,3.709,3.6582,3.6178,3.6327,3.5968,3.6103,3.7494,3.7509,3.7838,3.923,3.8631,3.7973,3.7778,3.7,3.6567,3.6791,3.718,3.7689,3.8347,3.8616,3.923,4.0337,4.0621,4.1055,4.1752,4.2372,4.2701,4.2701,4.2701,4.2925,4.329,4.291,4.2701,4.2701,4.2267,4.1953,4.1767,4.1767,4.1392,4.0756,4.0756,4.0502,4.0098,3.9858,3.9768,3.9738,3.9514,3.9388,3.9388,3.9388,3.9388,3.9388,3.9388,3.9125,3.8751,3.8751,3.8467,3.8078,3.7823,3.7764,3.7614,3.6985,3.6821,3.6656,3.6013,3.5863,3.5789,3.5549,3.5504,3.5504,3.5504,3.5504,3.5504,3.5504,3.5504,3.5355,3.4906,3.4487,3.3888,3.2976,3.2871,3.2706,3.2243,3.1989,3.1854,3.1854,3.1645,3.1316,3.0868,3.0866,3.0687,3.0298,3.0283,3.0283,3.0283,3.0283,3.0283,3.0283,3.0283,3.0283,3.0283,3.0283,3.0283,3.3815,3.4608,3.5147,3.6985,3.7958,3.8272,3.7599,3.7913,3.7973,3.6656,3.5833,3.513,3.4444,3.3305,3.3365,3.5953,3.5953,3.6507,3.9029,3.8317,3.7734,3.8317,3.7315,3.6806,3.736,3.7434,3.7719,3.8347,3.9035,3.9723,4.0412,4.107,4.1767,4.2425,4.3015,4.329,4.329,4.329,4.329,4.329,4.329,4.329,4.329,4.329,4.3,4.2455,4.2455,4.2081,4.1467,4.1467,4.1452,4.1324,4.0696,4.0442,4.0367,3.9753,3.9499,3.9433,3.9433,3.9454,3.9388,3.9388,3.9388,3.9388,3.9388,3.9388,3.929,3.8631,3.8437,3.8287,3.7629,3.7464,3.73,3.6686,3.6507,3.6312,3.5684,3.5534,3.5504,3.5504,3.5504,3.5504,3.5504,3.5504,3.5504,3.5504,3.5504,3.504,3.3709,3.3544,3.3529,3.3499,3.2931,3.2557,3.2557,3.1959,3.16,3.16,3.16,3.1585,3.1555,3.1555,3.154,3.1511,3.1511,3.1511,3.1511,3.1511,3.1511,3.1511,3.1511,3.1511,3.4189,3.5926,3.7509,3.8018,3.8661,3.8975,3.8302,3.7883,3.715,3.5387,3.4083,3.2916,3.1734,3.2063,3.3066,3.4758,3.6073,3.7509,3.9185,3.9125,3.8781,3.8437,3.8108,3.7778,3.7434,3.7853,3.8212,3.8377,3.9035,3.9918,4.107,4.1796,4.244,4.306,4.32,4.329,4.329,4.329,4.329,4.329,4.329,4.329,4.329,4.329,4.32,4.309,4.309,4.2716,4.2156,4.2156,4.1856,4.1369,4.119,4.113,4.1115,4.0935,4.0561,4.0157,4.0157,3.9828,3.9388,3.9388,3.9388,3.9388,3.9388,3.9388,3.9343,3.92,3.9155,3.9005,3.8317,3.8138,3.7973,3.733,3.6821,3.6432,3.6267,3.5848,3.5504,3.5504,3.5504,3.5504,3.5504,3.5504,3.5504,3.5504,3.5504,3.519,3.4369,3.4264,3.4038,3.3544,3.335,3.3245,3.3245,3.3095,3.2991,3.2991,3.2991,3.2781,3.2258,3.2243,3.2004,3.1511,3.1511,3.1511,3.1511,3.1511,3.1511,3.1511,3.1511,3.1511,3.5806,3.727,3.8467,3.8766,3.8901,3.8646,3.7404,3.6611,3.5474,3.32,3.1928,3.0821,2.946,3.0313,3.1659,3.2976,3.51,3.7135,3.8751,3.8975,3.8931,3.8856,3.8571,3.8362,3.8302,3.8631,3.896,3.926,3.9634,4.0307,4.1324,4.2051,4.2671,4.3275,4.329,4.329,4.329,4.329,4.329,4.329,4.329,4.329,4.329,4.329,4.329,4.329,4.329,4.3135,4.2776,4.2776,4.2566,4.2207,4.1961,4.1856,4.1811,4.1527,4.1145,4.0831,4.0831,4.0591,4.0187,3.9604,3.9388,3.9388,3.9388,3.9388,3.9388,3.9388,3.9388,3.9334,3.8945,3.8841,3.8676,3.8003,3.7569,3.724,3.6956,3.6387,3.5848,3.5564,3.5504,3.5504,3.5504,3.5504,3.5504,3.5504,3.5504,3.537,3.4981,3.4921,3.4786,3.4412,3.4098,3.3918,3.3918,3.3664,3.3499,3.3499,3.3499,3.3335,3.2961,3.2946,3.2766,3.2378,3.2392,3.2392,3.2392,3.2079,3.1929,3.1929,3.1645,3.1511,3.7749,3.8452,3.8676,3.9275,3.8901,3.7883,3.5953,3.4906,3.3575,3.0702,2.9624,2.8768,2.733,2.8319,2.9774,3.1137,3.3634,3.6073,3.8108,3.8392,3.8646,3.9298,3.8901,3.8796,3.9484,3.9508,3.9828,4.0487,4.0606,4.0905,4.1512,4.2171,4.2746,4.3275,4.329,4.329,4.329,4.329,4.329,4.329,4.329,4.329,4.329,4.329,4.329,4.329,4.329,4.329,4.329,4.329,4.329,4.3245,4.2701,4.253,4.2455,4.1848,4.1579,4.1504,4.1504,4.1444,4.119,4.0053,3.9619,3.9508,3.9508,3.9448,3.9388,3.9388,3.9388,3.9388,3.9388,3.9388,3.9275,3.8661,3.8452,3.8227,3.7659,3.7045,3.6417,3.5759,3.5639,3.5609,3.5519,3.5504,3.5504,3.5504,3.5504,3.5504,3.5504,3.5504,3.5504,3.5504,3.4966,3.4638,3.4638,3.4083,3.3769,3.3769,3.3769,3.3724,3.3634,3.3619,3.3589,3.3499,3.3499,3.3499,3.3499,3.2916,3.2647,3.2632,3.2034,3.1765,3.8123,3.8796,3.9275,3.9394,3.8901,3.7883,3.5953,3.4547,0.0,2.8873,2.7585,2.6527,2.4627,2.6312,2.8558,3.0387,3.2916,3.5567,3.8033,3.8392,3.8646,3.9298,3.932,3.9499,4.0172,4.0232,4.0502,4.116,4.1752,4.2111,4.2231,4.2806,4.317,4.329,4.329,4.329,4.329,4.329,4.329,4.329,4.329,4.329,4.329,4.329,4.329,4.329,4.329,4.329,4.329,4.329,4.329,4.329,4.317,4.3125,4.315,4.2991,4.2656,4.2231,4.2231,4.1871,4.1339,4.1115,4.0666,4.0232,4.0232,3.9843,3.9388,3.9388,3.9388,3.9388,3.9388,3.9388,3.9394,3.9275,3.8796,3.8362,3.8242,3.7704,3.706,3.6447,3.6312,3.6148,3.5609,3.5504,3.5504,3.5504,3.5504,3.5504,3.5504,3.5504,3.5504,3.5504,3.54,3.5325,3.5325,3.522,3.516,3.516,3.516,3.4891,3.4354,3.4339,3.4084,3.3499,3.3499,3.3499,3.3499,3.338,3.332,3.332,3.3215,3.3155,3.8646,3.917,3.9334,3.8975,3.8377,3.7105,3.4082,0.0,0.0,2.6342,2.5024,2.417,2.2847,2.4762,2.7081,2.8738,3.121,3.3993,3.6985,3.7404,3.7898,3.926,3.9723,4.0053,4.0367,4.0711,4.119,4.1886,4.2216,4.2396,4.2396,4.297,4.329,4.329,4.329,4.329,4.329,4.329,4.329,4.329,4.329,4.329,4.329,4.329,4.329,4.329,4.329,4.329,4.329,4.329,4.329,4.329,4.329,4.329,4.329,4.329,4.3135,4.2865,4.2865,4.2656,4.2402,4.2402,4.1728,4.0905,4.0905,4.0442,3.9933,3.9933,3.9694,3.9388,3.9388,3.9388,3.9388,3.9388,3.917,3.8826,3.8467,3.8138,3.7734,3.709,3.6971,3.6761,3.6133,3.6013,3.5893,3.5549,3.5504,3.5504,3.5504,3.5504,3.5504,3.5504,3.5504,3.5504,3.5504,3.5504,3.5504,3.5504,3.5504,3.5355,3.5026,3.5011,3.4861,3.4547,3.4532,3.4532,3.4532,3.4188,3.4008,3.3993,3.3649,3.3499,3.8871,3.9305,3.926,3.8556,3.7793,3.6222,3.2363,3.0298,0.0,2.4193,2.2927,2.2328,2.1799,2.361,2.5704,0.0,2.9564,3.2243,3.5594,3.6312,3.7165,3.8975,3.9903,0.0,4.0591,4.1205,4.1901,4.256,4.2605,4.2605,4.2605,4.3045,4.329,4.329,4.329,4.329,4.329,4.329,4.329,4.329,4.329,4.329,4.329,4.329,4.329,4.329,4.329,4.329,4.329,4.329,4.329,4.329,4.329,4.329,4.329,4.329,4.329,4.329,4.329,4.329,4.329,4.329,4.2551,4.1632,4.1632,4.113,4.0606,4.0606,4.0142,3.9634,3.9634,3.9493,3.9388,3.9388,3.9388,3.9275,3.8736,3.8601,3.8422,3.7749,3.7614,3.7419,3.6791,3.6686,3.6462,3.5804,3.5714,3.5669,3.5519,3.5504,3.5504,3.5504,3.5504,3.5504,3.5504,3.5504,3.5504,3.5504,3.5504,3.5504,3.5504,3.5504,3.5504,3.5504,3.5504,3.5504,3.5504,3.4966,3.4728,3.4713,3.4158,3.3918,3.8287,3.8945,3.926,3.8556,3.7464,3.5684,3.2273,0.0,2.6821,2.3467,2.2233,2.1769,2.171,2.2832,0.0,0.0,0.0,3.0911,3.4234,3.5714,3.6985,3.8317,0.0,0.0,4.1235,4.1916,4.2575,4.3155,4.32,4.32,4.32,4.326,4.329,4.329,4.329,4.329,4.329,4.329,4.329,4.329,4.329,4.329,4.329,4.329,4.329,4.329,4.329,4.329,4.329,4.329,4.329,4.329,4.329,4.329,4.329,4.329,4.329,4.329,4.329,4.329,4.329,4.329,4.2851,4.2306,4.2306,4.1856,4.1294,4.1294,4.0816,4.0307,4.0307,3.9873,3.9388,3.9388,3.9388,3.9394,3.9298,3.9334,3.9125,3.8437,3.8302,3.8093,3.7434,3.733,3.7105,3.6492,3.6402,3.6178,3.5579,3.5504,3.5504,3.5504,3.5504,3.5504,3.5504,3.5504,3.5504,3.5504,3.5504,3.5504,3.5504,3.5504,3.5504,3.5504,3.5504,3.5504,3.5504,3.5444,3.5415,3.5415,3.5355,3.5325,3.8108,3.8901,3.9119,3.8078,3.7135,3.5415,3.13,2.8607,2.6072,2.2793,2.125,2.0737,2.1545,2.1784,2.2981,0.0,0.0,0.0,3.2123,3.314,3.4442,3.6956,3.8392,3.9768,4.1272,4.2021,4.2626,4.3245,4.329,4.329,4.329,4.329,4.329,4.329,4.329,4.329,4.329,4.329,4.329,4.329,4.329,4.329,4.329,4.329,4.329,4.329,4.329,4.329,4.329,4.329,4.329,4.329,4.329,4.329,4.329,4.329,4.329,4.329,4.329,4.329,4.329,4.329,4.3125,4.294,4.294,4.2491,4.2006,4.2006,4.1542,4.0905,4.0502,3.9903,3.9388,3.9388,3.9388,3.9388,3.9388,3.9388,3.9298,3.9065,3.9005,3.8796,3.8123,3.8003,3.7778,3.7135,3.6731,3.6387,3.6133,3.5744,3.5504,3.5504,3.5504,3.5504,3.5504,3.5504,3.5504,3.5504,3.5504,3.5504,3.5504,3.5504,3.5504,3.5504,3.5504,3.5504,3.5504,3.5504,3.5504,3.5504,3.5504,3.5504,3.724,3.8167,3.8556,3.7419,3.6507,3.4786,3.0565,2.7874,2.542,2.2338,2.0636,2.0052,2.1186,2.1186,2.2039,0.0,0.0,2.6533,3.0389,3.1421,3.2811,3.5564,3.7195,3.8811,4.0621,4.1923,4.2836,4.326,4.329,4.329,4.329,4.329,4.329,4.329,4.329,4.329,4.329,4.329,4.329,4.329,4.329,4.329,4.329,4.329,4.329,4.329,4.329,4.329,4.329,4.329,4.329,4.329,4.329,4.329,4.329,4.329,4.329,4.329,4.329,4.329,4.329,4.329,4.329,4.329,4.329,4.3015,4.2656,4.2656,4.2216,4.1512,4.0621,4.0053,3.9664,3.9433,3.9388,3.9388,3.9388,3.9388,3.9388,3.9388,3.9388,3.9275,3.8781,3.8691,3.8467,3.7808,3.733,3.6985,3.6791,3.6193,3.5804,3.5804,3.5624,3.5504,3.5504,3.5504,3.5504,3.5504,3.5504,3.5504,3.5504,3.5504,3.5504,3.5504,3.5504,3.5504,3.5504,3.5504,3.5504,3.5504,3.5504,3.5504,3.5355,3.6462,3.7285,3.6656,3.5522,3.3665,3.0355,2.753,2.4881,2.2233,2.0636,1.9899,2.0583,2.1261,2.2113,2.3415,2.5285,0.0,2.9337,3.1285,3.3006,3.4369,3.6222,3.7958,3.9269,4.175,4.329,4.329,4.329,4.329,4.329,4.329,4.329,4.329,4.329,4.329,4.329,4.329,4.329,4.329,4.329,4.329,4.329,4.329,4.329,4.329,4.329,4.329,4.329,4.329,4.329,4.329,4.329,4.329,4.329,4.329,4.329,4.329,4.329,4.329,4.329,4.329,4.329,4.329,4.329,4.329,4.329,4.329,4.2865,4.2096,4.0741,4.0397,4.0232,3.9574,3.9388,3.9388,3.9388,3.9388,3.9388,3.9388,3.9388,3.9388,3.9373,3.9373,3.917,3.8482,3.8377,3.8138,3.7479,3.6851,3.6477,3.6477,3.5893,3.5504,3.5504,3.5504,3.5504,3.5504,3.5504,3.5504,3.5504,3.5504,3.5504,3.5504,3.5504,3.5504,3.5504,3.5504,3.5504,3.5504,3.5504,3.5504,3.2706,3.4068,3.504,3.3484,3.2751,3.1719,2.8888,2.6512,2.4291,2.2143,2.0636,1.9884,2.0569,2.0498,2.1505,2.5061,2.5794,0.0,0.0,3.1928,3.3499,3.4414,3.7808,4.0472,4.1339,4.2581,4.329,4.329,4.329,4.329,4.329,4.329,4.329,4.329,4.329,4.329,4.329,4.329,4.329,4.329,4.329,4.329,4.329,4.329,4.329,4.329,4.329,4.329,4.329,4.329,4.329,4.329,4.329,4.329,4.329,4.329,4.329,4.329,4.329,4.329,4.329,4.329,4.329,4.329,4.329,4.329,4.329,4.329,4.2865,4.2306,4.1886,4.107,4.0352,4.0142,3.9753,3.9388,3.9388,3.9388,3.9388,3.9388,3.9388,3.9388,3.9388,3.9388,3.9313,3.9125,3.8691,3.8317,3.8108,3.7524,3.712,3.712,3.6552,3.5998,3.5549,3.5504,3.5504,3.5504,3.5504,3.5504,3.5504,3.5504,3.5504,3.5504,3.5504,3.5504,3.5504,3.5504,3.5504,3.5504,3.5504,3.5504,3.036,3.1869,3.2751,3.175,3.1137,3.0163,2.7779,2.5659,2.3663,2.1724,2.0453,1.9828,2.0243,2.0183,2.1096,2.4238,2.5016,2.6279,2.9355,3.1495,3.3455,3.5355,3.8571,4.0995,4.1946,4.2806,4.329,4.329,4.329,4.329,4.329,4.329,4.329,4.329,4.329,4.329,4.329,4.329,4.329,4.329,4.329,4.329,4.329,4.329,4.329,4.329,4.329,4.329,0.0,4.329,4.329,4.329,4.329,4.329,4.329,4.329,4.329,4.329,4.329,4.329,4.329,4.329,4.329,4.329,4.329,4.329,4.329,4.329,4.3045,4.2671,4.247,4.1796,4.101,4.0516,4.0083,3.9723,3.9433,3.9388,3.9388,3.9388,3.9388,3.9388,3.9388,3.9388,3.9388,3.9388,3.905,3.8781,3.8781,3.8197,3.7778,3.7778,3.721,3.6671,3.6252,3.5789,3.5504,3.5504,3.5504,3.5504,3.5504,3.5504,3.5504,3.5504,3.5504,3.5504,3.5504,3.5504,3.5504,3.5504,3.5504,3.5504,0.0,2.9579,3.0223,3.0733,3.0028,2.8678,2.6752,2.4837,0.0,2.1077,2.0168,1.9738,1.9828,2.0318,2.1006,2.1904,2.3588,2.5741,2.8442,3.0554,3.3304,3.7225,3.8796,4.0083,4.1399,4.2626,4.329,4.329,4.329,4.329,4.329,4.329,4.329,4.329,4.329,4.329,4.329,4.329,4.329,4.329,4.329,4.329,4.329,4.329,4.329,4.329,4.329,4.329,4.329,4.329,4.329,4.329,4.329,4.329,4.329,4.329,4.329,4.329,4.329,4.329,4.329,4.329,4.329,4.329,4.329,4.329,4.329,4.329,4.329,4.3155,4.262,4.2425,4.2096,4.0831,4.0502,4.0307,3.9694,3.9514,3.9448,3.9448,3.9418,3.9388,3.9388,3.9388,3.9388,3.9388,3.9388,3.9388,3.9388,3.8856,3.8467,3.8467,3.7868,3.7479,3.7479,3.6342,3.5624,3.5579,3.5579,3.5549,3.5504,3.5504,3.5504,3.5504,3.5504,3.5504,3.5504,3.5504,3.5504,3.5504,3.5504,3.5504,2.3796,0.0,2.5785,2.4971,2.4881,2.4784,0.0,2.2853,2.1874,2.0897,2.0168,2.0022,2.1036,2.0946,2.1754,2.4926,2.6267,2.7814,3.0434,3.3425,3.6596,4.0038,4.0726,4.1444,4.2746,4.311,4.329,4.329,4.329,4.329,4.329,4.329,4.329,4.329,4.329,4.329,4.329,4.329,4.329,4.329,4.329,4.329,4.329,4.329,4.329,4.329,4.329,4.329,4.329,4.329,4.329,4.329,4.329,4.329,4.329,4.329,4.329,4.329,4.329,4.329,4.329,4.329,4.329,4.329,4.329,4.329,4.329,4.329,4.329,4.326,4.315,4.2746,4.2321,4.2006,4.1557,4.1115,4.095,4.0531,4.0172,4.0172,3.9768,3.9388,3.9388,3.9388,3.9388,3.9388,3.9388,3.9388,3.9388,3.9239,3.917,3.917,3.8571,3.8153,3.8153,3.7419,3.6761,3.6282,3.6252,3.6028,3.5534,3.5504,3.5504,3.5504,3.5504,3.5504,3.5504,3.5504,3.5504,3.5504,3.5504,3.5504,2.113,2.2936,2.4515,2.4133,2.4044,2.3894,2.3251,2.2143,2.1051,2.0378,1.9944,2.0022,2.1051,2.1201,2.2158,2.5196,2.6752,2.8948,3.2781,3.5415,3.8018,4.1025,4.1422,4.1893,4.317,4.329,4.329,4.329,4.3045,4.2895,4.2895,4.2895,4.2895,4.2895,4.2895,4.303,4.329,4.329,4.329,4.329,4.329,4.329,4.329,4.329,4.329,4.329,4.329,4.329,4.329,4.329,4.329,4.329,4.329,4.329,4.329,4.329,4.329,4.329,4.329,4.329,4.329,4.329,4.329,4.329,4.329,4.329,4.329,4.329,4.329,4.329,4.329,4.3075,4.2731,4.247,4.2126,4.1782,4.1482,4.11,4.0846,4.0846,4.0561,4.0232,3.9918,3.9873,3.9768,3.9433,3.9388,3.9388,3.9388,3.9388,3.9388,3.9388,3.9095,3.8856,3.8856,3.8542,3.7928,3.6971,3.6911,3.6746,3.6402,3.6103,3.5804,3.5504,3.5504,3.5504,3.5504,3.5504,3.5504,3.5504,3.5504,3.5504,2.0067,2.2338,2.4649,2.4822,2.4575,2.4126,2.346,0.0,0.0,2.0127,2.0007,2.0258,2.1137,2.1844,2.2936,2.4889,2.7051,3.0191,3.4981,3.6761,3.8512,4.107,4.1422,4.1893,4.317,4.32,4.314,4.314,4.2581,4.2246,4.2246,4.2246,4.2246,4.2246,4.2246,4.2476,4.2991,4.3095,4.314,4.314,4.314,4.3095,4.2991,4.311,4.314,4.3155,4.3245,4.329,4.329,4.329,4.329,4.329,4.329,4.329,4.329,4.329,4.329,4.329,4.329,4.329,4.329,4.329,4.329,4.329,4.329,4.329,4.329,4.329,4.329,4.329,4.329,4.329,4.3155,4.2641,4.2545,4.2396,4.1803,4.1609,4.1572,4.1572,4.1444,4.1205,4.0651,4.0546,4.0367,3.9798,3.9634,3.9574,3.9574,3.9448,3.9388,3.9388,3.9388,3.9388,3.9388,3.9388,3.8931,3.7793,3.7614,3.7524,3.7404,3.6911,3.6372,3.5804,3.5699,3.5654,3.5654,3.5549,3.5504,3.5504,3.5504,3.5504,2.1774,2.34,2.4096,2.1974,2.2233,2.2823,2.2143,2.1754,2.1515,0.0,0.0,2.1934,2.3678,2.4545,2.5659,2.7664,3.0582,3.3469,3.5983,3.7434,3.902,4.1168,4.1422,4.1893,4.317,4.2836,4.2545,4.2545,4.1946,4.1572,4.1572,4.1572,4.1572,4.1572,4.1572,4.1579,4.1683,4.2261,4.2545,4.2545,4.2545,4.2261,4.1698,4.2291,4.2545,4.259,4.309,4.329,4.329,4.329,4.329,4.329,4.329,4.329,4.329,4.329,4.329,4.329,4.329,4.329,4.329,4.329,4.329,4.329,4.329,4.329,4.329,4.329,4.329,4.329,4.329,4.329,4.3275,4.317,4.314,4.311,4.3021,4.2596,4.2246,4.2246,4.1796,4.1392,4.125,4.1235,4.119,4.11,4.0606,4.0247,4.0247,3.9768,3.9388,3.9388,3.9388,3.9388,3.9388,3.9388,3.9298,3.9125,3.8556,3.7988,3.7434,3.7315,3.7225,3.712,3.6611,3.6342,3.6342,3.5774,3.5504,3.5504,3.5504,3.5504,2.0831,2.2313,2.337,2.2488,2.355,2.4739,2.4403,2.3789,2.3385,2.3729,2.3804,2.4193,2.545,2.6527,2.8218,3.127,3.335,3.5265,3.724,3.8018,3.914,4.1145,4.107,4.1369,4.2686,4.2261,4.1871,4.1871,4.122,4.0846,4.0846,4.0846,4.0846,4.0846,4.0846,4.1025,4.1422,4.1324,4.1512,4.1871,4.1871,4.1707,4.1384,4.1737,4.1871,4.1886,4.2147,4.2282,4.2282,4.2282,4.2491,4.2806,4.2806,4.3015,4.329,4.329,4.329,4.329,4.329,4.329,4.329,4.329,4.329,4.329,4.329,4.329,4.329,4.329,4.329,4.329,4.329,4.329,4.329,4.329,4.329,4.329,4.329,4.309,4.2895,4.2895,4.2641,4.2327,4.2006,4.1946,4.1826,4.1467,4.113,4.0935,4.0935,4.0666,4.0337,3.9993,3.9948,3.9798,3.9454,3.9388,3.9388,3.9388,3.9125,3.8646,3.7973,3.7943,3.7778,3.7419,3.7135,3.6985,3.6985,3.6686,3.6537,3.6537,3.6537,3.6537,2.0501,2.1744,2.3107,2.3864,2.5106,2.6303,2.6916,2.6033,2.5337,2.6333,2.6542,2.6737,2.738,2.8742,3.0881,3.4414,3.5519,3.6522,3.8167,3.8527,3.926,4.095,4.0711,4.0861,4.2051,4.1572,4.1145,4.1145,4.0546,4.0172,4.0172,4.0172,4.0172,4.0172,4.0172,4.0412,4.092,4.0427,4.0502,4.1145,4.1145,4.107,4.0935,4.1085,4.1145,4.116,4.1309,4.1422,4.1422,4.1422,4.1811,4.2396,4.2396,4.2761,4.329,4.329,4.329,4.329,4.329,4.329,4.329,4.329,4.329,4.329,4.329,4.329,4.329,4.329,4.329,4.329,4.329,4.329,4.329,4.329,4.329,4.329,4.329,4.329,4.329,4.329,4.329,4.3125,4.2671,4.262,4.2455,4.1908,4.1713,4.1647,4.1647,4.1512,4.119,4.0681,4.0621,4.0367,3.9709,3.9514,3.9388,3.9388,3.9388,3.9185,3.8661,3.8631,3.8392,3.7898,3.7719,3.7644,3.7644,3.7479,3.7404,3.7404,3.7404,3.7404,2.2832,2.3415,2.3849,2.5136,2.5098,2.5397,2.7889,2.741,2.6991,2.8933,2.9322,2.949,3.0103,3.1824,3.3844,3.5998,3.6866,3.7539,3.8287,3.8945,3.9619,4.0382,4.0427,4.0681,4.1422,4.0861,4.0472,4.0472,3.9858,3.9448,3.9448,3.9448,3.9448,3.9448,3.9448,3.9514,3.9559,3.9514,3.9828,4.0472,4.0472,4.0157,3.9589,4.0187,4.0472,4.0502,4.1115,4.1422,4.1422,4.1422,4.1811,4.2396,4.2396,4.2761,4.329,4.329,4.329,4.329,4.329,4.329,4.329,4.329,4.329,4.329,4.329,4.329,4.329,4.329,4.329,4.329,4.329,4.329,4.329,4.329,4.329,4.329,4.329,4.329,4.329,4.329,4.329,4.329,4.323,4.323,4.32,4.3155,4.2686,4.2336,4.2336,4.1796,4.1369,4.1309,4.1347,4.1055,4.0382,3.9768,3.9388,3.9388,3.9388,3.9394,3.9313,3.9313,3.9334,3.9239,3.8646,3.8317,3.8317,3.7704,3.7404,3.7404,3.7404,3.7404,2.1605,2.2682,2.3819,2.4739,2.5734,2.6946,2.8786,2.9116,2.9594,3.1599,3.2018,3.2213,3.2886,3.362,3.4756,3.6746,3.7255,3.7793,3.8871,3.926,3.9664,4.0322,4.0038,4.0053,4.0711,4.0172,3.9783,3.9783,3.9559,3.9388,3.9388,3.9388,3.9388,3.9388,3.9388,3.9388,3.9388,3.9388,3.9544,3.9783,3.9783,3.9664,3.9388,3.9679,3.9783,3.9798,4.0053,4.0172,4.0172,4.0172,4.0786,4.1871,4.2641,4.312,4.329,4.329,4.329,4.329,4.329,4.329,4.329,4.329,4.329,4.329,4.329,4.329,4.329,4.329,4.329,4.329,4.329,4.329,4.329,4.329,4.329,4.329,4.329,4.329,4.329,4.329,4.329,4.329,4.329,4.329,4.329,4.329,4.3135,4.297,4.297,4.2746,4.2447,4.2066,4.1662,4.128,4.1025,4.0412,4.0023,4.0023,3.9649,3.9388,3.9388,3.9388,3.9388,3.9388,3.917,3.9035,3.9035,3.8781,3.8626,3.8626,3.8626,3.8626,2.1062,2.2143,2.352,2.438,2.6108,2.8064,2.9789,3.0687,3.1764,3.3978,3.4442,3.4577,3.5058,3.5147,3.5624,3.7165,3.7584,3.8123,3.926,3.9388,3.9553,4.0038,3.9694,3.9589,4.0053,3.9694,3.9388,3.9388,3.9388,3.9388,3.9388,3.9388,3.9388,3.9388,3.9388,3.9388,3.9388,3.9388,3.9388,3.9388,3.9388,3.9388,3.9388,3.9388,3.9388,3.9388,3.9388,3.9388,3.9388,3.9388,4.0187,4.1527,4.2596,4.315,4.329,4.329,4.329,4.329,4.329,4.329,4.329,4.329,4.329,4.329,4.329,4.329,4.329,4.329,4.329,4.329,4.329,4.329,4.329,4.329,4.329,4.329,4.329,4.329,4.329,4.329,4.329,4.329,4.329,4.329,4.329,4.329,4.329,4.329,4.329,4.329,4.3125,4.2716,4.2087,4.1737,4.1737,4.1085,4.0621,4.0412,3.9978,3.9634,3.9388,3.9388,3.9388,3.9388,3.9388,3.9388,3.9388,3.9388,3.9388,3.9388,3.9388,3.9388,2.1859,2.2173,2.3032,2.4291,2.6138,2.8334,3.0928,3.2034,3.329,3.5953,3.6492,3.6492,3.6492,3.6492,3.6686,3.73,3.7958,3.8631,3.9334,3.9388,3.9388,3.9388,3.9388,3.9388,3.9388,3.9388,3.9388,3.9388,3.9388,3.9388,3.9388,3.9388,3.9388,3.9388,3.9388,3.9388,3.9388,3.9388,3.9388,3.9388,3.9388,3.9388,3.9388,3.9388,3.9388,3.9388,3.9388,3.9388,3.9388,3.9388,4.0187,4.1482,4.2141,4.2761,4.329,4.329,4.329,4.329,4.329,4.329,4.329,4.329,4.329,4.329,4.329,4.329,4.329,4.329,4.329,4.329,4.329,4.329,4.329,4.329,4.329,4.329,4.329,4.329,4.329,4.329,4.329,4.329,4.329,4.329,4.329,4.329,4.329,4.329,4.329,4.329,4.329,4.329,4.2761,4.241,4.241,4.1811,4.1115,4.0457,4.0412,4.0113,3.9454,3.9388,3.9388,3.9388,3.9388,3.9388,3.9388,3.9388,3.9388,3.9388,3.9388,3.9388,2.1321,2.2467,2.4231,2.5083,2.7833,3.0778,3.2527,3.3425,3.4517,3.6686,3.7135,3.7,3.6567,3.6851,3.7195,3.7375,3.7958,3.8631,3.9334,3.9388,3.9388,3.9388,3.9388,3.9388,3.9388,3.9388,3.9388,3.9388,3.9388,3.9388,3.9388,3.9388,3.9388,3.9388,3.9388,3.9388,3.9388,3.9388,3.9388,3.9388,3.9388,3.9388,3.9388,3.9388,3.9388,3.9388,3.9388,3.9388,3.9454,3.9918,4.0337,4.0801,4.1961,4.2515,4.2701,4.3125,4.329,4.329,4.329,4.329,4.329,4.329,4.329,4.329,4.329,4.329,4.329,4.329,4.329,4.329,4.329,4.329,4.329,4.329,4.329,4.329,4.329,4.329,4.329,4.329,4.329,4.329,4.329,4.329,4.329,4.329,4.329,4.329,4.329,4.329,4.329,4.329,4.3125,4.3045,4.3045,4.2447,4.2021,4.1826,4.1339,4.0591,3.9433,3.9388,3.9388,3.9388,3.9388,3.9388,3.9388,3.9388,3.9388,3.9388,3.9388,3.9388,2.2317,2.3588,2.5352,2.6826,2.9343,3.2123,3.4517,3.5355,3.6133,3.7853,3.7988,3.7689,3.7315,3.7539,3.7808,3.7808,3.8362,3.8945,3.9328,3.9388,3.9388,3.9388,3.9388,3.9388,3.9388,3.9388,3.9388,3.9388,3.9388,3.9388,3.9388,3.9388,3.9388,3.9388,3.9388,3.9388,3.9388,3.9388,3.9388,3.9388,3.9388,3.9388,3.9388,3.9388,3.9388,3.9388,3.9388,3.9388,3.9418,3.9843,4.0172,4.0502,4.1602,4.2171,4.247,4.309,4.329,4.329,4.329,4.329,4.329,4.329,4.329,4.329,4.329,4.329,4.329,4.329,4.329,4.329,4.329,4.329,4.329,4.329,4.329,4.329,4.329,4.329,4.329,4.329,4.329,4.329,4.329,4.329,4.329,4.329,4.329,4.329,4.329,4.329,4.329,4.329,4.329,4.329,4.329,4.297,4.2641,4.2425,4.2036,4.1332,4.0247,3.9948,3.9694,3.9424,3.9388,3.9388,3.9388,3.9388,3.9388,3.9388,3.9388,3.9388,2.4162,2.5084,2.6333,2.8996,3.0791,3.2826,3.6492,3.736,3.7793,3.9104,3.8916,3.8467,3.8407,3.8437,3.8467,3.8407,3.8975,3.9388,3.9388,3.9388,3.9388,3.9388,3.9388,3.9388,3.9388,3.9388,3.9388,3.9388,3.9388,3.9388,3.9388,3.9388,3.9388,3.9388,3.9388,3.9388,3.9388,3.9388,3.9388,3.9388,3.9388,3.9388,3.9388,3.9388,3.9388,3.9388,3.9388,3.9388,3.9388,3.9388,3.9768,4.0382,4.104,4.1737,4.2396,4.3,4.3245,4.329,4.329,4.329,4.329,4.329,4.329,4.329,4.329,4.329,4.329,4.329,4.329,4.329,4.329,4.329,4.329,4.329,4.329,4.329,4.329,4.329,4.329,4.329,4.329,4.329,4.329,4.329,4.329,4.329,4.329,4.329,4.329,4.329,4.329,4.329,4.329,4.329,4.329,4.329,4.309,4.253,4.2485,4.2186,4.1542,4.0846,4.0202,3.9568,3.9508,3.9514,3.9514,3.9454,3.9388,3.9388,3.9388,3.9388,2.3524,2.4963,2.7021,2.9654,3.2497,3.5011,3.6372,3.706,3.7793,3.9104,3.9305,3.9035,3.8497,3.8841,3.902,3.8482,3.8975,3.9388,3.9388,3.9388,3.9388,3.9388,3.9388,3.9388,3.9388,3.9388,3.9388,3.9388,3.9388,3.9388,3.9388,3.9388,3.9388,3.9388,3.9388,3.9388,3.9388,3.9388,3.9388,3.9388,3.9388,3.9388,3.9388,3.9388,3.9388,3.9388,3.9388,3.9388,3.9388,3.9388,3.9463,3.9694,4.0352,4.101,4.1707,4.2366,4.2895,4.329,4.329,4.329,4.329,4.329,4.329,4.329,4.329,4.329,4.329,4.329,4.329,4.329,4.329,4.329,4.329,4.329,4.329,4.329,4.329,4.329,4.329,4.329,4.329,4.329,4.329,4.329,4.329,4.329,4.329,4.329,4.329,4.329,4.329,4.329,4.329,4.329,4.329,4.329,4.323,4.3135,4.3135,4.2836,4.2216,4.1557,4.11,4.0965,4.0442,4.0187,4.0187,3.9679,3.9388,3.9388,3.9388,3.9388,2.5169,2.6612,2.8338,3.1599,3.3963,3.5684,3.6342,3.6731,3.7255,3.8257,3.894,3.9305,3.8945,3.917,3.9305,3.8945,3.9185,3.9388,3.9388,3.9388,3.9388,3.9388,3.9388,3.9388,3.9388,3.9388,3.9388,3.9388,3.9388,3.9388,3.9388,3.9388,3.9388,3.9388,3.9388,3.9388,3.9388,3.9388,3.9388,3.9388,3.9388,3.9388,3.9388,3.9388,3.9388,3.9388,3.9388,3.9388,3.9388,3.9388,3.9388,3.9484,4.0142,4.0801,4.1497,4.2156,4.2776,4.329,4.329,4.329,4.329,4.329,4.329,4.329,4.329,4.329,4.329,4.329,4.329,4.329,4.329,4.329,4.329,4.329,4.329,4.329,4.329,4.329,4.329,4.329,4.329,4.329,4.329,4.329,4.329,4.329,4.329,4.329,4.329,4.329,4.329,4.329,4.329,4.329,4.329,4.329,4.329,4.329,4.329,4.314,4.2836,4.2506,4.2028,4.1384,4.1055,4.0876,4.0876,4.0531,4.0187,3.9888,3.9888,3.9723,2.6581,2.8223,2.9819,3.3575,3.4996,3.5654,3.6193,3.6402,3.6626,3.715,3.8227,3.9029,3.9029,3.9029,3.9029,3.9029,3.9029,3.9029,3.9029,3.9029,3.9029,3.9029,3.9029,3.9029,3.9029,3.9029,3.9029,3.9029,3.9029,3.9029,3.9029,3.917,3.9245,3.9245,3.9328,3.9388,3.9388,3.9388,3.9388,3.9388,3.9388,3.9388,3.9388,3.9388,3.9388,3.9388,3.9388,3.9388,3.9388,3.9388,3.9388,3.9469,4.0023,4.0711,4.1482,4.2036,4.2671,4.329,4.329,4.329,4.329,4.329,4.329,4.329,4.329,4.329,4.329,4.329,4.329,4.329,4.329,4.329,4.329,4.329,4.329,4.329,4.329,4.329,4.329,4.329,4.329,4.329,4.329,4.329,4.329,4.329,4.329,4.329,4.329,4.329,4.329,4.329,4.329,4.329,4.329,4.329,4.329,4.329,4.329,4.329,4.329,4.329,4.2781,4.1743,4.1647,4.1587,4.1587,4.1482,4.11,4.0561,4.0561,4.0277,2.4036,2.7311,3.0926,3.38,3.4996,3.5534,3.5609,3.6073,3.6507,3.6596,3.718,3.7674,3.7674,3.7674,3.7674,3.7674,3.7674,3.7674,3.7674,3.7674,3.7674,3.7674,3.7674,3.7674,3.7674,3.7674,3.7674,3.7674,3.7674,3.7674,3.7674,3.8212,3.8527,3.8527,3.911,3.9388,3.9388,3.9388,3.9388,3.9388,3.9388,3.9388,3.9388,3.9388,3.9388,3.9388,3.9388,3.9388,3.9388,3.9388,3.9388,3.9388,3.9514,4.0307,4.1384,4.1512,4.2282,4.329,4.329,4.329,4.329,4.329,4.329,4.329,4.329,4.329,4.329,4.329,4.329,4.329,4.329,4.329,4.329,4.329,4.329,4.329,4.329,4.329,4.329,4.329,4.329,4.329,4.329,4.329,4.329,4.329,4.329,4.329,4.329,4.329,4.329,4.329,4.329,4.329,4.329,4.329,4.329,4.329,4.329,4.329,4.329,4.329,4.3215,4.3035,4.2521,4.2276,4.2276,4.1692,4.1324,4.1287,4.1287,4.1205,2.5244,2.8235,3.1195,0.0,3.5044,3.5644,3.6026,3.6331,3.656,3.656,3.6431,3.6567,3.7285,3.7404,3.7404,3.7404,3.7404,3.7404,3.7404,3.7404,3.7404,3.7404,3.7404,3.7404,3.7404,3.7404,3.7404,3.7404,3.7404,3.7404,3.7404,3.7689,3.7838,3.7838,3.8138,3.8287,3.8287,3.8287,3.8482,3.8841,3.923,3.9388,3.9388,3.9388,3.9388,3.9388,3.9388,3.9388,3.9388,3.9388,3.9388,3.9388,3.9388,3.9993,4.0876,4.125,4.1983,4.2836,4.317,4.329,4.329,4.329,4.329,4.329,4.329,4.329,4.329,4.329,4.329,4.329,4.329,4.329,4.329,4.329,4.329,4.329,4.329,4.329,4.329,4.329,4.329,4.329,4.329,4.329,4.329,4.329,4.329,4.329,4.329,4.329,4.329,4.329,4.329,4.329,4.329,4.329,4.329,4.329,4.329,4.329,4.329,4.329,4.329,4.329,4.3045,4.2895,4.2895,4.2611,4.2282,4.1976,4.1976,4.1767,2.5644,0.0,2.9945,3.2615,3.4317,3.556,3.6197,3.6643,3.6843,3.663,3.6165,3.6019,3.678,3.6926,3.6926,3.6926,3.6926,3.6926,3.6926,3.6926,3.6926,3.6926,3.6926,3.6926,3.6926,3.6926,3.6926,3.6926,3.6926,3.6926,3.6926,3.709,3.718,3.718,3.733,3.7404,3.7404,3.7404,3.7749,3.8407,3.8916,3.9245,3.9388,3.9388,3.9388,3.9388,3.9388,3.9388,3.9388,3.9388,3.9388,3.9388,3.9388,3.9828,4.0472,4.113,4.1826,4.25,4.3105,4.329,4.329,4.329,4.329,4.329,4.329,4.329,4.329,4.329,4.329,4.329,4.329,4.329,4.329,4.329,4.329,4.329,4.329,4.329,4.329,4.329,4.329,4.329,4.329,4.329,4.329,4.329,4.329,4.329,4.329,4.329,4.329,4.329,4.329,4.329,4.329,4.329,4.329,4.329,4.329,4.329,4.329,4.329,4.329,4.329,4.329,4.329,4.329,4.329,4.309,4.265,4.265,4.2342,2.3072,2.4672,0.0,2.9187,3.2331,3.4922,3.5499,3.6731,3.7515,3.6768,3.6584,3.6352,3.5726,3.5609,3.5609,3.5609,3.5609,3.5609,3.5609,3.5609,3.5609,3.5609,3.5609,3.5609,3.5609,3.5609,3.5609,3.5609,3.5609,3.5609,3.5609,3.6193,3.6537,3.6537,3.7105,3.7404,3.7404,3.7404,3.7749,3.8392,3.8422,3.8781,3.9388,3.9388,3.9388,3.9388,3.9388,3.9388,3.9388,3.9388,3.9388,3.9388,3.9388,3.9828,4.0472,4.113,4.1826,4.25,4.3105,4.329,4.329,4.329,4.329,4.329,4.329,4.329,4.329,4.329,4.329,4.329,4.329,4.329,4.329,4.329,4.329,4.329,4.329,4.329,4.329,4.329,4.329,4.329,4.329,4.329,4.329,4.329,4.329,4.329,4.329,4.329,4.329,4.329,4.329,4.329,4.329,4.329,4.329,4.329,4.329,4.329,4.329,4.329,4.329,4.329,4.329,4.329,4.329,4.329,4.3275,4.3245,4.3245,4.323,2.3404,0.0,0.0,2.8566,3.1232,3.3528,3.4629,3.64,3.7566,3.6832,3.6621,3.6353,3.5651,3.5504,3.5504,3.5504,3.5504,3.5504,3.5504,3.5504,3.5504,3.5504,3.5504,3.5504,3.5504,3.5504,3.5504,3.5504,3.5504,3.5504,3.5504,3.5729,3.5863,3.5863,3.6073,3.6193,3.6193,3.6611,3.6926,3.718,3.8003,3.8527,3.8781,3.9215,3.9388,3.9388,3.9388,3.9388,3.9388,3.9388,3.9388,3.9388,3.9388,3.9574,3.9903,4.098,4.1572,4.1931,4.2955,4.329,4.329,4.329,4.329,4.329,4.329,4.329,4.329,4.329,4.329,4.3394,4.3813,4.3958,4.4062,4.4496,4.4586,4.4586,4.4586,4.4586,4.4586,4.4586,4.4586,4.4586,4.4586,4.4586,4.4586,4.4586,4.4586,4.4586,4.4586,4.4586,4.4436,4.4003,4.3958,4.3753,4.3334,4.329,4.329,4.329,4.329,4.329,4.329,4.329,4.329,4.329,4.329,4.329,4.329,4.329,4.329,4.329,4.329,4.329,2.2988,0.0,0.0,0.0,2.9701,3.1643,3.4314,3.6034,3.7058,3.7075,3.7036,3.6768,3.6006,3.5668,3.5504,3.5504,3.5504,3.5504,3.5504,3.5504,3.5504,3.5504,3.5504,3.5504,3.5504,3.5504,3.5504,3.5504,3.5504,3.5504,3.5504,3.5504,3.5504,3.5504,3.5504,3.5504,3.5504,3.5938,3.6267,3.6492,3.7554,3.8182,3.8407,3.9095,3.9388,3.9388,3.9388,3.9388,3.9388,3.9388,3.9388,3.9388,3.9388,3.9559,3.9888,4.098,4.1557,4.1901,4.2955,4.329,4.329,4.329,4.329,4.329,4.329,4.329,4.329,4.329,4.3454,4.3723,4.4197,4.4481,4.4751,4.5185,4.5469,4.5648,4.5648,4.5454,4.5289,4.5289,4.5289,4.5289,4.5289,4.5289,4.5289,4.5289,4.5289,4.5289,4.5289,4.5289,4.5125,4.4691,4.4646,4.4466,4.3992,4.3947,4.3898,4.3633,4.3618,4.3529,4.3305,4.329,4.329,4.329,4.329,4.329,4.329,4.329,4.329,4.329,4.329,4.329,0.0,0.0,0.0,0.0,0.0,0.0,3.4319,3.5455,3.5872,3.7388,3.7674,3.7449,3.6737,3.6006,3.5504,3.5537,3.5537,3.5537,3.5537,3.5537,3.5537,3.5504,3.5504,3.5504,3.5504,3.5504,3.5504,3.5504,3.5504,3.5504,3.5504,3.5504,3.5504,3.5504,3.5504,3.5504,3.5504,3.5504,3.5833,3.6462,3.709,3.7719,3.8377,3.9065,3.9394,3.9388,3.9388,3.9388,3.9388,3.9388,3.9388,3.9388,3.9388,3.9828,4.0472,4.113,4.1826,4.25,4.3105,4.329,4.329,4.329,4.329,4.329,4.329,4.329,4.329,4.3319,4.3783,4.4332,4.4362,4.487,4.5349,4.5349,4.5873,4.6309,4.6309,4.5828,4.5349,4.5349,4.5349,4.5349,4.5349,4.5349,4.5349,4.5349,4.5349,4.5349,4.5349,4.5349,4.5349,4.5334,4.5334,4.5319,4.5289,4.5289,4.502,4.4392,4.4332,4.3992,4.3349,4.3305,4.329,4.329,4.329,4.3329,4.3329,4.3329,4.329,4.329,4.329,4.329,2.224,0.0,0.0,0.0,0.0,0.0,2.942,3.0833,3.2337,3.4904,3.4962,3.4964,3.6364,3.6006,3.5668,3.6228,3.6306,3.6306,3.6306,3.6306,3.6086,3.5554,3.5504,3.5504,3.5504,3.5504,3.5504,3.5504,3.5504,3.5504,3.5504,3.5504,3.5504,3.5504,3.5504,3.5504,3.5504,3.5504,3.5594,3.5789,3.6432,3.706,3.7704,3.8377,3.8945,3.9388,3.9388,3.9388,3.9388,3.9388,3.9388,3.9388,3.9388,3.9828,4.0472,4.113,4.1826,4.25,4.3105,4.329,4.329,4.329,4.329,4.329,4.329,4.329,4.3394,4.3873,4.4182,4.4541,4.5472,4.6262,4.6756,4.6756,4.689,4.704,4.704,4.689,4.6756,4.6756,4.6756,4.6756,4.6756,4.6756,4.6756,4.6756,4.6756,4.6756,4.6756,4.6756,4.6561,4.6097,4.6037,4.5843,4.5334,4.5289,4.5214,4.5035,4.4571,4.4227,4.4047,4.3544,4.329,4.329,4.329,4.3669,4.4373,4.3669,4.329,4.329,4.329,4.329,2.3038,0.0,0.0,0.0,0.0,0.0,2.8535,2.9448,3.0651,3.4228,3.4595,3.4738,3.6345,3.631,3.6258,3.6996,3.7364,3.732,3.6691,3.6615,3.6337,3.5587,3.5782,3.5846,3.5537,3.5782,3.5831,3.5537,3.5504,3.5504,3.5504,3.5504,3.5504,3.5504,3.5504,3.5504,3.5504,3.5504,3.5504,3.5519,3.6178,3.6806,3.7434,3.8093,3.8766,3.9388,3.9388,3.9388,3.9388,3.9388,3.9388,3.9388,3.9388,3.9993,4.0846,4.1272,4.1968,4.2821,4.317,4.329,4.329,4.329,4.329,4.329,4.329,4.329,4.3424,4.4122,4.4721,4.5394,4.6456,4.7025,4.7309,4.7309,4.7309,4.7309,4.7309,4.7309,4.7309,4.7309,4.7309,4.7309,4.7309,4.7309,4.7309,4.7309,4.7309,4.7309,4.7309,4.7309,4.716,4.677,4.6741,4.6576,4.6172,4.6127,4.6022,4.5738,4.5364,4.49,4.4332,4.3902,4.3574,4.3305,4.329,4.3771,4.4812,4.422,4.4128,4.4502,4.4502,4.4502,2.4137,2.4305,0.0,0.0,2.522,0.0,2.9364,2.9517,2.9924,3.4011,3.4798,3.503,3.6032,3.6211,3.6419,3.7078,3.8025,3.823,3.7023,3.6873,3.6569,3.5733,3.629,3.6446,3.5701,3.629,3.6415,3.5668,3.5569,3.5504,3.5504,3.5504,3.5504,3.5504,3.5504,3.5504,3.5504,3.5504,3.5504,3.5519,3.6088,3.6731,3.7434,3.8018,3.8691,3.9388,3.9388,3.9388,3.9388,3.9388,3.9388,3.9388,3.9388,4.0232,4.1422,4.1422,4.2207,4.329,4.329,4.329,4.329,4.329,4.329,4.329,4.329,4.329,4.3439,4.4212,4.5394,4.6576,4.716,4.7309,4.7309,4.7309,4.7309,4.7309,4.7309,4.7309,4.7309,4.7309,4.7309,4.7309,4.7309,4.7309,4.7309,4.7309,4.7309,4.7309,4.7309,4.7309,4.7309,4.7309,4.7309,4.7309,4.7309,4.7309,4.7055,4.6429,4.6324,4.5756,4.4586,4.4466,4.4122,4.3409,4.3542,4.4066,4.4946,4.4849,4.5285,4.6208,4.6208,4.6208,2.6302,2.659,2.681,2.5303,2.6437,0.0,2.5372,2.6065,2.7757,2.9856,2.9779,3.0124,3.2692,3.3127,3.315,3.3352,3.549,3.7443,3.8318,3.8453,3.793,3.6554,3.707,3.7249,3.6446,3.71,3.7249,3.6446,3.5846,3.5504,3.5504,3.5504,3.5504,3.5504,3.5504,3.5504,3.5504,3.5504,3.5504,3.5504,3.5639,3.6297,3.7404,3.7539,3.8272,3.9388,3.9388,3.9388,3.9388,3.9388,3.9388,3.9388,3.9388,4.0232,4.1422,4.1422,4.2207,4.329,4.329,4.329,4.329,4.329,4.329,4.329,4.329,4.329,4.3544,4.4766,4.6067,4.7145,4.7279,4.7309,4.7309,4.7309,4.7309,4.7309,4.7309,4.7309,4.7309,4.7309,4.7309,4.7309,4.7309,4.7309,4.7309,4.7309,4.7309,4.7309,4.7309,4.7309,4.7309,4.7309,4.7309,4.7309,4.7309,4.7309,4.7249,4.7115,4.6621,4.616,4.5906,4.5394,4.4796,4.4137,4.5104,4.571,4.5941,4.5153,4.5285,4.6208,4.6208,4.6208,2.7774,2.7824,2.8129,2.7013,0.0,0.0,0.0,2.6167,2.6894,2.9533,2.8865,2.86,3.1254,3.1704,3.1824,3.223,3.4462,3.6419,3.7136,3.8186,3.8481,3.7322,3.7876,3.7905,3.6722,3.7658,3.786,3.6691,3.5926,3.5504,3.5504,3.5504,3.5504,3.5504,3.5504,3.5504,3.5504,3.5504,3.5504,3.5504,3.5504,3.6178,3.7404,3.7404,3.8138,3.9388,3.9388,3.9388,3.9388,3.9388,3.9388,3.9388,3.9388,4.0232,4.1422,4.1422,4.2207,4.329,4.329,4.329,4.329,4.329,4.329,4.329,4.329,4.3753,4.4526,4.5529,4.6531,4.7309,4.7309,4.7309,4.7309,4.7309,4.7309,4.7309,4.7309,4.7309,4.7309,4.7309,4.7309,4.7309,4.7309,4.7309,4.7309,4.7309,4.7309,4.7309,4.7309,4.7309,4.7309,4.7309,4.7309,4.7309,4.7309,4.7309,4.7309,4.7309,4.6995,4.6666,4.6294,4.5992,4.5334,4.4332,4.4925,4.5316,4.5488,4.5488,4.6224,4.7589,4.7589,4.7589,3.0004,2.9888,3.0296,0.0,0.0,2.8197,0.0,0.0,0.0,2.9583,2.8772,2.8145,2.9989,3.0328,3.0531,3.1125,3.3203,3.4687,3.4551,3.656,3.7814,3.7242,3.8079,3.8155,3.6764,3.7512,3.7748,3.6903,3.5657,3.51,3.5489,3.5504,3.5569,3.5701,3.5701,3.5701,3.5701,3.5701,3.5636,3.5504,3.5504,3.6178,3.7404,3.7404,3.8138,3.9388,3.9388,3.9388,3.9388,3.9388,3.9388,3.9388,3.9388,4.0232,4.1422,4.1422,4.2207,4.329,4.329,4.329,4.329,4.329,4.329,4.3319,4.3439,4.4347,4.5439,4.6127,4.68,4.7309,4.7309,4.7309,4.7309,4.7309,4.7309,4.7309,4.7309,4.7309,4.7309,4.7309,4.7309,4.7309,4.7309,4.7309,4.7309,4.7309,4.7309,4.7309,4.7309,4.7309,4.7309,4.7309,4.7309,4.7381,4.7566,4.7566,4.7694,4.7892,4.7892,4.7649,4.7103,4.6967,4.6293,4.5016,4.5099,4.5257,4.5562,4.6359,4.7423,4.8719,4.894,4.9001,0.0,0.0,0.0,0.0,3.1799,0.0,0.0,0.0,2.8163,2.6573,0.0,0.0,0.0,0.0,0.0,0.0,0.0,3.1478,3.0835,3.3191,3.4973,3.4882,3.6736,3.766,3.6764,3.5837,3.5937,3.7546,3.4648,3.3634,3.5415,3.5504,3.5814,3.6446,3.6477,3.6477,3.6477,3.6477,3.6134,3.5504,3.5504,3.6178,3.7404,3.7404,3.8138,3.9388,3.9388,3.9388,3.9388,3.9388,3.9388,3.9388,3.9388,4.0232,4.1422,4.1422,4.2207,4.329,4.329,4.329,4.329,4.329,4.329,4.3409,4.4032,4.4721,4.5439,4.6127,4.68,4.7309,4.7309,4.7309,4.7309,4.7309,4.7309,4.7309,4.7309,4.7309,4.7309,4.7309,4.7309,4.7309,4.7309,4.7309,4.7309,4.7309,4.7309,4.7309,4.7309,4.7309,4.7309,4.7309,4.7309,4.7651,4.8553,4.8636,4.9029,4.9986,5.0064,5.0016,4.9937,4.9356,4.852,4.7426,4.7942,4.8217,4.8238,4.8542,4.837,4.777,4.8608,4.9001,0.0,0.0,0.0,0.0,0.0,0.0,2.7943,0.0,2.6996,0.0,0.0,0.0,0.0,0.0,0.0,0.0,2.7841,0.0,2.823,3.0328,3.2424,3.3707,3.4701,3.5492,3.5997,3.4771,3.4681,3.6462,3.4319,3.371,3.5477,3.5522,3.6053,3.7249,3.6446,3.6165,3.6615,3.6165,3.5814,3.5504,3.5504,3.6178,3.7404,3.7404,3.8138,3.9388,3.9388,3.9388,3.9388,3.9388,3.9388,3.9454,3.9843,4.0561,4.1422,4.1422,4.2207,4.329,4.329,4.329,4.329,4.329,4.3544,4.4032,4.4691,4.5364,4.6037,4.6711,4.71,4.7309,4.7309,4.7309,4.7309,4.7309,4.7309,4.7309,4.7309,4.7309,4.7452,4.8072,4.8183,4.8183,4.8183,4.7679,4.7495,4.8057,4.8183,4.8418,4.9019,4.8584,4.8183,4.8183,4.7651,4.7722,4.8702,4.8784,4.9256,5.032,5.0397,5.0397,5.0397,5.0147,4.9589,4.8753,4.8971,4.8907,4.8521,4.8728,4.8613,4.8248,4.8746,4.9001,3.7144,0.0,0.0,0.0,0.0,0.0,0.0,0.0,0.0,0.0,0.0,0.0,0.0,0.0,0.0,0.0,0.0,2.7401,0.0,2.7706,0.0,0.0,0.0,0.0,3.5165,3.3611,3.3389,3.5503,3.3517,3.328,3.5763,3.5459,3.6106,3.8048,3.6615,3.6149,3.6904,3.618,3.5701,3.5504,3.5684,3.6342,3.7419,3.7599,3.8317,3.9388,3.9388,3.9388,3.9388,3.9388,3.9388,3.9484,4.0142,4.0972,4.1768,4.1693,4.2357,4.3329,4.363,4.3693,4.3699,4.3618,4.3888,4.4466,4.5319,4.5918,4.6456,4.7115,4.7309,4.7309,4.7309,4.7309,4.7309,4.7309,4.7309,4.7309,4.7309,4.7309,4.7609,4.8594,4.8784,4.8907,4.9191,4.8377,4.7946,4.8677,4.8784,4.9191,5.0242,4.9734,4.9215,4.9215,4.8584,4.8543,4.956,4.9639,5.011,5.1171,5.1245,5.1096,5.0817,5.1096,5.0874,5.0101,5.0164,4.9952,4.9466,4.9387,4.9377,4.9393,4.9125,4.9001,0.0,0.0,0.0,3.4506,0.0,0.0,0.0,0.0,2.977,0.0,0.0,0.0,0.0,0.0,0.0,0.0,0.0,0.0,0.0,0.0,0.0,0.0,0.0,0.0,0.0,3.2088,3.1913,3.5341,3.1779,3.1561,3.6414,3.5293,3.5843,3.8767,3.735,3.695,3.7748,3.698,3.6196,3.5519,3.6148,3.6791,3.7434,3.8063,3.8751,3.9388,3.9388,3.9388,3.9388,3.9388,3.9388,3.9484,4.0142,4.1368,4.2705,4.2478,4.2761,4.3433,4.4396,4.4737,4.4694,4.4368,4.4302,4.4571,4.5888,4.6264,4.6456,4.7115,4.7309,4.7309,4.7309,4.7309,4.7309,4.7309,4.7309,4.7309,4.7309,4.7309,4.7609,4.8594,4.8784,4.915,5.0165,4.9456,4.8743,4.8784,4.8784,4.9191,5.0242,5.0358,5.0358,5.0358,5.032,5.0703,5.1724,5.1796,5.2277,5.3348,5.3382,5.2939,5.1885,5.2835,5.2904,5.1836,5.2066,5.2184,5.2183,5.1457,5.1102,5.1085,4.9647,4.9001,0.0,0.0,4.0104,3.7127,0.0,0.0,0.0,0.0,0.0,0.0,0.0,0.0,0.0,0.0,0.0,0.0,0.0,0.0,0.0,0.0,0.0,0.0,0.0,0.0,0.0,3.0597,3.1437,3.2669,3.1848,3.2684,3.5857,3.5475,3.6332,3.8891,3.7432,3.6994,3.7777,3.6994,3.6228,3.5519,3.6178,3.6806,3.7434,3.8093,3.8766,3.9409,4.0025,3.992,3.9445,4.0025,4.055,4.1045,4.1735,4.2613,4.336,4.2659,4.3212,4.4259,4.3927,4.4098,4.4427,4.4348,4.4915,4.5696,4.6145,4.6636,4.7025,4.7249,4.7309,4.7309,4.7309,4.7309,4.7309,4.7309,4.7309,4.7309,4.7309,4.7309,4.7807,4.9551,4.9852,5.0204,5.1229,5.108,5.0838,5.0838,5.0838,5.1229,5.2293,5.1829,5.1377,5.1377,5.0779,5.0817,5.1796,5.2557,5.311,5.3467,5.3501,5.3348,5.299,5.3314,5.3348,5.299,5.3045,5.3095,5.3095,5.2317,5.1944,5.1911,5.093,5.0202,4.1068,4.139,0.0,3.8836,3.7178,0.0,3.2019,0.0,3.2188,0.0,0.0,0.0,0.0,0.0,0.0,0.0,0.0,0.0,0.0,2.3528,0.0,0.0,0.0,0.0,0.0,2.8991,2.9888,3.1532,3.1084,3.2165,0.0,3.5336,3.6338,3.8922,3.7434,3.6994,3.7777,3.7279,3.6523,3.5504,3.667,3.7455,3.7898,3.8808,3.944,3.99,4.0466,4.022,3.9481,4.0343,4.1127,4.1845,4.2508,4.339,4.4194,4.3509,4.3929,4.4662,4.3669,4.3933,4.4785,4.4693,4.5424,4.6324,4.6563,4.698,4.7309,4.7309,4.7309,4.7309,4.7309,4.7309,4.7309,4.7309,4.7309,4.7309,4.7309,4.7309,4.7919,5.0025,5.0397,5.0817,5.2241,5.247,5.2348,5.1957,5.1921,5.2277,5.3348,5.2904,5.247,5.247,5.1902,5.1756,5.24,5.311,5.3501,5.3501,5.3501,5.3501,5.3501,5.3501,5.3501,5.3501,5.3501,5.3501,5.3501,5.2993,5.2739,5.2706,5.1961,5.1336]}]]